[[{"header":{"parameterUnit":"m.s-1","parameterCategory":1,"la1":31.0,"la2":29.5877,"lo1":-88.7671,"lo2":-86.6584,"dx":0.0162,"dy":0.0185,"nx":115,"ny":88,"refTime":"2022-12-01T06:00:00:Z","depth":0,"parameterNumber":2,"parameterNumberName":"U-component_of_WINDS"},"data":[0.0,0.0,0.0,0.0,0.0,0.0,0.0,0.0,0.0,0.0,0.0,0.0,0.0,0.0,0.0,0.0,0.0,0.0,0.0,0.0,0.0,0.0,0.0,0.0,0.0,0.0,0.0,0.0,0.0,0.0,0.0,0.0,0.0,0.0,0.0,0.0,0.0,0.0,0.0,0.0,0.0,0.0,0.0,0.0,0.0,0.0,0.0,0.0,0.0,0.0,0.0,0.0,0.0,0.0,0.0,0.0,0.0,0.0,0.0,0.0,0.0,0.0,0.0,0.0,0.0,0.0,0.0,0.0,0.0,0.0,0.0,0.0,0.0,0.0,0.0,0.0,0.0,0.0,0.0,0.0,0.0,0.0,0.0,0.0,0.0,0.0,0.0,0.0,0.0,0.0,0.0,0.0,0.0,0.0,0.0,0.0,0.0,0.0,0.0,0.0,0.0,0.0,0.0,0.0,0.0,0.0,0.0,0.0,0.0,0.0,0.0,0.0,0.0,0.0,0.0,0.0,0.0,0.0,0.0,0.0,0.0,0.0,0.0,0.0,0.0,0.0,0.0,0.0,0.0,0.0,0.0,0.0,0.0,0.0,0.0,0.0,0.0,0.0,0.0,0.0,0.0,0.0,0.0,0.0,0.0,0.0,0.0,0.0,0.0,0.0,0.0,0.0,0.0,0.0,0.0,0.0,0.0,0.0,0.0,0.0,0.0,0.0,0.0,0.0,0.0,0.0,0.0,0.0,0.0,0.0,0.0,0.0,0.0,0.0,0.0,0.0,0.0,0.0,0.0,0.0,0.0,0.0,0.0,0.0,0.0,0.0,0.0,0.0,0.0,0.0,0.0,0.0,0.0,0.0,0.0,0.0,0.0,0.0,0.0,0.0,0.0,0.0,0.0,0.0,0.0,0.0,0.0,0.0,0.0,0.0,0.0,0.0,0.0,0.0,0.0,0.0,0.0,0.0,0.0,0.0,0.0,0.0,0.0,0.0,0.0,0.0,0.0,0.0,0.0,0.0,0.0,0.0,0.0,0.0,0.0,0.0,0.0,0.0,0.0,0.0,0.0,0.0,0.0,0.0,0.0,0.0,0.0,0.0,0.0,0.0,0.0,0.0,0.0,0.0,0.0,0.0,0.0,0.0,0.0,0.0,0.0,0.0,0.0,0.0,0.0,0.0,0.0,0.0,0.0,0.0,0.0,0.0,0.0,0.0,0.0,0.0,0.0,0.0,0.0,0.0,0.0,0.0,0.0,0.0,0.0,0.0,0.0,0.0,0.0,0.0,0.0,0.0,0.0,0.0,0.0,0.0,0.0,0.0,0.0,0.0,0.0,0.0,0.0,0.0,0.0,0.0,0.0,0.0,0.0,0.0,0.0,0.0,0.0,0.0,0.0,0.0,0.0,0.0,0.0,0.0,0.0,0.0,0.0,0.0,0.0,0.0,0.0,0.0,0.0,0.0,0.0,0.0,0.0,0.0,0.0,0.0,0.0,0.0,0.0,0.0,0.0,0.0,0.0,0.0,0.0,0.0,0.0,0.0,0.0,0.0,0.0,0.0,0.0,0.0,0.0,0.0,0.0,0.0,0.0,0.0,0.0,0.0,0.0,0.0,0.0,0.0,0.0,0.0,0.0,0.0,0.0,0.0,0.0,0.0,0.0,0.0,0.0,0.0,0.0,0.0,0.0,0.0,0.0,0.0,0.0,0.0,0.0,0.0,0.0,0.0,0.0,0.0,0.0,0.0,0.0,0.0,0.0,0.0,0.0,0.0,0.0,0.0,0.0,0.0,0.0,0.0,0.0,0.0,0.0,0.0,0.0,0.0,0.0,0.0,0.0,0.0,0.0,0.0,0.0,0.0,0.0,0.0,0.0,0.0,0.0,0.0,0.0,0.0,0.0,0.0,0.0,0.0,0.0,0.0,0.0,0.0,0.0,0.0,0.0,0.0,0.0,0.0,0.0,0.0,0.0,0.0,0.0,0.0,0.0,0.0,0.0,0.0,0.0,0.0,0.0,0.0,0.0,0.0,0.0,0.0,0.0,0.0,0.0,0.0,0.0,0.0,0.0,0.0,0.0,0.0,0.0,0.0,0.0,0.0,0.0,0.0,0.0,0.0,0.0,0.0,0.0,0.0,0.0,0.0,0.0,0.0,0.0,0.0,0.0,0.0,0.0,0.0,0.0,0.0,0.0,0.0,0.0,0.0,0.0,0.0,0.0,0.0,0.0,0.0,0.0,0.0,0.0,0.0,0.0,0.0,0.0,0.0,0.0,0.0,0.0,0.0,0.0,0.0,0.0,0.0,0.0,0.0,0.0,0.0,0.0,0.0,0.0,0.0,0.0,0.0,0.0,0.0,0.0,0.0,0.0,0.0,0.0,0.0,0.0,0.0,0.0,0.0,0.0,0.0,0.0,0.0,0.0,0.0,0.0,0.0,0.0,0.0,0.0,0.0,0.0,0.0,0.0,0.0,0.0,0.0,0.0,0.0,0.0,0.0,0.0,0.0,0.0,0.0,0.0,0.0,0.0,0.0,0.0,0.0,0.0,0.0,0.0,0.0,0.0,0.0,0.0,0.0,0.0,0.0,0.0,0.0,0.0,0.0,0.0,0.0,0.0,0.0,0.0,0.0,0.0,0.0,0.0,0.0,0.0,0.0,0.0,0.0,0.0,0.0,0.0,0.0,0.0,0.0,0.0,0.0,0.0,0.0,0.0,0.0,0.0,0.0,0.0,0.0,0.0,0.0,0.0,0.0,0.0,0.0,0.0,0.0,0.0,0.0,0.0,0.0,0.0,0.0,0.0,0.0,0.0,0.0,0.0,0.0,0.0,0.0,0.0,0.0,0.0,0.0,0.0,0.0,0.0,0.0,0.0,0.0,0.0,0.0,0.0,0.0,0.0,0.0,0.0,0.0,0.0,0.0,0.0,0.0,0.0,0.0,0.0,0.0,0.0,0.0,0.0,0.0,0.0,0.0,0.0,0.0,0.0,0.0,0.0,0.0,0.0,0.0,0.0,0.0,0.0,0.0,0.0,0.0,0.0,0.0,0.0,0.0,0.0,0.0,0.0,0.0,0.0,0.0,0.0,0.0,0.0,0.0,0.0,0.0,0.0,0.0,0.0,0.0,0.0,0.0,0.0,0.0,0.0,0.0,0.0,0.0,0.0,0.0,0.0,0.0,0.0,0.0,0.0,0.0,0.0,0.0,0.0,0.0,0.0,0.0,0.0,0.0,0.0,0.0,0.0,0.0,0.0,0.0,0.0,0.0,0.0,0.0,0.0,0.0,0.0,0.0,0.0,0.0,0.0,0.0,0.0,0.0,0.0,0.0,0.0,0.0,0.0,0.0,0.0,0.0,0.0,0.0,0.0,0.0,0.0,0.0,0.0,0.0,0.0,0.0,0.0,0.0,0.0,0.0,0.0,0.0,0.0,0.0,0.0,0.0,0.0,0.0,0.0,0.0,0.0,0.0,0.0,0.0,0.0,0.0,0.0,0.0,0.0,0.0,0.0,0.0,0.0,0.0,0.0,0.0,0.0,0.0,0.0,0.0,0.0,0.0,0.0,0.0,0.0,0.0,0.0,0.0,0.0,0.0,0.0,0.0,0.0,0.0,0.0,0.0,0.0,0.0,0.0,0.0,0.0,0.0,0.0,0.0,0.0,0.0,0.0,0.0,0.0,0.0,0.0,0.0,0.0,0.0,0.0,0.0,0.0,0.0,0.0,0.0,0.0,0.0,0.0,0.0,0.0,0.0,0.0,0.0,0.0,0.0,0.0,0.0,0.0,0.0,0.0,0.0,0.0,0.0,0.0,0.0,0.0,0.0,0.0,0.0,0.0,0.0,0.0,0.0,0.0,0.0,0.0,0.0,0.0,0.0,0.0,0.0,0.0,0.0,0.0,0.0,0.0,0.0,0.0,0.0,0.0,0.0,0.0,0.0,0.0,0.0,0.0,0.0,0.0,0.0,0.0,0.0,0.0,0.0,0.0,0.0,0.0,0.0,0.0,0.0,0.0,0.0,0.0,0.0,0.0,0.0,0.0,0.0,0.0,0.0,0.0,0.0,0.0,0.0,0.0,0.0,0.0,0.0,0.0,0.0,0.0,0.0,0.0,0.0,0.0,0.0,0.0,0.0,0.0,0.0,0.0,0.0,0.0,0.0,0.0,0.0,0.0,0.0,0.0,0.0,0.0,0.0,0.0,0.0,0.0,0.0,0.0,0.0,0.0,0.0,0.0,0.0,0.0,0.0,0.0,0.0,-2.0469,0.0,0.0,0.0,-1.9163,0.0,0.0,0.0,0.0,0.0,0.0,0.0,0.0,0.0,0.0,0.0,0.0,0.0,0.0,0.0,0.0,0.0,0.0,0.0,0.0,0.0,0.0,0.0,0.0,0.0,0.0,0.0,0.0,0.0,0.0,0.0,0.0,0.0,0.0,0.0,0.0,0.0,0.0,0.0,0.0,0.0,0.0,0.0,0.0,0.0,0.0,0.0,0.0,0.0,0.0,0.0,0.0,0.0,0.0,0.0,0.0,0.0,0.0,0.0,0.0,0.0,0.0,0.0,0.0,0.0,0.0,0.0,0.0,0.0,0.0,0.0,0.0,0.0,0.0,0.0,0.0,0.0,0.0,0.0,0.0,0.0,0.0,0.0,0.0,0.0,0.0,0.0,0.0,0.0,0.0,0.0,0.0,0.0,0.0,0.0,0.0,0.0,0.0,0.0,0.0,0.0,0.0,0.0,0.0,0.0,0.0,0.0,0.0,0.0,0.0,-2.0346,-1.9633,-2.0023,-1.9815,-1.8923,0.0,0.0,0.0,0.0,0.0,0.0,0.0,0.0,0.0,0.0,0.0,0.0,0.0,0.0,0.0,0.0,0.0,0.0,0.0,0.0,0.0,0.0,0.0,0.0,0.0,0.0,0.0,0.0,0.0,0.0,0.0,0.0,0.0,0.0,0.0,0.0,0.0,0.0,0.0,0.0,0.0,0.0,0.0,0.0,0.0,0.0,0.0,0.0,0.0,0.0,0.0,0.0,0.0,0.0,0.0,0.0,0.0,0.0,0.0,0.0,0.0,0.0,0.0,0.0,0.0,0.0,0.0,0.0,0.0,0.0,0.0,0.0,0.0,0.0,0.0,0.0,0.0,0.0,0.0,0.0,0.0,0.0,0.0,0.0,0.0,0.0,0.0,0.0,0.0,0.0,0.0,0.0,0.0,0.0,0.0,0.0,0.0,0.0,0.0,0.0,0.0,0.0,0.0,0.0,0.0,0.0,0.0,0.0,0.0,0.0,0.0,0.0,-2.0072,-1.9917,-1.8675,0.0,0.0,0.0,0.0,0.0,0.0,0.0,0.0,0.0,0.0,0.0,0.0,0.0,0.0,0.0,0.0,0.0,0.0,0.0,0.0,0.0,0.0,0.0,0.0,0.0,0.0,0.0,0.0,0.0,0.0,0.0,0.0,0.0,0.0,0.0,0.0,0.0,0.0,0.0,0.0,0.0,0.0,0.0,0.0,0.0,0.0,0.0,0.0,0.0,0.0,0.0,0.0,0.0,0.0,0.0,0.0,0.0,0.0,0.0,0.0,0.0,0.0,0.0,0.0,0.0,0.0,0.0,0.0,0.0,0.0,0.0,0.0,0.0,0.0,0.0,0.0,0.0,0.0,0.0,0.0,0.0,0.0,0.0,0.0,0.0,0.0,0.0,0.0,0.0,0.0,0.0,0.0,0.0,0.0,0.0,0.0,0.0,0.0,0.0,0.0,0.0,0.0,0.0,0.0,0.0,0.0,0.0,0.0,0.0,0.0,-1.8855,-1.8453,-1.9224,0.0,-1.8127,0.0,0.0,0.0,0.0,0.0,0.0,0.0,0.0,0.0,0.0,0.0,0.0,0.0,0.0,0.0,0.0,0.0,0.0,0.0,0.0,0.0,0.0,0.0,0.0,0.0,0.0,0.0,0.0,0.0,0.0,0.0,0.0,0.0,0.0,0.0,0.0,0.0,0.0,0.0,0.0,0.0,0.0,0.0,0.0,0.0,0.0,0.0,0.0,0.0,0.0,0.0,0.0,0.0,0.0,0.0,0.0,0.0,0.0,0.0,0.0,0.0,0.0,0.0,0.0,0.0,0.0,0.0,0.0,0.0,0.0,0.0,0.0,0.0,0.0,0.0,0.0,0.0,0.0,0.0,0.0,0.0,0.0,0.0,0.0,0.0,0.0,0.0,0.0,0.0,0.0,0.0,0.0,0.0,0.0,0.0,0.0,0.0,0.0,0.0,0.0,0.0,0.0,0.0,0.0,0.0,0.0,0.0,0.0,0.0,0.0,-1.9039,-1.9354,-1.9525,-1.87,0.0,0.0,0.0,0.0,0.0,0.0,0.0,0.0,0.0,0.0,0.0,0.0,0.0,0.0,0.0,0.0,0.0,0.0,0.0,0.0,0.0,0.0,0.0,0.0,0.0,0.0,0.0,0.0,0.0,0.0,0.0,0.0,0.0,0.0,0.0,0.0,0.0,0.0,0.0,0.0,0.0,0.0,0.0,0.0,0.0,0.0,0.0,0.0,0.0,0.0,0.0,0.0,0.0,0.0,0.0,0.0,0.0,0.0,0.0,0.0,0.0,0.0,0.0,0.0,0.0,0.0,0.0,0.0,0.0,0.0,0.0,0.0,0.0,0.0,0.0,0.0,0.0,0.0,0.0,0.0,0.0,0.0,0.0,0.0,0.0,0.0,0.0,0.0,0.0,0.0,0.0,0.0,0.0,0.0,0.0,0.0,0.0,0.0,0.0,0.0,0.0,0.0,0.0,0.0,0.0,0.0,0.0,0.0,0.0,0.0,-1.9154,-1.93,-1.9953,-1.931,-1.8031,-1.613,0.0,0.0,0.0,0.0,0.0,0.0,0.0,0.0,0.0,0.0,0.0,0.0,0.0,0.0,0.0,0.0,0.0,0.0,0.0,0.0,0.0,0.0,0.0,0.0,0.0,0.0,0.0,0.0,0.0,0.0,0.0,0.0,0.0,0.0,0.0,0.0,0.0,0.0,0.0,0.0,0.0,0.0,0.0,0.0,0.0,0.0,0.0,0.0,0.0,0.0,0.0,0.0,0.0,0.0,0.0,0.0,0.0,0.0,0.0,0.0,0.0,0.0,0.0,0.0,0.0,0.0,0.0,0.0,0.0,0.0,0.0,0.0,0.0,0.0,0.0,0.0,0.0,0.0,0.0,0.0,0.0,0.0,0.0,0.0,0.0,0.0,0.0,0.0,0.0,0.0,0.0,0.0,0.0,0.0,0.0,0.0,0.0,0.0,0.0,0.0,0.0,0.0,0.0,0.0,0.0,0.0,0.0,0.0,-2.0164,-1.9503,-1.9327,-1.9771,-1.8004,-1.6938,0.0,0.0,0.0,0.0,0.0,0.0,0.0,0.0,0.0,0.0,0.0,0.0,0.0,0.0,0.0,0.0,0.0,0.0,0.0,0.0,0.0,0.0,0.0,0.0,0.0,0.0,0.0,0.0,0.0,0.0,0.0,0.0,0.0,0.0,0.0,0.0,0.0,0.0,0.0,0.0,0.0,0.0,0.0,0.0,0.0,0.0,0.0,0.0,0.0,0.0,0.0,0.0,0.0,0.0,0.0,0.0,0.0,0.0,0.0,0.0,0.0,0.0,0.0,0.0,0.0,0.0,0.0,0.0,0.0,0.0,0.0,0.0,0.0,0.0,0.0,0.0,0.0,0.0,0.0,0.0,0.0,0.0,0.0,0.0,0.0,0.0,0.0,0.0,0.0,0.0,0.0,0.0,0.0,0.0,0.0,0.0,0.0,0.0,0.0,0.0,0.0,0.0,0.0,0.0,0.0,0.0,0.0,0.0,0.0,-1.9345,-1.9569,-1.9691,-1.9704,-1.852,-1.7527,0.0,0.0,0.0,0.0,0.0,0.0,0.0,0.0,0.0,0.0,0.0,0.0,0.0,0.0,0.0,0.0,0.0,0.0,0.0,0.0,0.0,0.0,0.0,0.0,0.0,0.0,0.0,0.0,0.0,0.0,0.0,0.0,0.0,0.0,0.0,0.0,0.0,0.0,0.0,0.0,0.0,0.0,0.0,0.0,0.0,0.0,0.0,0.0,0.0,0.0,0.0,0.0,0.0,0.0,0.0,0.0,0.0,0.0,0.0,0.0,0.0,0.0,0.0,0.0,0.0,0.0,0.0,0.0,0.0,0.0,0.0,0.0,0.0,0.0,0.0,0.0,0.0,0.0,0.0,0.0,0.0,0.0,0.0,0.0,0.0,0.0,0.0,0.0,0.0,0.0,0.0,0.0,0.0,0.0,0.0,0.0,0.0,0.0,0.0,0.0,0.0,0.0,0.0,0.0,0.0,0.0,0.0,0.0,0.0,-1.9143,-2.0061,-2.0272,-1.9685,-1.8596,-1.7537,0.0,0.0,0.0,0.0,0.0,0.0,0.0,0.0,0.0,0.0,0.0,0.0,0.0,0.0,0.0,0.0,0.0,0.0,0.0,0.0,0.0,0.0,0.0,0.0,0.0,0.0,0.0,0.0,0.0,0.0,0.0,0.0,0.0,0.0,0.0,0.0,0.0,0.0,0.0,0.0,0.0,0.0,0.0,0.0,0.0,0.0,0.0,0.0,0.0,0.0,0.0,0.0,0.0,0.0,0.0,0.0,0.0,0.0,0.0,0.0,0.0,0.0,0.0,0.0,0.0,0.0,0.0,0.0,0.0,0.0,0.0,0.0,0.0,0.0,0.0,0.0,0.0,0.0,0.0,0.0,0.0,0.0,0.0,0.0,0.0,0.0,0.0,0.0,0.0,0.0,0.0,0.0,0.0,0.0,0.0,0.0,0.0,0.0,0.0,0.0,0.0,0.0,0.0,0.0,0.0,0.0,0.0,0.0,-1.8333,-1.9724,-2.0974,-2.0964,-1.9735,-1.8108,-1.6789,0.0,0.0,0.0,0.0,0.0,0.0,0.0,0.0,0.0,0.0,0.0,0.0,0.0,0.0,0.0,0.0,0.0,0.0,0.0,0.0,0.0,0.0,0.0,0.0,0.0,0.0,0.0,0.0,0.0,0.0,0.0,0.0,0.0,0.0,0.0,0.0,0.0,0.0,0.0,0.0,0.0,0.0,0.0,0.0,0.0,0.0,0.0,0.0,0.0,0.0,0.0,0.0,0.0,0.0,0.0,0.0,0.0,0.0,0.0,0.0,0.0,0.0,0.0,0.0,0.0,0.0,0.0,0.0,0.0,0.0,0.0,0.0,0.0,0.0,0.0,0.0,0.0,0.0,0.0,0.0,0.0,0.0,0.0,0.0,0.0,0.0,0.0,0.0,0.0,0.0,0.0,0.0,0.0,0.0,0.0,0.0,0.0,0.0,0.0,0.0,0.0,0.0,0.0,0.0,0.0,0.0,0.0,0.0,0.0,-1.8844,-1.9981,-2.0384,-1.987,-1.8056,-1.7064,0.0,0.0,0.0,0.0,0.0,0.0,0.0,0.0,0.0,0.0,0.0,0.0,0.0,0.0,0.0,0.0,0.0,0.0,0.0,0.0,0.0,0.0,0.0,0.0,0.0,0.0,0.0,0.0,0.0,0.0,0.0,0.0,0.0,0.0,0.0,0.0,0.0,0.0,0.0,0.0,0.0,0.0,0.0,0.0,0.0,0.0,0.0,0.0,0.0,0.0,0.0,0.0,0.0,0.0,0.0,0.0,0.0,0.0,0.0,0.0,0.0,0.0,0.0,0.0,0.0,0.0,0.0,0.0,0.0,0.0,0.0,0.0,0.0,0.0,0.0,0.0,0.0,0.0,0.0,0.0,0.0,0.0,0.0,0.0,0.0,0.0,0.0,0.0,0.0,0.0,0.0,0.0,0.0,0.0,0.0,0.0,0.0,0.0,0.0,0.0,0.0,0.0,0.0,0.0,0.0,0.0,0.0,0.0,0.0,-1.9257,-2.0013,-2.0441,-2.0454,-1.8694,-1.7608,-1.7271,0.0,0.0,0.0,0.0,0.0,0.0,0.0,0.0,0.0,0.0,0.0,0.0,0.0,0.0,0.0,0.0,0.0,0.0,0.0,0.0,0.0,0.0,0.0,0.0,0.0,0.0,0.0,0.0,0.0,0.0,0.0,0.0,0.0,0.0,0.0,0.0,0.0,0.0,0.0,0.0,0.0,0.0,0.0,0.0,0.0,0.0,0.0,0.0,0.0,0.0,0.0,0.0,0.0,0.0,0.0,0.0,0.0,0.0,0.0,0.0,0.0,0.0,0.0,0.0,0.0,0.0,0.0,0.0,0.0,0.0,0.0,0.0,0.0,0.0,0.0,0.0,0.0,0.0,0.0,0.0,0.0,0.0,0.0,0.0,0.0,0.0,0.0,0.0,0.0,0.0,0.0,0.0,0.0,0.0,0.0,0.0,0.0,0.0,0.0,0.0,0.0,0.0,0.0,0.0,0.0,0.0,0.0,0.0,-2.0671,-2.0864,-2.1012,-2.1164,-1.9789,-1.8376,0.0,0.0,0.0,0.0,0.0,0.0,0.0,0.0,0.0,0.0,0.0,0.0,0.0,0.0,0.0,0.0,0.0,0.0,0.0,0.0,0.0,0.0,0.0,0.0,0.0,0.0,0.0,0.0,0.0,0.0,0.0,0.0,0.0,0.0,0.0,0.0,0.0,0.0,0.0,0.0,0.0,0.0,0.0,0.0,0.0,0.0,0.0,0.0,0.0,0.0,0.0,0.0,0.0,0.0,0.0,0.0,0.0,0.0,0.0,0.0,0.0,0.0,0.0,0.0,0.0,0.0,0.0,0.0,0.0,0.0,0.0,0.0,0.0,0.0,0.0,0.0,0.0,0.0,0.0,0.0,0.0,0.0,0.0,0.0,0.0,0.0,0.0,0.0,0.0,0.0,0.0,0.0,0.0,0.0,0.0,0.0,0.0,0.0,0.0,0.0,0.0,0.0,0.0,0.0,0.0,0.0,0.0,0.0,0.0,-2.1633,-2.0878,-2.0675,-2.1166,-2.0396,-1.9029,0.0,0.0,0.0,0.0,0.0,0.0,0.0,0.0,0.0,0.0,0.0,0.0,0.0,0.0,0.0,0.0,0.0,0.0,0.0,0.0,0.0,0.0,0.0,0.0,0.0,0.0,0.0,0.0,0.0,0.0,0.0,0.0,0.0,0.0,0.0,0.0,0.0,0.0,0.0,0.0,0.0,0.0,0.0,0.0,0.0,0.0,0.0,0.0,0.0,0.0,0.0,0.0,0.0,0.0,0.0,0.0,0.0,0.0,0.0,0.0,0.0,0.0,0.0,0.0,0.0,0.0,0.0,0.0,0.0,0.0,0.0,0.0,0.0,0.0,0.0,0.0,0.0,0.0,0.0,0.0,0.0,0.0,0.0,0.0,0.0,0.0,0.0,0.0,0.0,0.0,0.0,0.0,0.0,0.0,0.0,0.0,0.0,0.0,0.0,0.0,0.0,0.0,0.0,0.0,0.0,0.0,0.0,0.0,-2.0662,-2.2858,-2.26,-2.2279,-2.1918,-2.0838,-1.9561,0.0,0.0,0.0,0.0,0.0,0.0,0.0,0.0,0.0,0.0,0.0,0.0,0.0,0.0,0.0,0.0,0.0,0.0,0.0,0.0,0.0,0.0,0.0,0.0,0.0,0.0,0.0,0.0,0.0,0.0,0.0,0.0,0.0,0.0,0.0,0.0,0.0,0.0,0.0,0.0,0.0,0.0,0.0,0.0,0.0,0.0,0.0,0.0,0.0,0.0,0.0,0.0,0.0,0.0,0.0,0.0,0.0,0.0,0.0,0.0,0.0,0.0,0.0,0.0,0.0,0.0,0.0,0.0,0.0,0.0,0.0,0.0,0.0,0.0,0.0,0.0,0.0,0.0,0.0,0.0,0.0,0.0,0.0,0.0,0.0,0.0,0.0,0.0,0.0,0.0,0.0,0.0,0.0,0.0,0.0,0.0,0.0,0.0,0.0,0.0,0.0,0.0,0.0,0.0,0.0,0.0,0.0,0.0,-2.2345,-2.397,-2.4807,-2.4507,-2.3027,-2.136,-2.0085,0.0,0.0,0.0,0.0,0.0,0.0,0.0,0.0,0.0,0.0,0.0,0.0,0.0,0.0,0.0,0.0,0.0,0.0,0.0,0.0,0.0,0.0,0.0,0.0,0.0,0.0,0.0,0.0,0.0,0.0,0.0,0.0,0.0,0.0,0.0,0.0,0.0,0.0,0.0,0.0,0.0,0.0,0.0,0.0,0.0,0.0,0.0,0.0,0.0,0.0,0.0,0.0,0.0,0.0,0.0,0.0,0.0,0.0,0.0,0.0,0.0,0.0,0.0,0.0,0.0,0.0,0.0,0.0,0.0,0.0,0.0,0.0,0.0,0.0,0.0,0.0,0.0,0.0,0.0,0.0,0.0,0.0,0.0,0.0,0.0,0.0,0.0,0.0,0.0,0.0,0.0,0.0,0.0,0.0,0.0,0.0,0.0,0.0,0.0,0.0,0.0,0.0,0.0,0.0,0.0,0.0,0.0,0.0,-2.2419,-2.4673,-2.3906,-2.3526,-2.3686,-2.2751,-2.0926,0.0,0.0,0.0,0.0,0.0,0.0,0.0,0.0,0.0,0.0,0.0,0.0,0.0,0.0,0.0,0.0,0.0,0.0,0.0,0.0,0.0,0.0,0.0,0.0,0.0,0.0,0.0,0.0,0.0,0.0,0.0,0.0,0.0,0.0,0.0,0.0,0.0,0.0,0.0,0.0,0.0,0.0,0.0,0.0,0.0,0.0,0.0,0.0,-0.9374,0.0,0.0,0.0,0.0,0.0,0.0,0.0,0.0,0.0,0.0,0.0,0.0,0.0,0.0,0.0,0.0,0.0,0.0,0.0,0.0,0.0,0.0,0.0,0.0,0.0,0.0,0.0,0.0,0.0,0.0,0.0,0.0,0.0,0.0,0.0,0.0,0.0,0.0,0.0,0.0,0.0,0.0,0.0,0.0,0.0,0.0,0.0,0.0,0.0,0.0,0.0,0.0,0.0,0.0,0.0,0.0,0.0,0.0,0.0,-2.2751,-2.4879,-2.4258,-2.3856,-2.385,-2.3487,-2.1824,0.0,0.0,0.0,0.0,0.0,0.0,0.0,0.0,0.0,0.0,0.0,0.0,0.0,0.0,0.0,0.0,0.0,0.0,0.0,0.0,0.0,0.0,0.0,0.0,0.0,0.0,0.0,0.0,0.0,0.0,0.0,0.0,0.0,0.0,0.0,0.0,0.0,0.0,0.0,0.0,0.0,0.0,0.0,0.0,0.0,0.0,0.0,0.0,0.0,0.0,0.0,0.0,0.0,0.0,0.0,0.0,0.0,0.0,0.0,0.0,0.0,0.0,0.0,0.0,0.0,0.0,0.0,0.0,0.0,0.0,0.0,0.0,0.0,0.0,0.0,0.0,0.0,0.0,0.0,0.0,0.0,0.0,0.0,0.0,0.0,0.0,0.0,0.0,0.0,0.0,0.0,0.0,0.0,0.0,0.0,0.0,0.0,0.0,0.0,0.0,0.0,0.0,0.0,0.0,0.0,0.0,0.0,-2.1375,-2.3255,-2.491,-2.5005,-2.463,-2.3856,-2.3805,-2.2535,-1.9878,0.0,0.0,0.0,0.0,0.0,0.0,0.0,0.0,0.0,0.0,0.0,0.0,0.0,0.0,0.0,0.0,0.0,0.0,0.0,0.0,0.0,0.0,0.0,0.0,0.0,0.0,0.0,0.0,0.0,0.0,0.0,0.0,0.0,0.0,0.0,0.0,0.0,0.0,-1.0341,-1.0614,0.0,0.0,0.0,0.0,0.0,0.0,0.0,0.0,-1.0576,0.0,0.0,0.0,0.0,0.0,0.0,0.0,0.0,0.0,0.0,0.0,0.0,0.0,0.0,0.0,0.0,0.0,0.0,0.0,0.0,0.0,0.0,0.0,0.0,0.0,0.0,0.0,0.0,0.0,0.0,0.0,0.0,0.0,0.0,0.0,0.0,0.0,0.0,0.0,0.0,0.0,0.0,0.0,0.0,0.0,0.0,0.0,0.0,0.0,0.0,0.0,0.0,0.0,0.0,0.0,0.0,-2.0495,-2.2554,-2.4056,-2.4954,-2.5005,-2.465,-2.3916,-2.3843,-2.2535,-1.9925,0.0,0.0,0.0,0.0,0.0,0.0,0.0,0.0,0.0,0.0,0.0,0.0,0.0,0.0,0.0,0.0,0.0,0.0,0.0,0.0,0.0,0.0,0.0,0.0,0.0,0.0,0.0,0.0,0.0,0.0,0.0,0.0,0.0,0.0,0.0,0.0,0.0,0.0,0.0,-1.1446,-1.1798,0.0,0.0,0.0,0.0,0.0,0.0,0.0,0.0,-1.0407,0.0,0.0,0.0,0.0,0.0,0.0,0.0,0.0,0.0,0.0,0.0,0.0,0.0,0.0,0.0,0.0,0.0,0.0,0.0,0.0,0.0,0.0,0.0,0.0,0.0,0.0,0.0,0.0,0.0,0.0,0.0,0.0,0.0,0.0,0.0,0.0,0.0,0.0,0.0,0.0,0.0,0.0,0.0,0.0,0.0,0.0,0.0,0.0,0.0,0.0,0.0,0.0,0.0,0.0,0.0,-1.9893,-2.2395,-2.408,-2.4775,-2.4806,-2.461,-2.4221,-2.4162,-2.3077,0.0,0.0,0.0,0.0,0.0,0.0,0.0,0.0,0.0,0.0,0.0,0.0,0.0,0.0,0.0,0.0,0.0,0.0,0.0,0.0,0.0,0.0,0.0,0.0,0.0,0.0,0.0,0.0,0.0,0.0,0.0,0.0,0.0,0.0,0.0,0.0,0.0,0.0,0.0,0.0,-1.2173,-1.2826,-1.3935,0.0,0.0,0.0,0.0,0.0,0.0,-1.1785,-1.0858,0.0,0.0,0.0,0.0,0.0,0.0,0.0,0.0,0.0,0.0,0.0,0.0,0.0,0.0,0.0,0.0,0.0,0.0,0.0,0.0,0.0,0.0,0.0,0.0,0.0,0.0,0.0,0.0,0.0,0.0,0.0,0.0,0.0,0.0,0.0,0.0,0.0,0.0,0.0,0.0,0.0,0.0,0.0,0.0,0.0,0.0,0.0,0.0,0.0,0.0,0.0,0.0,0.0,0.0,0.0,-1.8956,-2.2117,-2.4064,-2.4578,-2.4609,-2.4569,-2.4518,-2.4498,-2.3576,0.0,0.0,0.0,0.0,0.0,0.0,0.0,0.0,0.0,0.0,0.0,0.0,0.0,0.0,0.0,0.0,0.0,0.0,0.0,0.0,0.0,0.0,0.0,0.0,0.0,0.0,0.0,0.0,0.0,0.0,0.0,0.0,0.0,0.0,0.0,0.0,0.0,0.0,0.0,0.0,0.0,-1.3529,-1.4413,-1.5141,0.0,0.0,0.0,0.0,-1.3595,-1.2579,0.0,0.0,0.0,0.0,0.0,0.0,0.0,0.0,0.0,0.0,0.0,0.0,0.0,0.0,0.0,0.0,0.0,0.0,0.0,0.0,0.0,0.0,0.0,0.0,0.0,0.0,0.0,0.0,0.0,0.0,0.0,0.0,0.0,0.0,0.0,0.0,0.0,0.0,0.0,0.0,0.0,0.0,0.0,0.0,0.0,0.0,0.0,0.0,0.0,0.0,0.0,0.0,0.0,0.0,0.0,0.0,-1.8824,-2.248,-2.4516,-2.4594,-2.4609,-2.4589,-2.4569,-2.4539,-2.3592,0.0,0.0,0.0,0.0,0.0,0.0,0.0,0.0,0.0,0.0,0.0,0.0,0.0,0.0,0.0,0.0,0.0,0.0,0.0,0.0,0.0,0.0,0.0,0.0,0.0,0.0,0.0,0.0,0.0,0.0,0.0,0.0,0.0,0.0,0.0,0.0,0.0,0.0,0.0,0.0,0.0,-1.327,-1.3307,-1.4611,-1.5009,0.0,0.0,-1.5085,-1.4369,-1.3751,0.0,0.0,0.0,0.0,0.0,0.0,0.0,0.0,0.0,0.0,0.0,0.0,0.0,0.0,0.0,0.0,0.0,0.0,0.0,0.0,0.0,0.0,0.0,0.0,0.0,0.0,0.0,0.0,0.0,0.0,0.0,0.0,0.0,0.0,0.0,0.0,0.0,0.0,0.0,0.0,0.0,0.0,0.0,0.0,0.0,0.0,0.0,0.0,0.0,0.0,0.0,0.0,0.0,0.0,0.0,-1.9077,-1.8656,-2.2394,-2.4426,-2.441,-2.4055,-2.4055,-2.4426,-2.4029,-2.3266,0.0,0.0,0.0,0.0,0.0,0.0,0.0,0.0,0.0,0.0,0.0,0.0,0.0,0.0,0.0,0.0,0.0,0.0,0.0,0.0,0.0,0.0,0.0,0.0,0.0,0.0,0.0,0.0,0.0,0.0,0.0,0.0,0.0,0.0,0.0,0.0,0.0,0.0,0.0,0.0,0.0,0.0,-1.4407,-1.581,0.0,0.0,0.0,-1.6212,-1.4919,0.0,0.0,0.0,0.0,0.0,0.0,0.0,0.0,0.0,0.0,0.0,0.0,0.0,0.0,0.0,0.0,0.0,0.0,0.0,0.0,0.0,0.0,0.0,0.0,0.0,0.0,0.0,0.0,0.0,0.0,0.0,0.0,0.0,0.0,0.0,0.0,0.0,0.0,0.0,0.0,0.0,0.0,0.0,0.0,0.0,0.0,0.0,0.0,0.0,0.0,0.0,0.0,0.0,0.0,0.0,0.0,0.0,-1.8718,-2.2389,-2.4394,-2.4533,-2.3902,-2.3794,-2.4287,-2.381,0.0,0.0,0.0,0.0,0.0,0.0,0.0,0.0,0.0,0.0,0.0,0.0,0.0,0.0,0.0,0.0,0.0,0.0,0.0,0.0,0.0,0.0,0.0,0.0,0.0,0.0,0.0,-0.7362,0.0,0.0,0.0,0.0,0.0,0.0,0.0,0.0,0.0,0.0,0.0,0.0,0.0,0.0,-1.4904,-1.5385,-1.6788,-1.7382,0.0,0.0,-1.6845,-1.543,-1.4832,-1.4345,0.0,0.0,0.0,0.0,0.0,0.0,0.0,0.0,0.0,0.0,0.0,0.0,0.0,0.0,0.0,0.0,0.0,0.0,0.0,0.0,0.0,0.0,0.0,0.0,0.0,0.0,0.0,0.0,0.0,0.0,0.0,0.0,0.0,0.0,0.0,0.0,0.0,0.0,0.0,0.0,0.0,0.0,0.0,0.0,0.0,0.0,0.0,0.0,0.0,0.0,0.0,0.0,0.0,0.0,0.0,-1.9464,-2.262,-2.4589,-2.5195,-2.4579,-2.4235,-2.4302,-2.4256,-2.3897,0.0,0.0,0.0,0.0,0.0,0.0,0.0,0.0,0.0,0.0,0.0,0.0,0.0,0.0,0.0,0.0,0.0,0.0,0.0,0.0,0.0,0.0,0.0,0.0,0.0,0.0,0.0,0.0,0.0,0.0,0.0,0.0,0.0,0.0,0.0,0.0,0.0,0.0,0.0,0.0,0.0,-1.4437,-1.5447,-1.6856,-1.7429,0.0,-1.6454,-1.6451,-1.5828,-1.5301,-1.5109,-1.5519,0.0,0.0,0.0,0.0,0.0,0.0,0.0,0.0,0.0,0.0,0.0,0.0,0.0,0.0,0.0,0.0,0.0,0.0,0.0,0.0,0.0,0.0,0.0,0.0,0.0,0.0,0.0,0.0,0.0,0.0,0.0,0.0,0.0,0.0,0.0,0.0,0.0,0.0,0.0,0.0,0.0,0.0,0.0,0.0,0.0,0.0,0.0,0.0,0.0,0.0,0.0,0.0,0.0,-1.8983,-1.9417,-2.2636,-2.4625,-2.5219,-2.4256,-2.3887,-2.4281,-2.4281,-2.3938,0.0,0.0,0.0,0.0,0.0,0.0,0.0,0.0,0.0,0.0,0.0,0.0,0.0,0.0,0.0,0.0,0.0,0.0,0.0,0.0,0.0,0.0,0.0,0.0,0.0,0.0,0.0,0.0,-0.9278,-0.9335,-0.9183,0.0,0.0,0.0,0.0,0.0,0.0,0.0,0.0,0.0,0.0,-1.5567,-1.5492,-1.6823,0.0,0.0,-1.6372,-1.6535,-1.6331,-1.6116,-1.6044,-1.6248,-1.6077,0.0,0.0,0.0,0.0,0.0,0.0,0.0,0.0,0.0,0.0,0.0,0.0,0.0,0.0,0.0,0.0,0.0,0.0,0.0,0.0,0.0,0.0,0.0,0.0,0.0,0.0,0.0,0.0,0.0,0.0,0.0,0.0,0.0,0.0,0.0,0.0,0.0,0.0,0.0,0.0,0.0,0.0,0.0,0.0,0.0,0.0,0.0,0.0,0.0,0.0,0.0,0.0,-1.9388,-2.0562,-2.3033,-2.4733,-2.5595,-2.4266,-2.3825,-2.4266,-2.4276,-2.4076,0.0,0.0,0.0,0.0,0.0,0.0,0.0,0.0,0.0,0.0,0.0,0.0,0.0,0.0,0.0,0.0,0.0,0.0,0.0,0.0,0.0,0.0,0.0,0.0,0.0,0.0,0.0,0.0,-1.0137,-0.9954,-0.9514,0.0,0.0,0.0,0.0,0.0,0.0,0.0,0.0,0.0,0.0,-1.6091,-1.6213,-1.7131,-1.7565,-1.6872,-1.6807,-1.6895,-1.7039,-1.6811,-1.6655,-1.687,0.0,0.0,0.0,0.0,0.0,0.0,0.0,0.0,0.0,0.0,0.0,0.0,0.0,0.0,0.0,0.0,0.0,0.0,0.0,0.0,0.0,0.0,0.0,0.0,0.0,0.0,0.0,0.0,0.0,0.0,-1.1386,0.0,0.0,0.0,0.0,0.0,0.0,0.0,0.0,0.0,0.0,0.0,0.0,0.0,0.0,0.0,0.0,0.0,0.0,0.0,0.0,0.0,0.0,-2.0928,-2.3246,-2.3943,-2.4927,-2.6173,-2.4958,-2.4251,-2.4281,-2.4229,-2.4478,-2.497,0.0,0.0,0.0,0.0,0.0,0.0,0.0,0.0,0.0,0.0,0.0,0.0,0.0,0.0,0.0,0.0,0.0,0.0,0.0,0.0,0.0,0.0,0.0,0.0,0.0,0.0,-0.9681,-0.9575,-0.9593,0.0,0.0,0.0,0.0,0.0,0.0,0.0,0.0,0.0,0.0,-1.5454,-1.5603,-1.7756,-1.7929,-1.7958,-1.84,-1.7848,-1.7568,-1.8037,-1.7267,-1.6822,0.0,0.0,0.0,0.0,0.0,0.0,0.0,0.0,0.0,0.0,0.0,0.0,0.0,0.0,0.0,0.0,0.0,0.0,0.0,0.0,0.0,0.0,0.0,0.0,0.0,0.0,0.0,-1.5388,-1.456,0.0,0.0,0.0,0.0,0.0,0.0,0.0,0.0,0.0,0.0,0.0,-1.8378,-1.8882,0.0,0.0,0.0,0.0,0.0,0.0,0.0,0.0,0.0,0.0,0.0,0.0,-2.1486,-2.274,-2.3753,-2.4712,-2.5573,-2.4731,-2.4234,-2.4229,-2.4551,-2.463,-2.4365,0.0,0.0,0.0,0.0,0.0,0.0,0.0,0.0,0.0,0.0,0.0,0.0,0.0,0.0,0.0,0.0,0.0,0.0,0.0,0.0,0.0,0.0,0.0,0.0,0.0,-1.1094,0.0,0.0,0.0,0.0,0.0,0.0,0.0,0.0,0.0,0.0,0.0,-1.4369,-1.5304,-1.635,-1.7167,-1.7614,-1.7812,-1.7979,0.0,0.0,0.0,0.0,0.0,0.0,0.0,0.0,0.0,0.0,0.0,0.0,0.0,0.0,-1.6338,-1.5519,-1.4523,-1.3822,-1.3772,0.0,0.0,0.0,0.0,0.0,0.0,0.0,0.0,0.0,0.0,0.0,0.0,0.0,0.0,-1.7939,0.0,-1.6642,0.0,0.0,0.0,0.0,0.0,0.0,0.0,0.0,-1.9405,-1.9972,-2.0411,-2.0898,-2.0833,0.0,-2.0363,-1.8826,0.0,0.0,0.0,0.0,0.0,0.0,0.0,0.0,-2.263,-2.3392,-2.423,-2.4866,-2.5207,-2.456,-2.4166,-2.4139,-2.4657,-2.4699,-2.4217,-2.2887,-2.1706,0.0,0.0,0.0,0.0,0.0,0.0,0.0,0.0,0.0,0.0,0.0,0.0,0.0,0.0,0.0,0.0,0.0,0.0,0.0,0.0,0.0,0.0,0.0,-1.2675,0.0,0.0,0.0,0.0,0.0,0.0,0.0,0.0,0.0,-1.3584,-1.4167,-1.4959,-1.5927,-1.6948,-1.7626,-1.7664,0.0,0.0,0.0,0.0,0.0,0.0,0.0,-1.8473,-1.8371,-1.8694,-1.8922,-1.873,-1.9302,-1.9641,-1.9245,0.0,0.0,-1.7283,-1.6176,-1.5436,-1.5322,-1.5309,-1.5165,-1.4662,-1.5458,-1.6329,0.0,0.0,0.0,0.0,0.0,0.0,0.0,0.0,-2.1672,-2.085,0.0,-1.9454,0.0,0.0,0.0,0.0,0.0,-1.8696,0.0,0.0,-2.1346,-2.2394,-2.3491,-2.3507,-2.3538,-2.355,-2.3487,-2.2453,-2.0436,-1.9327,0.0,0.0,0.0,0.0,0.0,0.0,-2.4322,-2.5164,-2.5204,-2.5222,-2.5157,-2.4524,-2.4124,-2.3997,-2.4519,-2.4717,-2.456,-2.3503,-2.256,-2.1849,-1.8778,0.0,0.0,0.0,0.0,0.0,0.0,0.0,0.0,0.0,0.0,0.0,0.0,0.0,0.0,0.0,0.0,0.0,0.0,0.0,0.0,-1.3942,0.0,0.0,0.0,0.0,0.0,0.0,0.0,0.0,0.0,0.0,-1.5731,-1.4909,-1.518,-1.7752,0.0,0.0,0.0,0.0,-1.8834,-1.8809,-1.9141,-1.9529,-2.0029,-2.0105,-1.9945,-1.9461,0.0,0.0,-1.9405,-2.0261,-2.0995,-2.1155,-2.0976,-2.0596,-1.9358,-1.7782,-1.6972,-1.7821,-1.7565,-1.7123,-1.6895,-1.7835,-1.8748,-2.5373,0.0,0.0,0.0,0.0,-2.2419,-2.2296,-2.2134,-2.2134,-2.1859,-2.1407,-2.1247,0.0,0.0,0.0,0.0,0.0,0.0,-2.1348,-2.2583,-2.2425,-2.2789,-2.36,-2.3113,-2.2842,-2.2788,-2.3328,-2.3208,-2.2509,-2.27,-2.1773,-1.9815,0.0,0.0,0.0,0.0,-2.4771,-2.4589,-2.4594,-2.4574,-2.4568,-2.4237,-2.3919,-2.364,-2.4305,-2.4574,-2.434,-2.4543,-2.4127,-2.2988,-2.1232,0.0,0.0,0.0,0.0,0.0,0.0,0.0,0.0,0.0,0.0,0.0,0.0,0.0,0.0,0.0,0.0,0.0,0.0,0.0,-1.368,-1.5223,-1.6196,0.0,0.0,0.0,0.0,0.0,0.0,0.0,0.0,0.0,-1.7804,-1.7112,-1.6593,0.0,0.0,-1.7955,-1.8682,-1.8883,-1.9083,-1.9446,-1.9283,0.0,-1.9321,-1.9246,-1.9306,-1.9622,-2.0343,-2.0672,-2.0175,-2.0582,-2.1019,-2.1075,-2.1029,-2.0857,-2.0503,-1.9577,-1.8903,-1.8971,-1.8733,-1.8563,-1.881,-1.9247,-1.944,-2.6673,-2.5536,-2.495,-2.4341,-2.3799,-2.3734,-2.3588,-2.338,-2.3505,-2.3325,-2.2856,-2.273,-2.2095,-2.1133,-2.0982,0.0,0.0,0.0,-2.258,-2.3807,-2.3185,-2.3251,-2.382,-2.346,-2.3239,-2.3165,-2.3661,-2.3823,-2.3686,-2.4179,-2.3582,-2.1981,0.0,0.0,-2.4081,-2.5195,-2.5533,-2.5112,-2.5118,-2.4989,-2.467,-2.4441,-2.4061,-2.3604,-2.4432,-2.484,-2.4701,-2.5094,-2.5056,-2.4524,-2.2837,-2.1074,0.0,0.0,0.0,0.0,0.0,0.0,0.0,0.0,0.0,0.0,0.0,-1.0035,-1.0255,0.0,0.0,0.0,-1.3016,-1.3607,-1.5114,-1.6101,0.0,0.0,0.0,0.0,0.0,0.0,0.0,-1.6019,-1.6241,-1.6861,-1.8191,-1.8179,-1.7903,-1.7541,-1.8103,-1.8632,-1.8958,0.0,-1.9421,-1.9761,-1.9509,-1.9384,-1.9596,-1.9571,-1.9643,-1.9977,-2.0658,-2.108,-2.0801,-2.1269,-2.1736,-2.1736,-2.175,-2.1729,-2.165,-2.1112,-2.0458,-1.9901,-1.9551,-1.9469,-1.9677,-1.9854,-1.9994,-2.6971,-2.6886,-2.617,-2.5609,-2.5178,-2.511,-2.5065,-2.5091,-2.537,-2.4957,-2.4056,-2.4065,-2.3661,-2.2954,-2.2827,0.0,-2.3475,-2.2959,-2.3336,-2.4348,-2.3798,-2.3875,-2.4441,-2.4389,-2.4394,-2.4379,-2.4333,-2.4281,-2.4281,-2.4364,-2.4379,-2.4379,-2.4441,-2.4733,-2.5241,-2.601,-2.6318,-2.6142,-2.6226,-2.5913,-2.5184,-2.4933,-2.4462,-2.3767,-2.4782,-2.5367,-2.5462,-2.5372,-2.555,-2.5992,-2.3842,-2.2235,-2.147,0.0,0.0,0.0,0.0,0.0,0.0,0.0,0.0,0.0,0.0,0.0,0.0,0.0,0.0,0.0,-1.4655,0.0,-1.6833,-1.6728,0.0,0.0,0.0,-1.7619,-1.7393,-1.6908,-1.6584,-1.6584,0.0,0.0,-1.7599,-1.843,-1.902,-1.9058,-1.9033,-1.902,-1.9058,-1.9497,-1.9798,-1.9798,-1.9798,-1.9952,-2.0294,-2.0433,-2.0475,-2.0422,-2.09,-2.1291,-2.135,-2.212,-2.2807,-2.2801,-2.2873,-2.2814,-2.2646,-2.2303,-2.1819,-2.0681,-2.0303,-2.0067,-1.9976,-2.0261,-2.0539,-2.7371,-2.723,-2.6768,-2.6303,-2.5857,-2.5839,-2.5832,-2.5817,-2.5596,-2.5349,-2.5123,-2.5389,-2.5388,-2.5158,-2.444,-2.42,-2.4304,-2.4024,-2.4328,-2.5056,-2.4918,-2.521,-2.5857,-2.5333,-2.505,-2.5019,-2.4548,-2.4281,-2.4327,-2.4825,-2.505,-2.5096,-2.5626,-2.5441,-2.4625,-2.5764,-2.5857,-2.4773,-2.5231,-2.5299,-2.4888,-2.4822,-2.4875,-2.4967,-2.485,-2.5167,-2.5977,-2.6086,-2.5898,-2.5442,-2.4938,-2.3689,-2.1604,-1.9905,0.0,0.0,0.0,0.0,0.0,0.0,0.0,0.0,0.0,-1.2701,-1.3311,0.0,-1.5938,0.0,-1.7565,-1.7748,-1.7538,-1.7856,0.0,0.0,-1.7852,-1.7419,-1.7067,-1.725,-1.7371,-1.727,-1.7776,-1.8436,-1.9158,-1.9083,-1.9158,-1.9547,-1.9246,-1.9146,-1.9534,-1.9723,-1.9798,-1.9798,-1.9798,-1.985,-2.0003,-2.0334,-2.0582,-2.055,-2.1308,-2.1959,-2.1945,-2.2478,-2.2888,-2.2888,-2.2888,-2.2865,-2.282,-2.2486,-2.2146,-2.1791,-2.1388,-2.105,-2.1003,-2.1101,-2.1124,-2.7511,-2.7421,-2.7136,-2.6875,-2.6624,-2.6453,-2.6263,-2.6104,-2.6034,-2.5924,-2.5735,-2.6179,-2.6422,-2.6487,-2.5957,-2.5613,-2.5397,-2.5253,-2.5389,-2.5742,-2.5795,-2.601,-2.6387,-2.598,-2.5795,-2.578,-2.5358,-2.5189,-2.5226,-2.5302,-2.545,-2.5742,-2.5857,-2.5687,-2.5302,-2.6303,-2.6595,-2.6149,-2.5807,-2.524,-2.44,-2.4649,-2.489,-2.5058,-2.5288,-2.5554,-2.5839,-2.6145,-2.6096,-2.5678,-2.5199,-2.4441,-2.3274,-2.1518,-2.0515,0.0,0.0,0.0,0.0,0.0,0.0,0.0,0.0,0.0,0.0,0.0,-1.7873,-1.8373,-1.7791,-1.7479,-1.7759,-1.7919,-1.8245,-1.8909,-1.8657,-1.8403,-1.8375,-1.8426,-1.8428,-1.8359,-1.8639,-1.9012,-1.9472,-1.9485,-1.9535,-1.9773,-1.9547,-1.9472,-1.9736,-1.9798,-1.9798,-1.9798,-1.9798,-1.9798,-1.9798,-2.0055,-2.0232,-2.0308,-2.0919,-2.1565,-2.1803,-2.2263,-2.2661,-2.2843,-2.2888,-2.2865,-2.2775,-2.2477,-2.2184,-2.202,-2.1712,-2.1434,-2.1385,-2.135,-2.1229,-2.7552,-2.7465,-2.7345,-2.7315,-2.7283,-2.6908,-2.6573,-2.628,-2.6657,-2.6687,-2.6455,-2.6776,-2.7086,-2.7354,-2.7063,-2.6726,-2.6409,-2.6234,-2.6265,-2.6434,-2.6503,-2.6587,-2.6664,-2.6565,-2.6541,-2.6518,-2.6373,-2.6327,-2.6387,-2.5841,-2.585,-2.6388,-2.5927,-2.6026,-2.6641,-2.7242,-2.778,-2.8233,-2.6964,-2.5628,-2.424,-2.4649,-2.4927,-2.4993,-2.5756,-2.599,-2.5583,-2.5923,-2.6096,-2.5968,-2.4969,-2.466,-2.5067,-2.2917,-2.1686,0.0,-2.1104,0.0,0.0,0.0,0.0,0.0,0.0,0.0,0.0,-1.895,-1.9673,-1.9048,-1.7266,-1.6701,-1.802,-1.7774,-1.807,-1.9346,-1.9516,-1.9662,-1.995,-1.9693,-1.9448,-1.9411,-1.9488,-1.9478,-1.9394,-1.975,-1.9978,-1.9888,-1.9837,-1.9825,-1.9837,-1.9798,-1.9798,-1.9798,-1.9798,-1.9798,-1.9798,-1.9824,-1.9824,-1.9875,-2.0308,-2.0746,-2.1224,-2.1789,-2.2333,-2.2706,-2.282,-2.2797,-2.2638,-2.237,-2.2053,-2.1855,-2.1592,-2.141,-2.1385,-2.1302,-2.1169,-2.7946,-2.7362,-2.7315,-2.7315,-2.7282,-2.7218,-2.7137,-2.7107,-2.7437,-2.8015,-2.8685,-2.7882,-2.7846,-2.8201,-2.6651,-2.6152,-2.643,-2.5786,-2.6103,-2.7211,-2.7196,-2.7503,-2.798,-2.7457,-2.7211,-2.718,-2.6657,-2.6402,-2.6395,-2.6811,-2.7072,-2.7211,-2.7626,-2.7888,-2.8027,0.0,0.0,0.0,-2.7037,-2.6637,-2.6238,-2.5723,-2.5967,-2.6956,-2.5666,0.0,-2.6309,-2.5947,-2.5461,-2.4916,-2.4683,0.0,0.0,0.0,0.0,0.0,0.0,0.0,0.0,0.0,0.0,0.0,-1.9798,-1.9484,-1.8692,-1.9784,-2.0428,-2.0187,-1.9882,-1.964,-1.9439,-1.9261,-1.9108,-1.9034,-1.8991,-1.9019,-1.9144,-1.9469,-1.9679,-1.9571,-1.9996,-2.0205,-2.0016,-2.0105,-2.0156,-2.0093,-2.0029,-1.9978,-1.9965,-1.9875,-1.9798,-1.9798,-1.9798,-1.9798,-1.9798,-1.9798,-1.9798,-1.9875,-2.0232,-2.061,-2.0795,-2.1551,-2.2184,-2.2347,-2.2509,-2.2661,-2.2592,-2.2208,-2.1888,-2.1831,-2.1578,-2.1385,-2.1385,-2.1302,-2.1169,-2.888,0.0,-2.8005,-2.804,0.0,-2.8006,-2.804,-2.8369,-2.8185,-2.8797,-2.9878,-2.9062,-2.8911,-2.9194,-2.8001,-2.7465,-2.7404,-2.7018,-2.7226,-2.7888,-2.7888,-2.8073,-2.8396,-2.8057,-2.7904,-2.7873,-2.755,-2.738,-2.738,-2.7396,-2.7565,-2.7888,-2.7904,-2.8073,-2.8396,-2.8411,-2.7986,-2.7216,-2.6825,-2.6373,-2.5894,-2.513,-2.5198,-2.612,-2.5189,0.0,0.0,0.0,0.0,0.0,0.0,0.0,0.0,0.0,0.0,-2.2791,-2.2258,-2.1704,-2.1251,-2.1202,-2.1019,-2.0637,-2.0587,-2.0364,-1.9823,-2.0085,-2.0231,-2.0157,-1.9945,-1.9823,-1.9812,-1.9679,-1.9618,-1.9677,-1.9557,-1.9508,-1.9558,-1.9802,-1.9971,-1.9948,-2.0255,-2.0423,-2.0233,-2.0283,-2.0283,-2.0207,-2.0131,-2.008,-2.008,-1.9914,-1.9798,-1.9798,-1.9798,-1.9798,-1.9798,-1.9798,-1.9798,-1.985,-2.0029,-2.0283,-2.0573,-2.1153,-2.1684,-2.1935,-2.2324,-2.2555,-2.2417,-2.2184,-2.1973,-2.1807,-2.1578,-2.141,-2.1385,-2.1253,-2.1095,-2.9814,-2.9539,-2.8884,-2.8954,-2.9455,-2.8851,-2.9041,-2.9661,0.0,0.0,0.0,-3.0053,-2.9815,-2.9843,-2.9281,-2.8779,-2.8396,-2.8273,-2.8288,-2.8411,-2.8411,-2.8411,-2.8411,-2.8411,-2.8411,-2.8411,-2.8411,-2.8411,-2.8381,-2.7842,-2.7842,-2.8304,-2.7842,-2.7857,-2.8365,-2.8411,-2.8071,-2.7423,-2.675,-2.6054,-2.5393,-2.4494,-2.4316,-2.4965,-2.465,-2.4507,-2.4627,-2.4485,-2.444,-2.4462,-2.4002,-2.3957,-2.4365,-2.3934,-2.3424,-2.2947,-2.2717,-2.2273,-2.1471,-2.1326,-2.1106,-2.0737,-2.0699,-2.0687,-2.0687,-2.0206,-1.9908,-1.9884,-1.9452,-1.9386,-1.9832,-1.9824,-1.9943,-2.0384,-2.0283,-2.0182,-2.0195,-2.0233,-2.0245,-2.0233,-2.0372,-2.0436,-2.0233,-2.0309,-2.0385,-2.0246,-2.0156,-2.0156,-2.0105,-1.9965,-1.9862,-1.9837,-1.9837,-1.9798,-1.9798,-1.9798,-1.9798,-1.9798,-1.9824,-1.9952,-2.0359,-2.0721,-2.1104,-2.1554,-2.2067,-2.2254,-2.2161,-2.2067,-2.1996,-2.1783,-2.1554,-2.1385,-2.1361,-2.1204,-2.1046,-3.0179,-2.9523,-2.9403,-2.942,-2.9489,-2.9403,-2.9799,-3.0506,-3.0297,-3.0673,-3.137,-3.0455,-2.9987,-2.9827,-2.8474,-2.8054,-2.835,-2.7796,-2.7857,-2.8396,-2.8411,-2.8411,-2.8411,-2.8411,-2.8411,-2.8411,-2.8411,-2.8411,-2.8396,-2.8304,-2.8319,-2.8396,-2.8304,-2.8304,-2.8396,-2.8411,-2.8341,-2.8218,-2.7462,-2.6994,-2.6887,-2.5552,-2.5099,-2.559,-2.4513,-2.4197,-2.4724,-2.4103,-2.3788,-2.3911,-2.3723,-2.3679,-2.3723,-2.3296,-2.2976,-2.2881,-2.2086,-2.153,-2.1399,-2.1046,-2.0774,-2.0699,-2.0699,-2.0662,-2.0537,-2.0472,-2.0344,-2.0168,-2.0229,-2.0241,-2.0181,-2.0332,-2.0384,-2.0296,-2.0246,-2.0207,-2.0233,-2.036,-2.0372,-2.0233,-2.0372,-2.0423,-2.0258,-2.0258,-2.0283,-2.0207,-2.0156,-2.0029,-1.9965,-1.9926,-1.9952,-1.9952,-1.9875,-1.9798,-1.9798,-1.9798,-1.9798,-1.9798,-1.9798,-1.9824,-1.9965,-2.0359,-2.0759,-2.1055,-2.1396,-2.1626,-2.1769,-2.165,-2.1568,-2.1496,-2.1447,-2.1385,-2.1385,-2.1253,-2.112,-3.1129,-3.0713,-3.0317,-3.0386,-3.0748,-3.0748,-3.0955,-3.1282,-3.1156,-3.1309,-3.1617,-3.0948,-3.0551,-3.0336,-2.9219,-2.8767,-2.8912,-2.8389,-2.8333,-2.8612,-2.8628,-2.858,-2.8517,-2.8517,-2.8468,-2.8411,-2.8411,-2.8411,-2.8411,-2.8411,-2.8411,-2.8411,-2.8411,-2.8227,-2.7888,-2.7857,-2.7649,-2.7265,-2.6865,-2.665,-2.665,-2.5143,-2.4465,-2.4701,-2.404,-2.3846,-2.4124,-2.3796,-2.3631,-2.3696,-2.3653,-2.3486,-2.3224,-2.3024,-2.2663,-2.2133,-2.165,-2.1302,-2.1033,-2.1088,-2.1119,-2.1145,-2.1459,-2.1551,-2.1432,-2.1186,-2.1121,-2.1381,-2.1485,-2.1511,-2.1406,-2.1406,-2.1406,-2.1288,-2.0926,-2.0694,-2.0669,-2.045,-2.0296,-2.0233,-2.0385,-2.0461,-2.0372,-2.041,-2.0473,-2.0473,-2.0347,-2.0246,-2.0182,-2.0067,-1.9978,-1.9901,-1.9837,-1.9798,-1.9798,-1.9798,-1.9798,-1.9798,-1.9798,-1.9798,-1.9824,-2.0131,-2.0397,-2.0573,-2.0833,-2.1118,-2.135,-2.1337,-2.1337,-2.1385,-2.1385,-2.1385,-2.1399,-2.1253,-2.1071,-3.1875,-3.175,-3.1197,-3.1265,-3.18,-3.18,-3.18,-3.1781,-3.169,-3.1653,-3.1579,-3.1201,-3.0911,-3.0653,-2.9892,-2.9438,-2.9234,-2.8951,-2.8794,-2.881,-2.881,-2.8747,-2.866,-2.8645,-2.8511,-2.8276,-2.8222,-2.8175,-2.8052,-2.8136,-2.8282,-2.8381,-2.8411,-2.8073,-2.7411,-2.7396,-2.7042,-2.6357,-2.6098,-2.5977,-2.5953,-2.4596,-2.3882,-2.3839,-2.3717,-2.3638,-2.3638,-2.3616,-2.3631,-2.3631,-2.3508,-2.3275,-2.2949,-2.2889,-2.2549,-2.1841,-2.1626,-2.1356,-2.0972,-2.1407,-2.1707,-2.1707,-2.2139,-2.2385,-2.2408,-2.2098,-2.1968,-2.2255,-2.2254,-2.228,-2.2226,-2.2212,-2.2171,-2.2117,-2.1648,-2.1297,-2.1246,-2.09,-2.0643,-2.0643,-2.0798,-2.0862,-2.0719,-2.0731,-2.0717,-2.0549,-2.0473,-2.0436,-2.0398,-2.0207,-2.0003,-1.9914,-1.985,-1.9798,-1.9798,-1.9798,-1.9798,-1.9798,-1.9798,-1.9798,-1.9824,-1.9991,-2.0156,-2.0258,-2.0447,-2.0747,-2.0959,-2.1093,-2.1202,-2.1337,-2.1385,-2.1385,-2.1385,-2.1215,-2.1021,-3.1894,-3.1893,-3.1699,-3.1731,-3.18,-3.18,-3.18,-3.18,-3.1781,-3.1542,-3.1181,-3.0925,-3.0605,-3.0145,-2.9651,-2.9234,-2.892,-2.8818,-2.8834,-2.8818,-2.881,-2.881,-2.8755,-2.8771,-2.8428,-2.7891,-2.779,-2.7541,-2.7067,-2.7395,-2.7859,-2.8334,-2.8411,-2.8027,-2.7442,-2.7349,-2.7026,-2.6402,-2.5676,-2.5317,-2.5336,-2.4575,-2.4103,-2.3982,-2.3839,-2.3797,-2.376,-2.3689,-2.3674,-2.3717,-2.3268,-2.2957,-2.2912,-2.2889,-2.283,-2.2709,-2.2347,-2.1932,-2.1536,-2.1982,-2.231,-2.2323,-2.2387,-2.2634,-2.3065,-2.3052,-2.2734,-2.2323,-2.2195,-2.2287,-2.206,-2.2194,-2.2273,-2.2229,-2.2047,-2.1915,-2.1929,-2.1973,-2.1961,-2.1851,-2.1845,-2.1807,-2.1223,-2.1094,-2.0862,-2.0501,-2.0373,-2.0309,-2.0283,-2.0233,-2.0156,-2.0093,-1.9952,-1.9837,-1.9837,-1.9798,-1.9798,-1.9798,-1.9798,-1.9798,-1.9824,-1.9824,-1.9901,-2.0093,-2.0182,-2.0397,-2.0835,-2.1021,-2.1106,-2.1375,-2.1434,-2.1385,-2.1385,-2.1277,-2.112,-3.1894,-3.1893,-3.1819,-3.18,-3.18,-3.18,-3.18,-3.18,-3.18,-3.1542,-3.1123,-3.1007,-3.0727,-3.033,-2.9843,-2.9544,-2.938,-2.9114,-2.8975,-2.899,-2.8975,-2.8951,-2.8865,-2.8865,-2.8662,-2.8311,-2.7898,-2.7555,-2.7321,-2.7114,-2.7162,-2.7387,-2.7395,-2.7016,-2.6331,-2.6284,-2.5907,-2.5179,-2.4844,-2.4691,-2.466,-2.4288,-2.4046,-2.4003,-2.394,-2.3903,-2.3903,-2.3861,-2.3861,-2.3903,-2.3689,-2.3392,-2.3038,-2.3016,-2.2881,-2.258,-2.2403,-2.223,-2.2048,-2.2544,-2.2858,-2.2871,-2.321,-2.3509,-2.3691,-2.3717,-2.3571,-2.3316,-2.328,-2.328,-2.3223,-2.3293,-2.3293,-2.3184,-2.2924,-2.2717,-2.2704,-2.2473,-2.2278,-2.2238,-2.2293,-2.2214,-2.1874,-2.1549,-2.1277,-2.0953,-2.0681,-2.0437,-2.0385,-2.0296,-2.0207,-2.0182,-2.0093,-2.0016,-1.9939,-1.9926,-1.9901,-1.9837,-1.9798,-1.9798,-1.9824,-1.9798,-1.985,-1.9978,-1.9991,-2.0271,-2.0883,-2.0797,-2.081,-2.124,-2.1471,-2.1385,-2.1385,-2.1302,-2.1169,-3.1894,-3.1894,-3.1837,-3.18,-3.18,-3.18,-3.1727,-3.1615,-3.1615,-3.1295,-3.0767,-3.0747,-3.0485,-3.0118,-2.9881,-2.9728,-2.9566,-2.9243,-2.9114,-2.9114,-2.9114,-2.9052,-2.8967,-2.8746,-2.8559,-2.8255,-2.7559,-2.7208,-2.7132,-2.6726,-2.6548,-2.666,-2.6691,-2.6327,-2.5625,-2.5542,-2.5159,-2.4462,-2.4385,-2.438,-2.4354,-2.4229,-2.4109,-2.4046,-2.4024,-2.3982,-2.3982,-2.3982,-2.3982,-2.3982,-2.3855,-2.3545,-2.3127,-2.3244,-2.3218,-2.3061,-2.308,-2.3017,-2.2896,-2.3216,-2.343,-2.3498,-2.3861,-2.4125,-2.4125,-2.4125,-2.4125,-2.4057,-2.4125,-2.4086,-2.4125,-2.4125,-2.4125,-2.4057,-2.3678,-2.3472,-2.3404,-2.308,-2.291,-2.2872,-2.2949,-2.2794,-2.2597,-2.2139,-2.176,-2.1668,-2.1329,-2.09,-2.0796,-2.0668,-2.0553,-2.0386,-2.0347,-2.0271,-2.0105,-2.0054,-2.0003,-1.9926,-1.9862,-1.9914,-1.9991,-2.0029,-2.0194,-2.0497,-2.0182,-2.0308,-2.108,-2.1031,-2.0698,-2.1288,-2.152,-2.1434,-2.1423,-2.1326,-2.1277,-3.1894,-3.1876,-3.1838,-3.18,-3.18,-3.18,-3.1542,-3.1181,-3.1179,-3.0666,-2.9989,-2.9903,-2.9633,-2.9259,-2.9589,-2.9544,-2.919,-2.9137,-2.9114,-2.9114,-2.9114,-2.9114,-2.9051,-2.8435,-2.7819,-2.7371,-2.6609,-2.611,-2.5958,-2.5874,-2.6145,-2.6636,-2.6589,-2.6324,-2.5716,-2.5623,-2.5306,-2.4626,-2.4549,-2.4544,-2.4498,-2.4441,-2.4354,-2.4187,-2.4067,-2.4003,-2.4003,-2.4003,-2.4003,-2.4003,-2.3546,-2.3201,-2.3164,-2.3614,-2.4161,-2.4625,-2.4725,-2.4512,-2.4082,-2.3995,-2.4034,-2.4047,-2.4044,-2.4125,-2.4125,-2.4125,-2.4125,-2.4125,-2.4125,-2.4125,-2.4125,-2.4125,-2.4125,-2.4125,-2.4099,-2.4005,-2.4047,-2.3929,-2.4021,-2.3955,-2.3877,-2.3668,-2.3223,-2.2715,-2.2414,-2.2349,-2.231,-2.2034,-2.1551,-2.1407,-2.1159,-2.0833,-2.0663,-2.0574,-2.0258,-2.0207,-2.0131,-2.0054,-2.0029,-2.0131,-2.0372,-2.0623,-2.082,-2.1004,-2.0807,-2.093,-2.142,-2.1434,-2.1068,-2.124,-2.1506,-2.1506,-2.1496,-2.141,-2.1361,-3.1875,-3.1838,-3.1801,-3.18,-3.18,-3.18,-3.1542,-3.1123,-3.1103,-3.0605,-2.9881,-2.9793,-2.956,-2.9121,-2.9266,-2.9259,-2.9114,-2.9114,-2.9114,-2.9114,-2.9114,-2.9114,-2.9035,-2.8426,-2.7984,-2.7604,-2.6562,-2.5735,-2.5316,-2.53,-2.539,-2.5575,-2.5617,-2.5434,-2.5185,-2.5117,-2.4915,-2.459,-2.4559,-2.4498,-2.438,-2.4359,-2.4338,-2.4276,-2.4213,-2.4193,-2.4193,-2.4177,-2.4193,-2.4177,-2.4282,-2.4371,-2.4365,-2.4787,-2.5154,-2.5354,-2.5124,-2.4888,-2.4665,-2.4315,-2.4125,-2.4125,-2.4125,-2.4112,-2.4125,-2.4125,-2.4125,-2.4125,-2.4125,-2.4125,-2.4125,-2.4125,-2.4125,-2.4125,-2.4125,-2.4125,-2.4125,-2.4125,-2.4125,-2.4125,-2.4112,-2.3979,-2.3717,-2.3276,-2.2923,-2.2884,-2.2637,-2.2349,-2.21,-2.1773,-2.1472,-2.1211,-2.0923,-2.0662,-2.0574,-2.0423,-2.0347,-2.022,-2.0182,-2.0372,-2.0598,-2.0472,-2.0585,-2.0944,-2.0979,-2.093,-2.1202,-2.1492,-2.1177,-2.1288,-2.1506,-2.1698,-2.1602,-2.153,-2.1458,-3.1857,-3.18,-3.18,-3.18,-3.18,-3.18,-3.1506,-3.1103,-3.0948,-3.0481,-2.9875,-2.9655,-2.9387,-2.9121,-2.9114,-2.9114,-2.9114,-2.9114,-2.9114,-2.9114,-2.9114,-2.9114,-2.9004,-2.841,-2.8117,-2.7873,-2.6672,-2.5645,-2.5049,-2.5005,-2.5005,-2.5001,-2.5005,-2.4946,-2.4882,-2.4822,-2.4722,-2.46,-2.4559,-2.4482,-2.438,-2.4359,-2.4359,-2.4317,-2.4281,-2.4281,-2.4281,-2.4281,-2.4281,-2.4374,-2.482,-2.5284,-2.5614,-2.5896,-2.6153,-2.6297,-2.5866,-2.555,-2.5481,-2.4991,-2.4664,-2.4635,-2.4463,-2.4403,-2.4403,-2.4229,-2.4112,-2.4112,-2.4303,-2.4332,-2.4229,-2.4447,-2.4492,-2.4229,-2.4125,-2.4125,-2.4125,-2.4125,-2.4125,-2.4125,-2.4125,-2.4112,-2.4073,-2.3746,-2.3522,-2.3483,-2.3173,-2.2924,-2.265,-2.2348,-2.1825,-2.1551,-2.1198,-2.0923,-2.074,-2.0574,-2.0524,-2.0398,-2.0398,-2.0586,-2.0822,-2.0598,-2.0585,-2.0894,-2.0944,-2.0795,-2.0919,-2.1286,-2.1444,-2.152,-2.1759,-2.1996,-2.1855,-2.1664,-2.1554,-3.184,-3.1748,-3.18,-3.18,-3.18,-3.18,-3.1559,-3.1067,-3.0723,-3.033,-2.9793,-2.9357,-2.9213,-2.9114,-2.9114,-2.9114,-2.9114,-2.9114,-2.9114,-2.9114,-2.9051,-2.9019,-2.8956,-2.8221,-2.7794,-2.7737,-2.6593,-2.5629,-2.5033,-2.5005,-2.5005,-2.5005,-2.5005,-2.4985,-2.4985,-2.4866,-2.4802,-2.4762,-2.4666,-2.4564,-2.4518,-2.4477,-2.44,-2.4302,-2.4281,-2.4281,-2.4281,-2.4281,-2.4327,-2.4435,-2.4934,-2.5772,-2.6723,-2.688,-2.7088,-2.7445,-2.7049,-2.6695,-2.6578,-2.6014,-2.5591,-2.555,-2.5272,-2.4991,-2.492,-2.4563,-2.4274,-2.439,-2.4677,-2.4806,-2.4492,-2.5062,-2.5245,-2.4361,-2.4258,-2.4303,-2.42,-2.4112,-2.4125,-2.4125,-2.4125,-2.4125,-2.4125,-2.4047,-2.3952,-2.3952,-2.3913,-2.3704,-2.3302,-2.3054,-2.2635,-2.193,-2.1472,-2.1223,-2.0961,-2.0712,-2.0662,-2.0612,-2.0662,-2.0799,-2.1288,-2.1337,-2.1382,-2.1599,-2.1455,-2.1334,-2.1164,-2.1503,-2.1803,-2.1935,-2.2161,-2.2208,-2.2091,-2.1902,-2.1674,-3.1526,-3.1127,-3.1576,-3.18,-3.18,-3.18,-3.1542,-3.1103,-3.0948,-3.0502,-2.9875,-2.9655,-2.9409,-2.916,-2.9114,-2.9114,-2.9114,-2.9114,-2.9114,-2.9004,-2.8647,-2.8426,-2.8205,-2.7225,-2.6419,-2.5982,-2.5539,-2.5207,-2.5033,-2.5005,-2.5005,-2.5005,-2.5005,-2.5005,-2.4985,-2.4946,-2.4886,-2.4802,-2.4666,-2.4549,-2.4498,-2.44,-2.4338,-2.4317,-2.4281,-2.4281,-2.4281,-2.4281,-2.4533,-2.4964,-2.5562,-2.6428,-2.7406,-2.7652,-2.7743,-2.785,-2.724,-2.6837,-2.6745,-2.6215,-2.5837,-2.5783,-2.5632,-2.5564,-2.5564,-2.5356,-2.5217,-2.5245,-2.5439,-2.5439,-2.5384,-2.555,-2.5495,-2.4793,-2.5048,-2.5076,-2.4677,-2.4345,-2.4141,-2.4125,-2.4125,-2.4125,-2.4125,-2.4125,-2.4125,-2.4125,-2.4125,-2.3952,-2.3838,-2.3443,-2.3197,-2.2714,-2.2192,-2.1758,-2.1656,-2.1435,-2.1238,-2.1122,-2.1082,-2.1253,-2.1698,-2.1935,-2.2039,-2.2039,-2.1921,-2.1803,-2.1623,-2.1718,-2.2039,-2.2123,-2.2137,-2.2208,-2.2278,-2.2161,-2.1912,-3.0887,-3.0748,-3.1196,-3.1558,-3.1783,-3.18,-3.1635,-3.1353,-3.1162,-3.0804,-3.0314,-2.9946,-2.9633,-2.9357,-2.919,-2.894,-2.8774,-2.8735,-2.8593,-2.8404,-2.8268,-2.7968,-2.7683,-2.6878,-2.604,-2.5492,-2.5381,-2.5223,-2.5005,-2.5005,-2.5005,-2.5005,-2.5005,-2.4966,-2.4926,-2.4886,-2.4786,-2.4686,-2.4544,-2.4467,-2.4421,-2.4359,-2.4281,-2.4281,-2.4281,-2.442,-2.462,-2.4687,-2.4872,-2.5373,-2.6143,-2.7109,-2.8046,-2.8103,-2.8079,-2.7965,-2.7585,-2.7225,-2.7188,-2.6811,-2.6455,-2.6469,-2.6283,-2.6149,-2.6095,-2.5987,-2.5783,-2.5783,-2.6,-2.6027,-2.5878,-2.6269,-2.6176,-2.5701,-2.5687,-2.5564,-2.5061,-2.4476,-2.4141,-2.4125,-2.4125,-2.4125,-2.4125,-2.4125,-2.4125,-2.4125,-2.4125,-2.4125,-2.4047,-2.377,-2.3607,-2.3474,-2.3137,-2.2787,-2.2547,-2.2226,-2.1862,-2.1688,-2.1565,-2.1827,-2.2217,-2.2203,-2.2235,-2.2156,-2.2053,-2.203,-2.1874,-2.2086,-2.2333,-2.2254,-2.2254,-2.2394,-2.2523,-2.237,-2.2147,-3.0058,-3.0628,-3.0627,-3.1041,-3.1627,-3.1679,-3.1626,-3.1623,-3.1336,-3.1123,-3.0868,-3.023,-2.9832,-2.97,-2.9305,-2.883,-2.8284,-2.8173,-2.7857,-2.7541,-2.7557,-2.7462,-2.6841,-2.6614,-2.6204,-2.5794,-2.5746,-2.5478,-2.4942,-2.4926,-2.4966,-2.4946,-2.4926,-2.4922,-2.4786,-2.465,-2.4589,-2.4539,-2.44,-2.4338,-2.4338,-2.4302,-2.4281,-2.4281,-2.4297,-2.4574,-2.5096,-2.5389,-2.5503,-2.5619,-2.6773,-2.7711,-2.8225,-2.8259,-2.821,-2.821,-2.7965,-2.779,-2.7765,-2.7509,-2.7433,-2.7357,-2.6982,-2.6747,-2.6695,-2.6375,-2.6135,-2.6135,-2.6469,-2.6549,-2.6363,-2.6811,-2.7111,-2.6788,-2.6256,-2.5769,-2.5188,-2.462,-2.4345,-2.4274,-2.42,-2.4141,-2.4171,-2.42,-2.4125,-2.4112,-2.4171,-2.4258,-2.4157,-2.4116,-2.4186,-2.4063,-2.3906,-2.3744,-2.3459,-2.2794,-2.247,-2.245,-2.2235,-2.2296,-2.2549,-2.2526,-2.248,-2.2379,-2.2263,-2.2231,-2.2278,-2.2463,-2.2601,-2.2623,-2.2684,-2.2752,-2.2684,-2.2532,-2.2394,-2.9644,-2.9817,-2.9817,-3.0265,-3.092,-3.0989,-3.0972,-3.1041,-3.1449,-3.1289,-3.1027,-3.0543,-3.0069,-2.9772,-2.9296,-2.8988,-2.864,-2.8237,-2.7731,-2.7115,-2.6641,-2.612,-2.5538,-2.5408,-2.5309,-2.5044,-2.5075,-2.4878,-2.4706,-2.471,-2.4726,-2.471,-2.4731,-2.469,-2.4645,-2.4609,-2.4589,-2.4564,-2.4498,-2.4421,-2.4436,-2.4338,-2.4281,-2.4281,-2.4312,-2.465,-2.5342,-2.6334,-2.6857,-2.6903,-2.7642,-2.8196,-2.8356,-2.8372,-2.8348,-2.8299,-2.8103,-2.793,-2.7905,-2.774,-2.761,-2.7585,-2.7423,-2.7382,-2.7372,-2.7214,-2.7111,-2.7137,-2.7291,-2.728,-2.7163,-2.7382,-2.7484,-2.7331,-2.68,-2.6363,-2.6082,-2.5411,-2.4878,-2.5189,-2.4622,-2.4447,-2.4534,-2.4403,-2.4171,-2.4229,-2.4419,-2.4635,-2.452,-2.4808,-2.5038,-2.486,-2.4695,-2.4559,-2.4202,-2.3501,-2.3131,-2.3184,-2.2965,-2.2672,-2.2867,-2.2912,-2.2859,-2.2806,-2.2623,-2.2555,-2.2646,-2.2783,-2.2888,-2.2888,-2.2865,-2.2843,-2.2797,-2.2706,-2.2592,-2.8781,-2.9041,-2.9041,-2.9489,-3.0144,-3.0196,-3.0196,-3.0265,-3.0627,-3.0897,-3.0768,-3.0239,-3.0054,-3.0021,-2.9106,-2.8498,-2.8183,-2.7541,-2.683,-2.623,-2.5792,-2.5356,-2.4997,-2.4842,-2.4762,-2.4686,-2.4645,-2.4609,-2.4609,-2.4609,-2.4609,-2.4609,-2.4609,-2.4589,-2.4564,-2.4564,-2.4544,-2.4467,-2.4421,-2.4421,-2.44,-2.4359,-2.4317,-2.4358,-2.4564,-2.5112,-2.618,-2.7242,-2.7811,-2.7888,-2.8196,-2.8411,-2.8411,-2.8411,-2.8411,-2.8372,-2.8201,-2.8054,-2.7995,-2.7815,-2.7675,-2.7625,-2.7585,-2.7585,-2.756,-2.7585,-2.7585,-2.756,-2.7585,-2.7585,-2.7585,-2.7585,-2.7585,-2.7524,-2.728,-2.6971,-2.6721,-2.5892,-2.5564,-2.555,-2.5273,-2.4793,-2.5033,-2.4677,-2.4534,-2.452,-2.4763,-2.4878,-2.4978,-2.5495,-2.5837,-2.5656,-2.5597,-2.5558,-2.529,-2.4646,-2.3811,-2.3792,-2.3355,-2.3091,-2.3105,-2.3194,-2.3075,-2.2978,-2.2933,-2.2888,-2.2888,-2.2888,-2.2888,-2.2888,-2.2888,-2.2888,-2.2843,-2.282,-2.2706,-2.7777,-2.8419,-2.8316,-2.8713,-2.9351,-2.9386,-2.9403,-2.9403,-2.9592,-2.9972,-3.0224,-2.9585,-2.9512,-3.017,-2.8575,-2.7699,-2.713,-2.6562,-2.5787,-2.5349,-2.508,-2.5017,-2.5013,-2.4862,-2.4782,-2.4722,-2.4625,-2.4569,-2.4549,-2.4549,-2.4569,-2.4528,-2.4549,-2.4528,-2.4482,-2.4462,-2.4436,-2.4338,-2.4323,-2.4302,-2.4317,-2.4317,-2.4358,-2.462,-2.5364,-2.6118,-2.7103,-2.795,-2.835,-2.8381,-2.8411,-2.8411,-2.8411,-2.8411,-2.8411,-2.8372,-2.8259,-2.8137,-2.8029,-2.789,-2.7765,-2.765,-2.7625,-2.7585,-2.7585,-2.7585,-2.7585,-2.7585,-2.7585,-2.7585,-2.7585,-2.7585,-2.7585,-2.76,-2.7575,-2.7331,-2.6852,-2.6256,-2.5919,-2.596,-2.596,-2.555,-2.5356,-2.5118,-2.509,-2.509,-2.5272,-2.5453,-2.566,-2.6054,-2.6336,-2.6402,-2.6483,-2.6663,-2.6293,-2.5848,-2.4959,-2.4321,-2.3688,-2.3326,-2.3319,-2.3312,-2.3171,-2.306,-2.2947,-2.2888,-2.2888,-2.2888,-2.2888,-2.2888,-2.2888,-2.2888,-2.2888,-2.2865,-2.2797,-2.7809,-2.8433,-2.7797,-2.7954,-2.8575,-2.8644,-2.8644,-2.8678,-2.9248,-2.9506,-2.9556,-2.8848,-2.8638,-2.8761,-2.7832,-2.7225,-2.6957,-2.6277,-2.565,-2.5065,-2.5005,-2.5005,-2.4966,-2.4882,-2.4722,-2.462,-2.4539,-2.4462,-2.44,-2.4385,-2.4364,-2.4364,-2.4385,-2.4343,-2.4359,-2.4359,-2.4323,-2.4302,-2.4281,-2.4281,-2.4281,-2.4312,-2.4543,-2.5102,-2.6241,-2.698,-2.7411,-2.8057,-2.8381,-2.8411,-2.8411,-2.8411,-2.8411,-2.8411,-2.8411,-2.8372,-2.8275,-2.8186,-2.8128,-2.7955,-2.7806,-2.775,-2.765,-2.7585,-2.7585,-2.7585,-2.7585,-2.7585,-2.7585,-2.7585,-2.7585,-2.7585,-2.7585,-2.7585,-2.76,-2.7549,-2.7331,-2.6893,-2.6707,-2.6837,-2.6402,-2.5919,-2.6231,-2.5811,-2.5729,-2.5729,-2.5865,-2.6068,-2.6363,-2.6654,-2.68,-2.6919,-2.703,-2.7098,-2.6698,-2.6153,-2.5247,-2.45,-2.3881,-2.3473,-2.3466,-2.3378,-2.3201,-2.306,-2.2947,-2.291,-2.2888,-2.2888,-2.2888,-2.2888,-2.2888,-2.2888,-2.2888,-2.2888,-2.2888,-2.7648,-2.7912,-2.7486,-2.7523,-2.7833,-2.7868,-2.7868,-2.7954,-2.8282,-2.8561,-2.8561,-2.8054,-2.7877,-2.7909,-2.7054,-2.6593,-2.6419,-2.5871,-2.5349,-2.5053,-2.5005,-2.5005,-2.4985,-2.4942,-2.4802,-2.4641,-2.4539,-2.4457,-2.438,-2.4338,-2.4302,-2.4281,-2.4281,-2.4302,-2.4281,-2.4281,-2.4281,-2.4281,-2.4281,-2.4281,-2.4281,-2.4297,-2.4856,-2.5749,-2.6826,-2.7503,-2.7919,-2.8181,-2.8381,-2.8411,-2.8411,-2.8411,-2.8411,-2.8411,-2.8411,-2.8372,-2.8348,-2.8235,-2.8162,-2.8029,-2.7865,-2.7815,-2.769,-2.7625,-2.7585,-2.7585,-2.7585,-2.7585,-2.7585,-2.7585,-2.7585,-2.7585,-2.7585,-2.7585,-2.7585,-2.7585,-2.7549,-2.7306,-2.7203,-2.7433,-2.7034,-2.6707,-2.659,-2.6363,-2.631,-2.627,-2.6297,-2.651,-2.6956,-2.7188,-2.7214,-2.7331,-2.7448,-2.7385,-2.6996,-2.6288,-2.5292,-2.4575,-2.394,-2.362,-2.3487,-2.3363,-2.3231,-2.309,-2.297,-2.291,-2.2888,-2.2888,-2.2888,-2.2888,-2.2888,-2.2888,-2.2902,-2.2931,-2.2917,-2.7467,-2.7393,-2.7313,-2.7315,-2.7315,-2.7332,-2.7351,-2.7333,-2.7315,-2.76,-2.7589,-2.7247,-2.7161,-2.7156,-2.6317,-2.5871,-2.5693,-2.5397,-2.5037,-2.5021,-2.5005,-2.5005,-2.4985,-2.4982,-2.4922,-2.4782,-2.4641,-2.4559,-2.4498,-2.44,-2.4359,-2.4338,-2.4302,-2.4281,-2.4281,-2.4281,-2.4281,-2.4281,-2.4281,-2.4281,-2.4358,-2.4435,-2.5226,-2.6411,-2.7242,-2.7842,-2.8211,-2.8381,-2.8411,-2.8411,-2.8411,-2.8411,-2.8411,-2.8411,-2.8411,-2.8411,-2.8411,-2.8348,-2.825,-2.8103,-2.7955,-2.784,-2.7675,-2.761,-2.7585,-2.7585,-2.7585,-2.7585,-2.7585,-2.7585,-2.7585,-2.7585,-2.7585,-2.7585,-2.7585,-2.7585,-2.7585,-2.7585,-2.756,-2.7534,-2.7408,-2.7188,-2.7034,-2.6878,-2.6852,-2.6826,-2.6826,-2.693,-2.7357,-2.7585,-2.7524,-2.7499,-2.7575,-2.729,-2.6901,-2.6348,-2.5375,-2.4754,-2.4074,-2.3791,-2.3562,-2.3363,-2.3231,-2.3127,-2.2992,-2.2933,-2.2888,-2.2888,-2.2888,-2.2888,-2.2888,-2.2888,-2.2917,-2.2975,-2.3062,-2.7467,-2.7393,-2.7313,-2.7315,-2.7315,-2.7315,-2.7315,-2.7315,-2.7315,-2.7318,-2.7277,-2.6637,-2.6401,-2.6192,-2.5554,-2.5195,-2.5227,-2.5049,-2.5005,-2.5005,-2.5005,-2.5005,-2.5005,-2.4985,-2.4906,-2.4842,-2.4757,-2.4681,-2.4584,-2.4518,-2.4436,-2.4421,-2.4343,-2.4302,-2.4281,-2.4281,-2.4281,-2.4281,-2.4297,-2.4297,-2.4481,-2.5041,-2.5773,-2.7057,-2.7765,-2.8181,-2.8319,-2.8411,-2.8411,-2.8411,-2.8411,-2.8411,-2.8411,-2.8411,-2.8411,-2.8411,-2.8411,-2.8372,-2.8323,-2.8128,-2.8005,-2.793,-2.7725,-2.761,-2.7585,-2.7585,-2.7585,-2.7585,-2.7585,-2.7585,-2.7585,-2.7585,-2.7585,-2.7585,-2.7585,-2.7585,-2.7585,-2.7585,-2.7585,-2.7585,-2.756,-2.756,-2.7357,-2.7255,-2.7229,-2.7229,-2.7229,-2.7255,-2.7458,-2.7585,-2.756,-2.756,-2.7585,-2.7195,-2.6761,-2.6168,-2.548,-2.497,-2.4433,-2.4015,-2.377,-2.3422,-2.3282,-2.3509,-2.3241,-2.2947,-2.291,-2.2954,-2.3041,-2.3142,-2.3041,-2.2946,-2.3235,-2.354,-2.3679,-2.7467,-2.7409,-2.733,-2.7315,-2.7315,-2.7315,-2.7315,-2.7315,-2.7299,-2.7186,-2.6925,-2.6556,-2.6141,-2.5781,-2.5462,-2.5188,-2.5029,-2.5005,-2.5005,-2.5005,-2.5005,-2.5005,-2.4985,-2.4985,-2.4922,-2.4842,-2.4818,-2.4742,-2.4605,-2.4462,-2.4457,-2.4441,-2.4343,-2.4281,-2.4281,-2.4281,-2.4281,-2.4281,-2.4297,-2.4502,-2.4918,-2.578,-2.6795,-2.7334,-2.8011,-2.8365,-2.8411,-2.8411,-2.8411,-2.8411,-2.8411,-2.8411,-2.8411,-2.8411,-2.8411,-2.8411,-2.8411,-2.8411,-2.8363,-2.8152,-2.8005,-2.7955,-2.7725,-2.7585,-2.7585,-2.7585,-2.7585,-2.7585,-2.7585,-2.7585,-2.7585,-2.7585,-2.7585,-2.7585,-2.7585,-2.7585,-2.7585,-2.7585,-2.7585,-2.7585,-2.7585,-2.7585,-2.7585,-2.7509,-2.756,-2.7585,-2.7585,-2.7585,-2.7585,-2.7585,-2.7585,-2.76,-2.76,-2.7395,-2.6946,-2.6393,-2.589,-2.5365,-2.4835,-2.444,-2.4275,-2.4139,-2.4189,-2.437,-2.3931,-2.3269,-2.3182,-2.3269,-2.3333,-2.3476,-2.3693,-2.3882,-2.3983,-2.4128,-2.4273,-2.7452,-2.7378,-2.7313,-2.7315,-2.7315,-2.7315,-2.7315,-2.7315,-2.7315,-2.7154,-2.6842,-2.6708,-2.628,-2.5726,-2.5443,-2.5246,-2.5005,-2.5005,-2.5005,-2.5005,-2.5005,-2.4985,-2.4966,-2.4962,-2.4882,-2.4722,-2.4722,-2.4701,-2.4589,-2.4462,-2.4421,-2.4421,-2.4359,-2.4281,-2.4281,-2.4281,-2.4281,-2.4281,-2.4312,-2.4687,-2.5604,-2.6688,-2.7488,-2.7596,-2.8134,-2.8411,-2.8411,-2.8411,-2.8411,-2.8411,-2.8411,-2.8411,-2.8411,-2.8411,-2.8411,-2.8411,-2.8411,-2.8372,-2.8299,-2.8128,-2.798,-2.793,-2.7725,-2.7625,-2.7585,-2.7585,-2.7585,-2.7585,-2.7585,-2.7585,-2.7585,-2.7585,-2.7585,-2.7585,-2.7585,-2.7585,-2.7585,-2.7585,-2.7585,-2.7585,-2.7585,-2.7585,-2.7585,-2.7585,-2.7585,-2.7585,-2.7585,-2.7585,-2.7585,-2.7585,-2.76,-2.76,-2.7575,-2.7575,-2.726,-2.6811,-2.6404,-2.6057,-2.5488,-2.498,-2.5014,-2.5023,-2.5064,-2.4943,-2.4438,-2.3853,-2.3745,-2.3714,-2.3943,-2.4215,-2.4563,-2.465,-2.4491,-2.4694,-2.4979,-2.7436,-2.7315,-2.7315,-2.7315,-2.7315,-2.7315,-2.7315,-2.7315,-2.7315,-2.7283,-2.7153,-2.6875,-2.6487,-2.5961,-2.5326,-2.5088,-2.5005,-2.5005,-2.4985,-2.4966,-2.4966,-2.4906,-2.4826,-2.4822,-2.4742,-2.46,-2.4559,-2.4564,-2.4544,-2.4482,-2.4462,-2.4477,-2.438,-2.4281,-2.4281,-2.4281,-2.4281,-2.4281,-2.4327,-2.4958,-2.6111,-2.7042,-2.7688,-2.8119,-2.8334,-2.8411,-2.8411,-2.8411,-2.8411,-2.8411,-2.8411,-2.8411,-2.8411,-2.8411,-2.8411,-2.8411,-2.8411,-2.8348,-2.8235,-2.8088,-2.798,-2.789,-2.77,-2.7625,-2.7585,-2.7585,-2.7585,-2.7585,-2.7585,-2.7585,-2.7585,-2.7585,-2.7585,-2.7585,-2.7585,-2.7585,-2.7585,-2.7585,-2.7585,-2.7585,-2.7585,-2.7585,-2.7585,-2.7585,-2.7585,-2.7585,-2.7585,-2.7585,-2.7585,-2.7585,-2.7585,-2.76,-2.7539,-2.7514,-2.7429,-2.7021,-2.6808,-2.6579,-2.6149,-2.5636,-2.5697,-2.5712,-2.5438,-2.5218,-2.4824,-2.4752,-2.4791,-2.4801,-2.4776,-2.4907,-2.5168,-2.5027,-2.4781,-2.5129,-2.5647,-2.7421,-2.7315,-2.7315,-2.7315,-2.7315,-2.7315,-2.7315,-2.7315,-2.7315,-2.7315,-2.7283,-2.7121,-2.6708,-2.6086,-2.55,-2.5188,-2.5045,-2.5005,-2.4946,-2.4886,-2.4866,-2.4806,-2.471,-2.4686,-2.4605,-2.4539,-2.4498,-2.4462,-2.4441,-2.4421,-2.4416,-2.4477,-2.438,-2.4281,-2.4281,-2.4281,-2.4281,-2.4512,-2.5087,-2.5942,-2.6857,-2.758,-2.8104,-2.8396,-2.8411,-2.8411,-2.8411,-2.8411,-2.8411,-2.8411,-2.8411,-2.8411,-2.8411,-2.8411,-2.8411,-2.8411,-2.8411,-2.8372,-2.8323,-2.8162,-2.8063,-2.7989,-2.7825,-2.7675,-2.7625,-2.7585,-2.7585,-2.7585,-2.7585,-2.7585,-2.7585,-2.7585,-2.7585,-2.7585,-2.7585,-2.7585,-2.7585,-2.7585,-2.7585,-2.7585,-2.7585,-2.7585,-2.7585,-2.7585,-2.7585,-2.7585,-2.7585,-2.7585,-2.7585,-2.7585,-2.7585,-2.7585,-2.7499,-2.7437,-2.7382,-2.7164,-2.7083,-2.6904,-2.6817,-2.6423,-2.6434,-2.6339,-2.604,-2.6023,-2.6021,-2.5959,-2.5894,-2.5647,-2.5415,-2.5531,-2.5705,-2.5662,-2.5607,-2.5908,-2.6315,-2.739,-2.7315,-2.7315,-2.7315,-2.7315,-2.7315,-2.7315,-2.7315,-2.7315,-2.7315,-2.7283,-2.717,-2.6758,-2.628,-2.5835,-2.5481,-2.515,-2.5127,-2.5005,-2.4906,-2.4842,-2.4786,-2.4726,-2.4666,-2.4605,-2.4498,-2.4498,-2.4421,-2.4338,-2.4317,-2.4359,-2.4436,-2.4359,-2.4297,-2.4281,-2.4312,-2.4358,-2.4712,-2.5703,-2.658,-2.7334,-2.8011,-2.8288,-2.8411,-2.8411,-2.8411,-2.8411,-2.8411,-2.8411,-2.8411,-2.8411,-2.8411,-2.8411,-2.8411,-2.8411,-2.8411,-2.8411,-2.8411,-2.8348,-2.8275,-2.8201,-2.8039,-2.79,-2.7675,-2.7625,-2.7585,-2.7585,-2.7585,-2.7585,-2.7585,-2.7585,-2.7585,-2.7585,-2.7585,-2.7585,-2.7585,-2.7585,-2.7585,-2.7585,-2.7585,-2.7585,-2.7585,-2.7585,-2.7585,-2.7585,-2.7585,-2.7585,-2.7585,-2.7585,-2.76,-2.7575,-2.7575,-2.7488,-2.7427,-2.7386,-2.7306,-2.7233,-2.717,-2.7041,-2.6945,-2.678,-2.6755,-2.659,-2.6727,-2.6846,-2.6675,-2.6329,-2.617,-2.6065,-2.6166,-2.6271,-2.6504,-2.6634,-2.6794,-2.6779,-2.7315,-2.7315,-2.7315,-2.7315,-2.7315,-2.7315,-2.7315,-2.7315,-2.7315,-2.7315,-2.7267,-2.6957,-2.6775,-2.6539,-2.621,-2.5852,-2.5446,-2.5446,-2.5211,-2.5029,-2.4982,-2.4866,-2.4782,-2.4722,-2.4666,-2.4518,-2.4498,-2.4421,-2.4338,-2.4281,-2.4302,-2.4302,-2.4302,-2.4281,-2.4327,-2.4425,-2.4795,-2.5256,-2.6134,-2.6826,-2.7473,-2.8042,-2.8381,-2.8411,-2.8411,-2.8411,-2.8411,-2.8411,-2.8411,-2.8411,-2.8411,-2.8411,-2.8411,-2.8411,-2.8411,-2.8411,-2.8411,-2.8411,-2.8372,-2.8299,-2.8088,-2.789,-2.7765,-2.7675,-2.765,-2.76,-2.7585,-2.7585,-2.7585,-2.7585,-2.7585,-2.7585,-2.7585,-2.7585,-2.7585,-2.7585,-2.7585,-2.7585,-2.7585,-2.7585,-2.7585,-2.7585,-2.7585,-2.7585,-2.7585,-2.7585,-2.7585,-2.7585,-2.7575,-2.7575,-2.7564,-2.7539,-2.7478,-2.7427,-2.7401,-2.735,-2.7248,-2.7119,-2.7029,-2.6925,-2.6814,-2.682,-2.6832,-2.682,-2.682,-2.682,-2.6779,-2.6547,-2.6486,-2.666,-2.6806,-2.6779,-2.6794,-2.6794,-2.6794,-2.7376,-2.7315,-2.7315,-2.7315,-2.7315,-2.7315,-2.7315,-2.7315,-2.7315,-2.7315,-2.7299,-2.7121,-2.6924,-2.6708,-2.6539,-2.6104,-2.5577,-2.5519,-2.525,-2.4989,-2.4862,-2.4802,-2.4722,-2.4686,-2.4605,-2.4539,-2.4482,-2.4421,-2.4302,-2.4302,-2.4281,-2.4281,-2.4281,-2.4281,-2.4343,-2.4687,-2.5256,-2.5903,-2.6611,-2.7334,-2.7934,-2.8196,-2.8411,-2.8411,-2.8411,-2.8411,-2.8411,-2.8411,-2.8411,-2.8411,-2.8411,-2.8411,-2.8411,-2.8411,-2.8411,-2.8411,-2.8411,-2.8411,-2.8411,-2.8348,-2.825,-2.8088,-2.794,-2.7806,-2.7715,-2.765,-2.7585,-2.7585,-2.7585,-2.7585,-2.7585,-2.7585,-2.7585,-2.7585,-2.7585,-2.7585,-2.7585,-2.7585,-2.7585,-2.7585,-2.7585,-2.7585,-2.7585,-2.7585,-2.7585,-2.7585,-2.7585,-2.7585,-2.7575,-2.7575,-2.7549,-2.7564,-2.7503,-2.7427,-2.7401,-2.7325,-2.7222,-2.717,-2.7081,-2.7067,-2.7052,-2.6832,-2.6832,-2.6806,-2.6884,-2.6989,-2.6963,-2.6832,-2.6806,-2.6806,-2.6806,-2.6779,-2.6794,-2.6806,-2.6858,-2.7421,-2.736,-2.7313,-2.7315,-2.7315,-2.7315,-2.7315,-2.7315,-2.7315,-2.7315,-2.7315,-2.7299,-2.7153,-2.6924,-2.6858,-2.6436,-2.589,-2.5652,-2.5326,-2.5068,-2.4882,-2.4822,-2.4746,-2.4726,-2.4726,-2.462,-2.4564,-2.4523,-2.438,-2.4359,-2.4338,-2.4317,-2.4281,-2.4281,-2.4456,-2.4958,-2.5635,-2.6311,-2.7026,-2.7734,-2.8304,-2.8396,-2.8411,-2.8411,-2.8411,-2.8411,-2.8411,-2.8411,-2.8411,-2.8411,-2.8411,-2.8411,-2.8411,-2.8411,-2.8411,-2.8411,-2.8411,-2.8411,-2.8411,-2.8348,-2.8299,-2.8162,-2.8005,-2.788,-2.779,-2.7675,-2.7585,-2.7585,-2.7585,-2.76,-2.76,-2.7585,-2.7585,-2.7585,-2.7585,-2.7585,-2.7585,-2.7585,-2.7585,-2.7585,-2.7585,-2.7585,-2.7585,-2.761,-2.7635,-2.761,-2.7585,-2.7585,-2.76,-2.7575,-2.7575,-2.7575,-2.7539,-2.7463,-2.7386,-2.7386,-2.7437,-2.7534,-2.7484,-2.7458,-2.7382,-2.7203,-2.7229,-2.7444,-2.7484,-2.7321,-2.7306,-2.7382,-2.7141,-2.6832,-2.691,-2.7026,-2.6884,-2.691,-2.7041,-2.7436,-2.7465,-2.736,-2.7315,-2.7315,-2.7315,-2.7315,-2.7315,-2.7315,-2.7315,-2.7315,-2.7315,-2.725,-2.7186,-2.7088,-2.6607,-2.605,-2.5924,-2.5629,-2.5088,-2.4962,-2.4966,-2.4966,-2.4926,-2.4862,-2.4802,-2.4742,-2.4641,-2.4498,-2.4457,-2.4416,-2.4338,-2.4317,-2.4297,-2.4379,-2.4973,-2.565,-2.6311,-2.7042,-2.7811,-2.8258,-2.8411,-2.8411,-2.8411,-2.8411,-2.8411,-2.8411,-2.8411,-2.8411,-2.8411,-2.8411,-2.8411,-2.8411,-2.8411,-2.8411,-2.8411,-2.8411,-2.8411,-2.8411,-2.8275,-2.8235,-2.821,-2.8063,-2.793,-2.7815,-2.77,-2.7625,-2.765,-2.7665,-2.764,-2.7625,-2.7625,-2.765,-2.7625,-2.7625,-2.76,-2.7625,-2.7585,-2.7585,-2.7585,-2.7585,-2.7585,-2.7625,-2.761,-2.766,-2.766,-2.761,-2.761,-2.7685,-2.776,-2.7795,-2.7993,-2.8008,-2.7959,-2.7934,-2.765,-2.7625,-2.778,-2.7913,-2.7953,-2.8052,-2.8061,-2.811,-2.8207,-2.8085,-2.7929,-2.7963,-2.8021,-2.7755,-2.7469,-2.7321,-2.7321,-2.713,-2.7078,-2.7269,-2.7529,-2.7481,-2.7407,-2.7378,-2.7345,-2.7315,-2.7315,-2.7315,-2.7315,-2.7315,-2.7315,-2.7315,-2.7138,-2.6991,-2.6842,-2.6487,-2.5835,-2.5689,-2.5368,-2.5064,-2.5005,-2.4985,-2.5005,-2.4985,-2.4942,-2.4842,-2.4782,-2.4742,-2.4584,-2.4539,-2.4498,-2.4436,-2.4338,-2.4281,-2.4641,-2.5302,-2.6211,-2.6549,-2.738,-2.8211,-2.8381,-2.8411,-2.8411,-2.8411,-2.8411,-2.8411,-2.8411,-2.8411,-2.8411,-2.8411,-2.8411,-2.8411,-2.8411,-2.8411,-2.8411,-2.8411,-2.8411,-2.8411,-2.8411,-2.8348,-2.8348,-2.8259,-2.8162,-2.8039,-2.8039,-2.7955,-2.784,-2.779,-2.779,-2.779,-2.7765,-2.784,-2.784,-2.7765,-2.7725,-2.769,-2.765,-2.7625,-2.7585,-2.7585,-2.7585,-2.7685,-2.7735,-2.7894,-2.7944,-2.7968,-2.7968,-2.8002,-2.8076,-2.8174,-2.8247,-2.8583,-2.8716,-2.863,-2.8511,-2.8262,-2.8262,-2.8472,-2.8543,-2.8535,-2.8677,-2.8826,-2.8756,-2.8685,-2.8614,-2.8567,-2.8575,-2.8551,-2.84,-2.8207,-2.8076,-2.7854,-2.7655,-2.7605,-2.7665,-2.7587,-2.7554,-2.7436,-2.7423,-2.7423,-2.7329,-2.7315,-2.7315,-2.7315,-2.7315,-2.7315,-2.7299,-2.7088,-2.6808,-2.6641,-2.6263,-2.5559,-2.5503,-2.531,-2.5045,-2.5005,-2.5005,-2.5005,-2.4985,-2.4962,-2.4882,-2.4862,-2.4822,-2.4686,-2.4584,-2.4482,-2.4416,-2.4359,-2.4317,-2.4681,-2.5503,-2.6334,-2.6734,-2.7519,-2.835,-2.8411,-2.8411,-2.8411,-2.8411,-2.8411,-2.8411,-2.8411,-2.8411,-2.8411,-2.8411,-2.8411,-2.8411,-2.8411,-2.8411,-2.8411,-2.8411,-2.8411,-2.8411,-2.8411,-2.8411,-2.8372,-2.8372,-2.8299,-2.821,-2.8186,-2.8054,-2.7955,-2.7905,-2.7955,-2.7955,-2.793,-2.8005,-2.798,-2.789,-2.784,-2.779,-2.7765,-2.7725,-2.775,-2.775,-2.7944,-2.7993,-2.8052,-2.8149,-2.828,-2.8343,-2.8367,-2.8448,-2.8528,-2.8614,-2.8709,-2.9005,-2.9182,-2.9028,-2.8958,-2.8889,-2.8958,-2.9166,-2.9189,-2.9166,-2.9371,-2.955,-2.9371,-2.9234,-2.9303,-2.9325,-2.915,-2.9058,-2.9035,-2.8966,-2.8896,-2.8599,-2.8249,-2.8192,-2.824,-2.7659,-2.7672,-2.7483,-2.7454,-2.7483,-2.736,-2.7315,-2.7315,-2.7315,-2.7315,-2.7315,-2.7283,-2.699,-2.6708,-2.6641,-2.6157,-2.5559,-2.5462,-2.525,-2.5068,-2.5005,-2.5005,-2.5005,-2.4985,-2.4966,-2.4985,-2.4966,-2.4886,-2.4802,-2.4645,-2.4487,-2.4359,-2.4317,-2.4281,-2.4712,-2.5533,-2.6257,-2.6734,-2.7642,-2.8288,-2.8411,-2.8411,-2.8411,-2.8411,-2.8411,-2.8411,-2.8411,-2.8411,-2.8411,-2.8411,-2.8411,-2.8411,-2.8411,-2.8411,-2.8411,-2.8411,-2.8411,-2.8411,-2.8411,-2.8411,-2.8411,-2.8411,-2.8299,-2.8235,-2.8186,-2.8152,-2.8079,-2.8029,-2.8054,-2.8029,-2.8044,-2.8069,-2.8069,-2.8029,-2.8005,-2.798,-2.7955,-2.7955,-2.8005,-2.8146,-2.8487,-2.8638,-2.8795,-2.8865,-2.888,-2.9065,-2.9196,-2.9293,-2.9316,-2.9104,-2.9196,-2.9332,-2.9416,-2.9303,-2.9303,-2.9438,-2.955,-2.9728,-2.9772,-2.981,-3.0049,-3.0151,-2.9984,-2.9897,-3.0081,-3.006,-2.981,-2.9728,-2.975,-2.9683,-2.9579,-2.9309,-2.895,-2.8896,-2.8873,-2.7964,-2.7954,-2.7615,-2.7498,-2.7465,-2.736,-2.7315,-2.7315,-2.7315,-2.7315,-2.7283,-2.699,-2.6741,-2.6263,-2.5962,-2.5612,-2.5346,-2.513,-2.5088,-2.5025,-2.5025,-2.5005,-2.5005,-2.5005,-2.5005,-2.5005,-2.4985,-2.4966,-2.4886,-2.4731,-2.4508,-2.4323,-2.4302,-2.4317,-2.4764,-2.5672,-2.6103,-2.6703,-2.775,-2.8242,-2.8411,-2.8411,-2.8411,-2.8411,-2.8411,-2.8411,-2.8411,-2.8411,-2.8411,-2.8411,-2.8411,-2.8411,-2.8411,-2.8411,-2.8411,-2.8411,-2.8411,-2.8411,-2.8411,-2.8411,-2.8411,-2.8411,-2.8348,-2.8348,-2.8323,-2.8275,-2.8217,-2.8177,-2.8177,-2.8177,-2.8177,-2.8177,-2.825,-2.8284,-2.8284,-2.8284,-2.8284,-2.8341,-2.8414,-2.8724,-2.9065,-2.9225,-2.9413,-2.9524,-2.9585,-2.9843,-3.0011,-3.0075,-3.0054,-2.9815,-2.9683,-2.9793,-2.9881,-2.9832,-2.9962,-3.0113,-3.0177,-3.0279,-3.0236,-3.0236,-3.03,-3.0363,-3.0426,-3.0443,-3.0359,-3.0359,-3.0338,-3.0258,-3.0135,-3.0241,-3.0156,-2.9903,-2.9683,-2.955,-2.9477,-2.8016,-2.7911,-2.7644,-2.7465,-2.7405,-2.7346,-2.7315,-2.7315,-2.7315,-2.7315,-2.7266,-2.7055,-2.6725,-2.6384,-2.6139,-2.5852,-2.5532,-2.5326,-2.523,-2.5227,-2.5103,-2.5005,-2.5005,-2.5025,-2.5005,-2.5005,-2.5005,-2.4985,-2.4926,-2.4731,-2.4508,-2.4385,-2.4359,-2.4317,-2.4681,-2.558,-2.6257,-2.6842,-2.7534,-2.8211,-2.8411,-2.8411,-2.8411,-2.8411,-2.8411,-2.8411,-2.8411,-2.8411,-2.8411,-2.8411,-2.8411,-2.8411,-2.8411,-2.8411,-2.8411,-2.8411,-2.8411,-2.8411,-2.8411,-2.8411,-2.8411,-2.8411,-2.8436,-2.8411,-2.8411,-2.8387,-2.8323,-2.8299,-2.8323,-2.8372,-2.8348,-2.8372,-2.8462,-2.855,-2.859,-2.8637,-2.8685,-2.874,-2.9012,-2.9361,-2.9585,-2.9739,-2.9908,-3.0059,-3.0208,-3.0389,-3.051,-3.0551,-3.0551,-3.0426,-3.0262,-3.0241,-3.0363,-3.0443,-3.0568,-3.051,-3.0468,-3.0426,-3.0405,-3.0405,-3.0489,-3.0489,-3.0468,-3.0468,-3.0468,-3.0468,-3.0464,-3.0468,-3.0426,-3.0489,-3.0489,-3.0262,-3.0049,-2.9962,-2.9913,-2.7978,-2.7728,-2.7569,-2.7421,-2.733,-2.7315,-2.7315,-2.7315,-2.7315,-2.7315,-2.7299,-2.7251,-2.6974,-2.6624,-2.6419,-2.6245,-2.5943,-2.5687,-2.5575,-2.554,-2.5365,-2.5246,-2.5243,-2.5084,-2.513,-2.5068,-2.5005,-2.4966,-2.4906,-2.4766,-2.4605,-2.4482,-2.438,-2.4338,-2.4575,-2.5718,-2.6364,-2.6611,-2.755,-2.8411,-2.8411,-2.8411,-2.8411,-2.8411,-2.8411,-2.8411,-2.8411,-2.8411,-2.8411,-2.8411,-2.8411,-2.8411,-2.8411,-2.8411,-2.8411,-2.8411,-2.8411,-2.8411,-2.8411,-2.8411,-2.8411,-2.842,-2.8444,-2.8444,-2.8468,-2.8436,-2.8372,-2.8348,-2.8387,-2.8525,-2.8573,-2.8629,-2.8732,-2.8951,-2.9097,-2.9182,-2.9257,-2.94,-2.9689,-2.9978,-3.0123,-3.0288,-3.0477,-3.0638,-3.058,-3.0814,-3.0912,-3.0952,-3.0912,-3.0834,-3.0733,-3.0609,-3.0651,-3.0708,-3.0651,-3.063,-3.0589,-3.0547,-3.0531,-3.0489,-3.0489,-3.0489,-3.0489,-3.0489,-3.0489,-3.0489,-3.0468,-3.0489,-3.0489,-3.0489,-3.0489,-3.0489,-3.0384,-3.0258,-3.0236,-2.8246,-2.7982,-2.7627,-2.7438,-2.7315,-2.7315,-2.7315,-2.7315,-2.7315,-2.7315,-2.7267,-2.7006,-2.6842,-2.6741,-2.6487,-2.6298,-2.6175,-2.607,-2.5997,-2.5943,-2.5797,-2.5612,-2.5705,-2.5422,-2.5349,-2.5288,-2.5169,-2.4962,-2.4866,-2.4802,-2.4686,-2.4584,-2.4482,-2.4457,-2.4529,-2.5753,-2.6402,-2.6457,-2.7611,-2.8365,-2.8411,-2.8411,-2.8411,-2.8411,-2.8411,-2.8411,-2.8411,-2.8411,-2.8411,-2.8411,-2.8411,-2.8411,-2.8411,-2.8411,-2.8411,-2.8411,-2.8411,-2.8411,-2.8411,-2.8411,-2.842,-2.8549,-2.8621,-2.8597,-2.8565,-2.8468,-2.8411,-2.8436,-2.8493,-2.8653,-2.8803,-2.892,-2.909,-2.9371,-2.9639,-2.975,-2.9837,-3.0118,-3.0372,-3.0535,-3.0658,-3.0838,-3.1015,-3.1055,-3.1055,-3.1055,-3.1112,-3.1112,-3.1052,-3.0992,-3.0952,-3.0871,-3.0831,-3.0831,-3.079,-3.0749,-3.0692,-3.0671,-3.0671,-3.0609,-3.0547,-3.0489,-3.0489,-3.0489,-3.0489,-3.0489,-3.0489,-3.0489,-3.0489,-3.0489,-3.0489,-3.0489,-3.0489,-3.0384,-3.0405,-2.8272,-2.7897,-2.763,-2.7421,-2.733,-2.7315,-2.7315,-2.7315,-2.7315,-2.7315,-2.7299,-2.7072,-2.6957,-2.6957,-2.6708,-2.659,-2.6573,-2.6419,-2.6385,-2.635,-2.6157,-2.5924,-2.5799,-2.5633,-2.5384,-2.5269,-2.5127,-2.4946,-2.4882,-2.4802,-2.4726,-2.4686,-2.462,-2.459,-2.4725,-2.571,-2.6432,-2.6456,-2.7742,-2.8288,-2.8411,-2.8411,-2.8411,-2.8411,-2.8411,-2.8411,-2.8411,-2.8411,-2.8411,-2.8411,-2.8411,-2.8411,-2.8411,-2.8411,-2.8411,-2.8411,-2.8411,-2.8411,-2.8411,-2.8436,-2.8468,-2.8677,-2.8873,-2.8889,-2.885,-2.8756,-2.8573,-2.8597,-2.8748,-2.8904,-2.9067,-2.9166,-2.9617,-2.9968,-3.0118,-3.0246,-3.0452,-3.0716,-3.0838,-3.0878,-3.0975,-3.1015,-3.1151,-3.1151,-3.1114,-3.1114,-3.119,-3.119,-3.1151,-3.1112,-3.1092,-3.1069,-3.0992,-3.0932,-3.0871,-3.0851,-3.0831,-3.081,-3.0773,-3.0712,-3.063,-3.0531,-3.0489,-3.0489,-3.0489,-3.0489,-3.0489,-3.0489,-3.0489,-3.0489,-3.0489,-3.0489,-3.0489,-3.0489,-3.0468,-2.8179,-2.7686,-2.7557,-2.7421,-2.7315,-2.7315,-2.7315,-2.7315,-2.7315,-2.7315,-2.7315,-2.7299,-2.7315,-2.7315,-2.7282,-2.7315,-2.7186,-2.6892,-2.6775,-2.6573,-2.635,-2.6122,-2.5817,-2.554,-2.5326,-2.515,-2.5025,-2.5005,-2.4966,-2.4886,-2.4826,-2.4786,-2.4706,-2.4625,-2.4994,-2.5755,-2.6528,-2.6816,-2.7589,-2.8282,-2.842,-2.8411,-2.8411,-2.8411,-2.8411,-2.8411,-2.8411,-2.8411,-2.8411,-2.8411,-2.8411,-2.8411,-2.8411,-2.8411,-2.8411,-2.8411,-2.8411,-2.8411,-2.8411,-2.8411,-2.8621,-2.8865,-2.9044,-2.9159,-2.912,-2.912,-2.8943,-2.892,-2.9067,-2.9234,-2.9371,-2.9623,-3.0081,-3.0456,-3.0597,-3.0679,-3.0918,-3.1151,-3.1151,-3.1171,-3.1171,-3.119,-3.119,-3.119,-3.119,-3.119,-3.119,-3.119,-3.119,-3.1171,-3.1151,-3.1131,-3.1092,-3.1032,-3.0972,-3.0952,-3.0972,-3.0912,-3.0875,-3.0814,-3.0712,-3.0589,-3.0489,-3.0489,-3.0489,-3.0489,-3.0489,-3.0489,-3.0489,-3.0489,-3.0489,-3.0489,-3.0489,-3.0489,-3.0489,-2.8129,-2.7542,-2.7494,-2.7421,-2.733,-2.7315,-2.7315,-2.7315,-2.7315,-2.7315,-2.7315,-2.7315,-2.7315,-2.7315,-2.7315,-2.7315,-2.7283,-2.7105,-2.6925,-2.6691,-2.6505,-2.6279,-2.5943,-2.5484,-2.5304,-2.5127,-2.5005,-2.5005,-2.5005,-2.4966,-2.4946,-2.4926,-2.4822,-2.4809,-2.4977,-2.5836,-2.6678,-2.7007,-2.7721,-2.8541,-2.842,-2.842,-2.8411,-2.8411,-2.8411,-2.8411,-2.8411,-2.8411,-2.8411,-2.8411,-2.8411,-2.8411,-2.8411,-2.8411,-2.8411,-2.8411,-2.8411,-2.8411,-2.8411,-2.8411,-2.8597,-2.8748,-2.8967,-2.9325,-2.9445,-2.9755,-2.9595,-2.9432,-2.955,-2.9689,-2.9865,-3.0145,-3.0539,-3.0818,-3.1015,-3.1015,-3.1131,-3.1171,-3.1171,-3.119,-3.119,-3.119,-3.119,-3.119,-3.119,-3.119,-3.119,-3.119,-3.119,-3.119,-3.119,-3.1171,-3.1171,-3.1171,-3.1131,-3.1112,-3.1092,-3.1035,-3.0955,-3.0895,-3.0773,-3.0609,-3.0526,-3.0547,-3.051,-3.051,-3.0489,-3.0489,-3.0489,-3.0489,-3.0489,-3.0489,-3.0489,-3.0489,-3.0489]},{"header":{"parameterUnit":"m.s-1","parameterCategory":1,"la1":31.0,"la2":29.5877,"lo1":-88.7671,"lo2":-86.6584,"dx":0.0162,"dy":0.0185,"nx":115,"ny":88,"refTime":"2022-12-01T06:00:00:Z","depth":0,"parameterNumber":3,"parameterNumberName":"V-component_of_WINDS"},"data":[0.0,0.0,0.0,0.0,0.0,0.0,0.0,0.0,0.0,0.0,0.0,0.0,0.0,0.0,0.0,0.0,0.0,0.0,0.0,0.0,0.0,0.0,0.0,0.0,0.0,0.0,0.0,0.0,0.0,0.0,0.0,0.0,0.0,0.0,0.0,0.0,0.0,0.0,0.0,0.0,0.0,0.0,0.0,0.0,0.0,0.0,0.0,0.0,0.0,0.0,0.0,0.0,0.0,0.0,0.0,0.0,0.0,0.0,0.0,0.0,0.0,0.0,0.0,0.0,0.0,0.0,0.0,0.0,0.0,0.0,0.0,0.0,0.0,0.0,0.0,0.0,0.0,0.0,0.0,0.0,0.0,0.0,0.0,0.0,0.0,0.0,0.0,0.0,0.0,0.0,0.0,0.0,0.0,0.0,0.0,0.0,0.0,0.0,0.0,0.0,0.0,0.0,0.0,0.0,0.0,0.0,0.0,0.0,0.0,0.0,0.0,0.0,0.0,0.0,0.0,0.0,0.0,0.0,0.0,0.0,0.0,0.0,0.0,0.0,0.0,0.0,0.0,0.0,0.0,0.0,0.0,0.0,0.0,0.0,0.0,0.0,0.0,0.0,0.0,0.0,0.0,0.0,0.0,0.0,0.0,0.0,0.0,0.0,0.0,0.0,0.0,0.0,0.0,0.0,0.0,0.0,0.0,0.0,0.0,0.0,0.0,0.0,0.0,0.0,0.0,0.0,0.0,0.0,0.0,0.0,0.0,0.0,0.0,0.0,0.0,0.0,0.0,0.0,0.0,0.0,0.0,0.0,0.0,0.0,0.0,0.0,0.0,0.0,0.0,0.0,0.0,0.0,0.0,0.0,0.0,0.0,0.0,0.0,0.0,0.0,0.0,0.0,0.0,0.0,0.0,0.0,0.0,0.0,0.0,0.0,0.0,0.0,0.0,0.0,0.0,0.0,0.0,0.0,0.0,0.0,0.0,0.0,0.0,0.0,0.0,0.0,0.0,0.0,0.0,0.0,0.0,0.0,0.0,0.0,0.0,0.0,0.0,0.0,0.0,0.0,0.0,0.0,0.0,0.0,0.0,0.0,0.0,0.0,0.0,0.0,0.0,0.0,0.0,0.0,0.0,0.0,0.0,0.0,0.0,0.0,0.0,0.0,0.0,0.0,0.0,0.0,0.0,0.0,0.0,0.0,0.0,0.0,0.0,0.0,0.0,0.0,0.0,0.0,0.0,0.0,0.0,0.0,0.0,0.0,0.0,0.0,0.0,0.0,0.0,0.0,0.0,0.0,0.0,0.0,0.0,0.0,0.0,0.0,0.0,0.0,0.0,0.0,0.0,0.0,0.0,0.0,0.0,0.0,0.0,0.0,0.0,0.0,0.0,0.0,0.0,0.0,0.0,0.0,0.0,0.0,0.0,0.0,0.0,0.0,0.0,0.0,0.0,0.0,0.0,0.0,0.0,0.0,0.0,0.0,0.0,0.0,0.0,0.0,0.0,0.0,0.0,0.0,0.0,0.0,0.0,0.0,0.0,0.0,0.0,0.0,0.0,0.0,0.0,0.0,0.0,0.0,0.0,0.0,0.0,0.0,0.0,0.0,0.0,0.0,0.0,0.0,0.0,0.0,0.0,0.0,0.0,0.0,0.0,0.0,0.0,0.0,0.0,0.0,0.0,0.0,0.0,0.0,0.0,0.0,0.0,0.0,0.0,0.0,0.0,0.0,0.0,0.0,0.0,0.0,0.0,0.0,0.0,0.0,0.0,0.0,0.0,0.0,0.0,0.0,0.0,0.0,0.0,0.0,0.0,0.0,0.0,0.0,0.0,0.0,0.0,0.0,0.0,0.0,0.0,0.0,0.0,0.0,0.0,0.0,0.0,0.0,0.0,0.0,0.0,0.0,0.0,0.0,0.0,0.0,0.0,0.0,0.0,0.0,0.0,0.0,0.0,0.0,0.0,0.0,0.0,0.0,0.0,0.0,0.0,0.0,0.0,0.0,0.0,0.0,0.0,0.0,0.0,0.0,0.0,0.0,0.0,0.0,0.0,0.0,0.0,0.0,0.0,0.0,0.0,0.0,0.0,0.0,0.0,0.0,0.0,0.0,0.0,0.0,0.0,0.0,0.0,0.0,0.0,0.0,0.0,0.0,0.0,0.0,0.0,0.0,0.0,0.0,0.0,0.0,0.0,0.0,0.0,0.0,0.0,0.0,0.0,0.0,0.0,0.0,0.0,0.0,0.0,0.0,0.0,0.0,0.0,0.0,0.0,0.0,0.0,0.0,0.0,0.0,0.0,0.0,0.0,0.0,0.0,0.0,0.0,0.0,0.0,0.0,0.0,0.0,0.0,0.0,0.0,0.0,0.0,0.0,0.0,0.0,0.0,0.0,0.0,0.0,0.0,0.0,0.0,0.0,0.0,0.0,0.0,0.0,0.0,0.0,0.0,0.0,0.0,0.0,0.0,0.0,0.0,0.0,0.0,0.0,0.0,0.0,0.0,0.0,0.0,0.0,0.0,0.0,0.0,0.0,0.0,0.0,0.0,0.0,0.0,0.0,0.0,0.0,0.0,0.0,0.0,0.0,0.0,0.0,0.0,0.0,0.0,0.0,0.0,0.0,0.0,0.0,0.0,0.0,0.0,0.0,0.0,0.0,0.0,0.0,0.0,0.0,0.0,0.0,0.0,0.0,0.0,0.0,0.0,0.0,0.0,0.0,0.0,0.0,0.0,0.0,0.0,0.0,0.0,0.0,0.0,0.0,0.0,0.0,0.0,0.0,0.0,0.0,0.0,0.0,0.0,0.0,0.0,0.0,0.0,0.0,0.0,0.0,0.0,0.0,0.0,0.0,0.0,0.0,0.0,0.0,0.0,0.0,0.0,0.0,0.0,0.0,0.0,0.0,0.0,0.0,0.0,0.0,0.0,0.0,0.0,0.0,0.0,0.0,0.0,0.0,0.0,0.0,0.0,0.0,0.0,0.0,0.0,0.0,0.0,0.0,0.0,0.0,0.0,0.0,0.0,0.0,0.0,0.0,0.0,0.0,0.0,0.0,0.0,0.0,0.0,0.0,0.0,0.0,0.0,0.0,0.0,0.0,0.0,0.0,0.0,0.0,0.0,0.0,0.0,0.0,0.0,0.0,0.0,0.0,0.0,0.0,0.0,0.0,0.0,0.0,0.0,0.0,0.0,0.0,0.0,0.0,0.0,0.0,0.0,0.0,0.0,0.0,0.0,0.0,0.0,0.0,0.0,0.0,0.0,0.0,0.0,0.0,0.0,0.0,0.0,0.0,0.0,0.0,0.0,0.0,0.0,0.0,0.0,0.0,0.0,0.0,0.0,0.0,0.0,0.0,0.0,0.0,0.0,0.0,0.0,0.0,0.0,0.0,0.0,0.0,0.0,0.0,0.0,0.0,0.0,0.0,0.0,0.0,0.0,0.0,0.0,0.0,0.0,0.0,0.0,0.0,0.0,0.0,0.0,0.0,0.0,0.0,0.0,0.0,0.0,0.0,0.0,0.0,0.0,0.0,0.0,0.0,0.0,0.0,0.0,0.0,0.0,0.0,0.0,0.0,0.0,0.0,0.0,0.0,0.0,0.0,0.0,0.0,0.0,0.0,0.0,0.0,0.0,0.0,0.0,0.0,0.0,0.0,0.0,0.0,0.0,0.0,0.0,0.0,0.0,0.0,0.0,0.0,0.0,0.0,0.0,0.0,0.0,0.0,0.0,0.0,0.0,0.0,0.0,0.0,0.0,0.0,0.0,0.0,0.0,0.0,0.0,0.0,0.0,0.0,0.0,0.0,0.0,0.0,0.0,0.0,0.0,0.0,0.0,0.0,0.0,0.0,0.0,0.0,0.0,0.0,0.0,0.0,0.0,0.0,0.0,0.0,0.0,0.0,0.0,0.0,0.0,0.0,0.0,0.0,0.0,0.0,0.0,0.0,0.0,0.0,0.0,0.0,0.0,0.0,0.0,0.0,0.0,0.0,0.0,0.0,0.0,0.0,0.0,0.0,0.0,0.0,0.0,0.0,0.0,0.0,0.0,0.0,0.0,0.0,0.0,0.0,0.0,0.0,0.0,0.0,0.0,0.0,0.0,0.0,0.0,0.0,0.0,0.0,0.0,0.0,0.0,0.0,0.0,0.0,0.0,0.0,0.0,0.0,0.0,0.0,0.0,0.0,0.0,0.0,0.0,0.0,0.0,0.0,0.0,0.0,0.0,0.0,0.0,0.0,0.0,0.0,0.0,0.0,-1.0289,0.0,0.0,0.0,-0.7938,0.0,0.0,0.0,0.0,0.0,0.0,0.0,0.0,0.0,0.0,0.0,0.0,0.0,0.0,0.0,0.0,0.0,0.0,0.0,0.0,0.0,0.0,0.0,0.0,0.0,0.0,0.0,0.0,0.0,0.0,0.0,0.0,0.0,0.0,0.0,0.0,0.0,0.0,0.0,0.0,0.0,0.0,0.0,0.0,0.0,0.0,0.0,0.0,0.0,0.0,0.0,0.0,0.0,0.0,0.0,0.0,0.0,0.0,0.0,0.0,0.0,0.0,0.0,0.0,0.0,0.0,0.0,0.0,0.0,0.0,0.0,0.0,0.0,0.0,0.0,0.0,0.0,0.0,0.0,0.0,0.0,0.0,0.0,0.0,0.0,0.0,0.0,0.0,0.0,0.0,0.0,0.0,0.0,0.0,0.0,0.0,0.0,0.0,0.0,0.0,0.0,0.0,0.0,0.0,0.0,0.0,0.0,0.0,0.0,0.0,-1.0144,-0.9602,-0.9739,-0.9266,-0.8106,0.0,0.0,0.0,0.0,0.0,0.0,0.0,0.0,0.0,0.0,0.0,0.0,0.0,0.0,0.0,0.0,0.0,0.0,0.0,0.0,0.0,0.0,0.0,0.0,0.0,0.0,0.0,0.0,0.0,0.0,0.0,0.0,0.0,0.0,0.0,0.0,0.0,0.0,0.0,0.0,0.0,0.0,0.0,0.0,0.0,0.0,0.0,0.0,0.0,0.0,0.0,0.0,0.0,0.0,0.0,0.0,0.0,0.0,0.0,0.0,0.0,0.0,0.0,0.0,0.0,0.0,0.0,0.0,0.0,0.0,0.0,0.0,0.0,0.0,0.0,0.0,0.0,0.0,0.0,0.0,0.0,0.0,0.0,0.0,0.0,0.0,0.0,0.0,0.0,0.0,0.0,0.0,0.0,0.0,0.0,0.0,0.0,0.0,0.0,0.0,0.0,0.0,0.0,0.0,0.0,0.0,0.0,0.0,0.0,0.0,0.0,0.0,-0.9817,-0.9553,-0.8708,0.0,0.0,0.0,0.0,0.0,0.0,0.0,0.0,0.0,0.0,0.0,0.0,0.0,0.0,0.0,0.0,0.0,0.0,0.0,0.0,0.0,0.0,0.0,0.0,0.0,0.0,0.0,0.0,0.0,0.0,0.0,0.0,0.0,0.0,0.0,0.0,0.0,0.0,0.0,0.0,0.0,0.0,0.0,0.0,0.0,0.0,0.0,0.0,0.0,0.0,0.0,0.0,0.0,0.0,0.0,0.0,0.0,0.0,0.0,0.0,0.0,0.0,0.0,0.0,0.0,0.0,0.0,0.0,0.0,0.0,0.0,0.0,0.0,0.0,0.0,0.0,0.0,0.0,0.0,0.0,0.0,0.0,0.0,0.0,0.0,0.0,0.0,0.0,0.0,0.0,0.0,0.0,0.0,0.0,0.0,0.0,0.0,0.0,0.0,0.0,0.0,0.0,0.0,0.0,0.0,0.0,0.0,0.0,0.0,0.0,-0.8692,-0.9301,-0.9637,0.0,-0.9715,0.0,0.0,0.0,0.0,0.0,0.0,0.0,0.0,0.0,0.0,0.0,0.0,0.0,0.0,0.0,0.0,0.0,0.0,0.0,0.0,0.0,0.0,0.0,0.0,0.0,0.0,0.0,0.0,0.0,0.0,0.0,0.0,0.0,0.0,0.0,0.0,0.0,0.0,0.0,0.0,0.0,0.0,0.0,0.0,0.0,0.0,0.0,0.0,0.0,0.0,0.0,0.0,0.0,0.0,0.0,0.0,0.0,0.0,0.0,0.0,0.0,0.0,0.0,0.0,0.0,0.0,0.0,0.0,0.0,0.0,0.0,0.0,0.0,0.0,0.0,0.0,0.0,0.0,0.0,0.0,0.0,0.0,0.0,0.0,0.0,0.0,0.0,0.0,0.0,0.0,0.0,0.0,0.0,0.0,0.0,0.0,0.0,0.0,0.0,0.0,0.0,0.0,0.0,0.0,0.0,0.0,0.0,0.0,0.0,0.0,-0.8377,-0.882,-0.9287,-0.9374,0.0,0.0,0.0,0.0,0.0,0.0,0.0,0.0,0.0,0.0,0.0,0.0,0.0,0.0,0.0,0.0,0.0,0.0,0.0,0.0,0.0,0.0,0.0,0.0,0.0,0.0,0.0,0.0,0.0,0.0,0.0,0.0,0.0,0.0,0.0,0.0,0.0,0.0,0.0,0.0,0.0,0.0,0.0,0.0,0.0,0.0,0.0,0.0,0.0,0.0,0.0,0.0,0.0,0.0,0.0,0.0,0.0,0.0,0.0,0.0,0.0,0.0,0.0,0.0,0.0,0.0,0.0,0.0,0.0,0.0,0.0,0.0,0.0,0.0,0.0,0.0,0.0,0.0,0.0,0.0,0.0,0.0,0.0,0.0,0.0,0.0,0.0,0.0,0.0,0.0,0.0,0.0,0.0,0.0,0.0,0.0,0.0,0.0,0.0,0.0,0.0,0.0,0.0,0.0,0.0,0.0,0.0,0.0,0.0,0.0,-0.7909,-0.8267,-0.8676,-0.9056,-0.9138,-0.8849,0.0,0.0,0.0,0.0,0.0,0.0,0.0,0.0,0.0,0.0,0.0,0.0,0.0,0.0,0.0,0.0,0.0,0.0,0.0,0.0,0.0,0.0,0.0,0.0,0.0,0.0,0.0,0.0,0.0,0.0,0.0,0.0,0.0,0.0,0.0,0.0,0.0,0.0,0.0,0.0,0.0,0.0,0.0,0.0,0.0,0.0,0.0,0.0,0.0,0.0,0.0,0.0,0.0,0.0,0.0,0.0,0.0,0.0,0.0,0.0,0.0,0.0,0.0,0.0,0.0,0.0,0.0,0.0,0.0,0.0,0.0,0.0,0.0,0.0,0.0,0.0,0.0,0.0,0.0,0.0,0.0,0.0,0.0,0.0,0.0,0.0,0.0,0.0,0.0,0.0,0.0,0.0,0.0,0.0,0.0,0.0,0.0,0.0,0.0,0.0,0.0,0.0,0.0,0.0,0.0,0.0,0.0,0.0,-0.8121,-0.788,-0.8154,-0.9036,-0.9149,-0.9245,0.0,0.0,0.0,0.0,0.0,0.0,0.0,0.0,0.0,0.0,0.0,0.0,0.0,0.0,0.0,0.0,0.0,0.0,0.0,0.0,0.0,0.0,0.0,0.0,0.0,0.0,0.0,0.0,0.0,0.0,0.0,0.0,0.0,0.0,0.0,0.0,0.0,0.0,0.0,0.0,0.0,0.0,0.0,0.0,0.0,0.0,0.0,0.0,0.0,0.0,0.0,0.0,0.0,0.0,0.0,0.0,0.0,0.0,0.0,0.0,0.0,0.0,0.0,0.0,0.0,0.0,0.0,0.0,0.0,0.0,0.0,0.0,0.0,0.0,0.0,0.0,0.0,0.0,0.0,0.0,0.0,0.0,0.0,0.0,0.0,0.0,0.0,0.0,0.0,0.0,0.0,0.0,0.0,0.0,0.0,0.0,0.0,0.0,0.0,0.0,0.0,0.0,0.0,0.0,0.0,0.0,0.0,0.0,0.0,-0.8311,-0.8382,-0.869,-0.9319,-0.9209,-0.9221,0.0,0.0,0.0,0.0,0.0,0.0,0.0,0.0,0.0,0.0,0.0,0.0,0.0,0.0,0.0,0.0,0.0,0.0,0.0,0.0,0.0,0.0,0.0,0.0,0.0,0.0,0.0,0.0,0.0,0.0,0.0,0.0,0.0,0.0,0.0,0.0,0.0,0.0,0.0,0.0,0.0,0.0,0.0,0.0,0.0,0.0,0.0,0.0,0.0,0.0,0.0,0.0,0.0,0.0,0.0,0.0,0.0,0.0,0.0,0.0,0.0,0.0,0.0,0.0,0.0,0.0,0.0,0.0,0.0,0.0,0.0,0.0,0.0,0.0,0.0,0.0,0.0,0.0,0.0,0.0,0.0,0.0,0.0,0.0,0.0,0.0,0.0,0.0,0.0,0.0,0.0,0.0,0.0,0.0,0.0,0.0,0.0,0.0,0.0,0.0,0.0,0.0,0.0,0.0,0.0,0.0,0.0,0.0,0.0,-0.8623,-0.9248,-0.9534,-0.9495,-0.9145,-0.9032,0.0,0.0,0.0,0.0,0.0,0.0,0.0,0.0,0.0,0.0,0.0,0.0,0.0,0.0,0.0,0.0,0.0,0.0,0.0,0.0,0.0,0.0,0.0,0.0,0.0,0.0,0.0,0.0,0.0,0.0,0.0,0.0,0.0,0.0,0.0,0.0,0.0,0.0,0.0,0.0,0.0,0.0,0.0,0.0,0.0,0.0,0.0,0.0,0.0,0.0,0.0,0.0,0.0,0.0,0.0,0.0,0.0,0.0,0.0,0.0,0.0,0.0,0.0,0.0,0.0,0.0,0.0,0.0,0.0,0.0,0.0,0.0,0.0,0.0,0.0,0.0,0.0,0.0,0.0,0.0,0.0,0.0,0.0,0.0,0.0,0.0,0.0,0.0,0.0,0.0,0.0,0.0,0.0,0.0,0.0,0.0,0.0,0.0,0.0,0.0,0.0,0.0,0.0,0.0,0.0,0.0,0.0,0.0,-0.8282,-0.9093,-1.0372,-1.0567,-0.9572,-0.9029,-0.8693,0.0,0.0,0.0,0.0,0.0,0.0,0.0,0.0,0.0,0.0,0.0,0.0,0.0,0.0,0.0,0.0,0.0,0.0,0.0,0.0,0.0,0.0,0.0,0.0,0.0,0.0,0.0,0.0,0.0,0.0,0.0,0.0,0.0,0.0,0.0,0.0,0.0,0.0,0.0,0.0,0.0,0.0,0.0,0.0,0.0,0.0,0.0,0.0,0.0,0.0,0.0,0.0,0.0,0.0,0.0,0.0,0.0,0.0,0.0,0.0,0.0,0.0,0.0,0.0,0.0,0.0,0.0,0.0,0.0,0.0,0.0,0.0,0.0,0.0,0.0,0.0,0.0,0.0,0.0,0.0,0.0,0.0,0.0,0.0,0.0,0.0,0.0,0.0,0.0,0.0,0.0,0.0,0.0,0.0,0.0,0.0,0.0,0.0,0.0,0.0,0.0,0.0,0.0,0.0,0.0,0.0,0.0,0.0,0.0,-0.9216,-1.0513,-1.1125,-1.0845,-0.96,-0.9217,0.0,0.0,0.0,0.0,0.0,0.0,0.0,0.0,0.0,0.0,0.0,0.0,0.0,0.0,0.0,0.0,0.0,0.0,0.0,0.0,0.0,0.0,0.0,0.0,0.0,0.0,0.0,0.0,0.0,0.0,0.0,0.0,0.0,0.0,0.0,0.0,0.0,0.0,0.0,0.0,0.0,0.0,0.0,0.0,0.0,0.0,0.0,0.0,0.0,0.0,0.0,0.0,0.0,0.0,0.0,0.0,0.0,0.0,0.0,0.0,0.0,0.0,0.0,0.0,0.0,0.0,0.0,0.0,0.0,0.0,0.0,0.0,0.0,0.0,0.0,0.0,0.0,0.0,0.0,0.0,0.0,0.0,0.0,0.0,0.0,0.0,0.0,0.0,0.0,0.0,0.0,0.0,0.0,0.0,0.0,0.0,0.0,0.0,0.0,0.0,0.0,0.0,0.0,0.0,0.0,0.0,0.0,0.0,0.0,-1.0702,-1.1351,-1.1743,-1.172,-1.0389,-0.981,-1.0047,0.0,0.0,0.0,0.0,0.0,0.0,0.0,0.0,0.0,0.0,0.0,0.0,0.0,0.0,0.0,0.0,0.0,0.0,0.0,0.0,0.0,0.0,0.0,0.0,0.0,0.0,0.0,0.0,0.0,0.0,0.0,0.0,0.0,0.0,0.0,0.0,0.0,0.0,0.0,0.0,0.0,0.0,0.0,0.0,0.0,0.0,0.0,0.0,0.0,0.0,0.0,0.0,0.0,0.0,0.0,0.0,0.0,0.0,0.0,0.0,0.0,0.0,0.0,0.0,0.0,0.0,0.0,0.0,0.0,0.0,0.0,0.0,0.0,0.0,0.0,0.0,0.0,0.0,0.0,0.0,0.0,0.0,0.0,0.0,0.0,0.0,0.0,0.0,0.0,0.0,0.0,0.0,0.0,0.0,0.0,0.0,0.0,0.0,0.0,0.0,0.0,0.0,0.0,0.0,0.0,0.0,0.0,0.0,-1.3137,-1.2754,-1.247,-1.225,-1.131,-1.0397,0.0,0.0,0.0,0.0,0.0,0.0,0.0,0.0,0.0,0.0,0.0,0.0,0.0,0.0,0.0,0.0,0.0,0.0,0.0,0.0,0.0,0.0,0.0,0.0,0.0,0.0,0.0,0.0,0.0,0.0,0.0,0.0,0.0,0.0,0.0,0.0,0.0,0.0,0.0,0.0,0.0,0.0,0.0,0.0,0.0,0.0,0.0,0.0,0.0,0.0,0.0,0.0,0.0,0.0,0.0,0.0,0.0,0.0,0.0,0.0,0.0,0.0,0.0,0.0,0.0,0.0,0.0,0.0,0.0,0.0,0.0,0.0,0.0,0.0,0.0,0.0,0.0,0.0,0.0,0.0,0.0,0.0,0.0,0.0,0.0,0.0,0.0,0.0,0.0,0.0,0.0,0.0,0.0,0.0,0.0,0.0,0.0,0.0,0.0,0.0,0.0,0.0,0.0,0.0,0.0,0.0,0.0,0.0,0.0,-1.4591,-1.3786,-1.3491,-1.3811,-1.2014,-1.0986,0.0,0.0,0.0,0.0,0.0,0.0,0.0,0.0,0.0,0.0,0.0,0.0,0.0,0.0,0.0,0.0,0.0,0.0,0.0,0.0,0.0,0.0,0.0,0.0,0.0,0.0,0.0,0.0,0.0,0.0,0.0,0.0,0.0,0.0,0.0,0.0,0.0,0.0,0.0,0.0,0.0,0.0,0.0,0.0,0.0,0.0,0.0,0.0,0.0,0.0,0.0,0.0,0.0,0.0,0.0,0.0,0.0,0.0,0.0,0.0,0.0,0.0,0.0,0.0,0.0,0.0,0.0,0.0,0.0,0.0,0.0,0.0,0.0,0.0,0.0,0.0,0.0,0.0,0.0,0.0,0.0,0.0,0.0,0.0,0.0,0.0,0.0,0.0,0.0,0.0,0.0,0.0,0.0,0.0,0.0,0.0,0.0,0.0,0.0,0.0,0.0,0.0,0.0,0.0,0.0,0.0,0.0,0.0,-1.397,-1.6117,-1.5496,-1.5205,-1.5383,-1.3275,-1.2075,0.0,0.0,0.0,0.0,0.0,0.0,0.0,0.0,0.0,0.0,0.0,0.0,0.0,0.0,0.0,0.0,0.0,0.0,0.0,0.0,0.0,0.0,0.0,0.0,0.0,0.0,0.0,0.0,0.0,0.0,0.0,0.0,0.0,0.0,0.0,0.0,0.0,0.0,0.0,0.0,0.0,0.0,0.0,0.0,0.0,0.0,0.0,0.0,0.0,0.0,0.0,0.0,0.0,0.0,0.0,0.0,0.0,0.0,0.0,0.0,0.0,0.0,0.0,0.0,0.0,0.0,0.0,0.0,0.0,0.0,0.0,0.0,0.0,0.0,0.0,0.0,0.0,0.0,0.0,0.0,0.0,0.0,0.0,0.0,0.0,0.0,0.0,0.0,0.0,0.0,0.0,0.0,0.0,0.0,0.0,0.0,0.0,0.0,0.0,0.0,0.0,0.0,0.0,0.0,0.0,0.0,0.0,0.0,-1.5107,-1.7415,-1.7249,-1.6962,-1.6653,-1.4749,-1.3357,0.0,0.0,0.0,0.0,0.0,0.0,0.0,0.0,0.0,0.0,0.0,0.0,0.0,0.0,0.0,0.0,0.0,0.0,0.0,0.0,0.0,0.0,0.0,0.0,0.0,0.0,0.0,0.0,0.0,0.0,0.0,0.0,0.0,0.0,0.0,0.0,0.0,0.0,0.0,0.0,0.0,0.0,0.0,0.0,0.0,0.0,0.0,0.0,0.0,0.0,0.0,0.0,0.0,0.0,0.0,0.0,0.0,0.0,0.0,0.0,0.0,0.0,0.0,0.0,0.0,0.0,0.0,0.0,0.0,0.0,0.0,0.0,0.0,0.0,0.0,0.0,0.0,0.0,0.0,0.0,0.0,0.0,0.0,0.0,0.0,0.0,0.0,0.0,0.0,0.0,0.0,0.0,0.0,0.0,0.0,0.0,0.0,0.0,0.0,0.0,0.0,0.0,0.0,0.0,0.0,0.0,0.0,0.0,-1.5552,-1.7844,-1.717,-1.6897,-1.7209,-1.5274,-1.3785,0.0,0.0,0.0,0.0,0.0,0.0,0.0,0.0,0.0,0.0,0.0,0.0,0.0,0.0,0.0,0.0,0.0,0.0,0.0,0.0,0.0,0.0,0.0,0.0,0.0,0.0,0.0,0.0,0.0,0.0,0.0,0.0,0.0,0.0,0.0,0.0,0.0,0.0,0.0,0.0,0.0,0.0,0.0,0.0,0.0,0.0,0.0,0.0,-1.3512,0.0,0.0,0.0,0.0,0.0,0.0,0.0,0.0,0.0,0.0,0.0,0.0,0.0,0.0,0.0,0.0,0.0,0.0,0.0,0.0,0.0,0.0,0.0,0.0,0.0,0.0,0.0,0.0,0.0,0.0,0.0,0.0,0.0,0.0,0.0,0.0,0.0,0.0,0.0,0.0,0.0,0.0,0.0,0.0,0.0,0.0,0.0,0.0,0.0,0.0,0.0,0.0,0.0,0.0,0.0,0.0,0.0,0.0,0.0,-1.593,-1.7993,-1.7584,-1.7373,-1.7448,-1.6445,-1.5175,0.0,0.0,0.0,0.0,0.0,0.0,0.0,0.0,0.0,0.0,0.0,0.0,0.0,0.0,0.0,0.0,0.0,0.0,0.0,0.0,0.0,0.0,0.0,0.0,0.0,0.0,0.0,0.0,0.0,0.0,0.0,0.0,0.0,0.0,0.0,0.0,0.0,0.0,0.0,0.0,0.0,0.0,0.0,0.0,0.0,0.0,0.0,0.0,0.0,0.0,0.0,0.0,0.0,0.0,0.0,0.0,0.0,0.0,0.0,0.0,0.0,0.0,0.0,0.0,0.0,0.0,0.0,0.0,0.0,0.0,0.0,0.0,0.0,0.0,0.0,0.0,0.0,0.0,0.0,0.0,0.0,0.0,0.0,0.0,0.0,0.0,0.0,0.0,0.0,0.0,0.0,0.0,0.0,0.0,0.0,0.0,0.0,0.0,0.0,0.0,0.0,0.0,0.0,0.0,0.0,0.0,0.0,-1.4898,-1.6435,-1.8015,-1.8084,-1.7936,-1.7572,-1.7575,-1.6599,-1.4475,0.0,0.0,0.0,0.0,0.0,0.0,0.0,0.0,0.0,0.0,0.0,0.0,0.0,0.0,0.0,0.0,0.0,0.0,0.0,0.0,0.0,0.0,0.0,0.0,0.0,0.0,0.0,0.0,0.0,0.0,0.0,0.0,0.0,0.0,0.0,0.0,0.0,0.0,-1.1895,-1.251,0.0,0.0,0.0,0.0,0.0,0.0,0.0,0.0,-1.3845,0.0,0.0,0.0,0.0,0.0,0.0,0.0,0.0,0.0,0.0,0.0,0.0,0.0,0.0,0.0,0.0,0.0,0.0,0.0,0.0,0.0,0.0,0.0,0.0,0.0,0.0,0.0,0.0,0.0,0.0,0.0,0.0,0.0,0.0,0.0,0.0,0.0,0.0,0.0,0.0,0.0,0.0,0.0,0.0,0.0,0.0,0.0,0.0,0.0,0.0,0.0,0.0,0.0,0.0,0.0,0.0,-1.4788,-1.6274,-1.7397,-1.8088,-1.8084,-1.7909,-1.7456,-1.7523,-1.6599,-1.451,0.0,0.0,0.0,0.0,0.0,0.0,0.0,0.0,0.0,0.0,0.0,0.0,0.0,0.0,0.0,0.0,0.0,0.0,0.0,0.0,0.0,0.0,0.0,0.0,0.0,0.0,0.0,0.0,0.0,0.0,0.0,0.0,0.0,0.0,0.0,0.0,0.0,0.0,0.0,-1.3521,-1.4092,0.0,0.0,0.0,0.0,0.0,0.0,0.0,0.0,-1.3654,0.0,0.0,0.0,0.0,0.0,0.0,0.0,0.0,0.0,0.0,0.0,0.0,0.0,0.0,0.0,0.0,0.0,0.0,0.0,0.0,0.0,0.0,0.0,0.0,0.0,0.0,0.0,0.0,0.0,0.0,0.0,0.0,0.0,0.0,0.0,0.0,0.0,0.0,0.0,0.0,0.0,0.0,0.0,0.0,0.0,0.0,0.0,0.0,0.0,0.0,0.0,0.0,0.0,0.0,0.0,-1.4321,-1.6459,-1.7859,-1.8333,-1.8356,-1.8293,-1.8128,-1.8207,-1.7311,0.0,0.0,0.0,0.0,0.0,0.0,0.0,0.0,0.0,0.0,0.0,0.0,0.0,0.0,0.0,0.0,0.0,0.0,0.0,0.0,0.0,0.0,0.0,0.0,0.0,0.0,0.0,0.0,0.0,0.0,0.0,0.0,0.0,0.0,0.0,0.0,0.0,0.0,0.0,0.0,-1.4669,-1.532,-1.6608,0.0,0.0,0.0,0.0,0.0,0.0,-1.4983,-1.3898,0.0,0.0,0.0,0.0,0.0,0.0,0.0,0.0,0.0,0.0,0.0,0.0,0.0,0.0,0.0,0.0,0.0,0.0,0.0,0.0,0.0,0.0,0.0,0.0,0.0,0.0,0.0,0.0,0.0,0.0,0.0,0.0,0.0,0.0,0.0,0.0,0.0,0.0,0.0,0.0,0.0,0.0,0.0,0.0,0.0,0.0,0.0,0.0,0.0,0.0,0.0,0.0,0.0,0.0,0.0,-1.3584,-1.6441,-1.8175,-1.8563,-1.8587,-1.864,-1.8771,-1.8798,-1.8009,0.0,0.0,0.0,0.0,0.0,0.0,0.0,0.0,0.0,0.0,0.0,0.0,0.0,0.0,0.0,0.0,0.0,0.0,0.0,0.0,0.0,0.0,0.0,0.0,0.0,0.0,0.0,0.0,0.0,0.0,0.0,0.0,0.0,0.0,0.0,0.0,0.0,0.0,0.0,0.0,0.0,-1.6412,-1.7252,-1.9077,0.0,0.0,0.0,0.0,-1.7757,-1.5849,0.0,0.0,0.0,0.0,0.0,0.0,0.0,0.0,0.0,0.0,0.0,0.0,0.0,0.0,0.0,0.0,0.0,0.0,0.0,0.0,0.0,0.0,0.0,0.0,0.0,0.0,0.0,0.0,0.0,0.0,0.0,0.0,0.0,0.0,0.0,0.0,0.0,0.0,0.0,0.0,0.0,0.0,0.0,0.0,0.0,0.0,0.0,0.0,0.0,0.0,0.0,0.0,0.0,0.0,0.0,0.0,-1.3897,-1.6901,-1.8516,-1.8575,-1.8587,-1.8614,-1.864,-1.8744,-1.8021,0.0,0.0,0.0,0.0,0.0,0.0,0.0,0.0,0.0,0.0,0.0,0.0,0.0,0.0,0.0,0.0,0.0,0.0,0.0,0.0,0.0,0.0,0.0,0.0,0.0,0.0,0.0,0.0,0.0,0.0,0.0,0.0,0.0,0.0,0.0,0.0,0.0,0.0,0.0,0.0,0.0,-1.6871,-1.6215,-1.8575,-1.9428,0.0,0.0,-1.9838,-1.8268,-1.7288,0.0,0.0,0.0,0.0,0.0,0.0,0.0,0.0,0.0,0.0,0.0,0.0,0.0,0.0,0.0,0.0,0.0,0.0,0.0,0.0,0.0,0.0,0.0,0.0,0.0,0.0,0.0,0.0,0.0,0.0,0.0,0.0,0.0,0.0,0.0,0.0,0.0,0.0,0.0,0.0,0.0,0.0,0.0,0.0,0.0,0.0,0.0,0.0,0.0,0.0,0.0,0.0,0.0,0.0,0.0,-1.4343,-1.4058,-1.7145,-1.8827,-1.8815,-1.8541,-1.8541,-1.8827,-1.8606,-1.7933,0.0,0.0,0.0,0.0,0.0,0.0,0.0,0.0,0.0,0.0,0.0,0.0,0.0,0.0,0.0,0.0,0.0,0.0,0.0,0.0,0.0,0.0,0.0,0.0,0.0,0.0,0.0,0.0,0.0,0.0,0.0,0.0,0.0,0.0,0.0,0.0,0.0,0.0,0.0,0.0,0.0,0.0,-1.7712,-1.9743,0.0,0.0,0.0,-2.0844,-1.9053,0.0,0.0,0.0,0.0,0.0,0.0,0.0,0.0,0.0,0.0,0.0,0.0,0.0,0.0,0.0,0.0,0.0,0.0,0.0,0.0,0.0,0.0,0.0,0.0,0.0,0.0,0.0,0.0,0.0,0.0,0.0,0.0,0.0,0.0,0.0,0.0,0.0,0.0,0.0,0.0,0.0,0.0,0.0,0.0,0.0,0.0,0.0,0.0,0.0,0.0,0.0,0.0,0.0,0.0,0.0,0.0,0.0,-1.4266,-1.7375,-1.9059,-1.9167,-1.8674,-1.859,-1.8975,-1.8602,0.0,0.0,0.0,0.0,0.0,0.0,0.0,0.0,0.0,0.0,0.0,0.0,0.0,0.0,0.0,0.0,0.0,0.0,0.0,0.0,0.0,0.0,0.0,0.0,0.0,0.0,0.0,-0.7525,0.0,0.0,0.0,0.0,0.0,0.0,0.0,0.0,0.0,0.0,0.0,0.0,0.0,0.0,-1.8991,-1.8956,-2.0685,-2.1561,0.0,0.0,-2.1415,-1.9794,-1.8898,-1.8361,0.0,0.0,0.0,0.0,0.0,0.0,0.0,0.0,0.0,0.0,0.0,0.0,0.0,0.0,0.0,0.0,0.0,0.0,0.0,0.0,0.0,0.0,0.0,0.0,0.0,0.0,0.0,0.0,0.0,0.0,0.0,0.0,0.0,0.0,0.0,0.0,0.0,0.0,0.0,0.0,0.0,0.0,0.0,0.0,0.0,0.0,0.0,0.0,0.0,0.0,0.0,0.0,0.0,0.0,0.0,-1.4834,-1.7554,-1.9254,-1.9684,-1.9203,-1.8977,-1.8987,-1.8951,-1.8712,0.0,0.0,0.0,0.0,0.0,0.0,0.0,0.0,0.0,0.0,0.0,0.0,0.0,0.0,0.0,0.0,0.0,0.0,0.0,0.0,0.0,0.0,0.0,0.0,0.0,0.0,0.0,0.0,0.0,0.0,0.0,0.0,0.0,0.0,0.0,0.0,0.0,0.0,0.0,0.0,0.0,-1.8562,-1.878,-2.063,-2.1523,0.0,-2.0778,-2.1103,-2.035,-1.9672,-1.9425,-1.9997,0.0,0.0,0.0,0.0,0.0,0.0,0.0,0.0,0.0,0.0,0.0,0.0,0.0,0.0,0.0,0.0,0.0,0.0,0.0,0.0,0.0,0.0,0.0,0.0,0.0,0.0,0.0,0.0,0.0,0.0,0.0,0.0,0.0,0.0,0.0,0.0,0.0,0.0,0.0,0.0,0.0,0.0,0.0,0.0,0.0,0.0,0.0,0.0,0.0,0.0,0.0,0.0,0.0,-1.4467,-1.4832,-1.7566,-1.9239,-1.9748,-1.8951,-1.8662,-1.9013,-1.9013,-1.8787,0.0,0.0,0.0,0.0,0.0,0.0,0.0,0.0,0.0,0.0,0.0,0.0,0.0,0.0,0.0,0.0,0.0,0.0,0.0,0.0,0.0,0.0,0.0,0.0,0.0,0.0,0.0,0.0,-1.0148,-1.0255,-1.0155,0.0,0.0,0.0,0.0,0.0,0.0,0.0,0.0,0.0,0.0,-1.9836,-1.9046,-2.0682,0.0,0.0,-2.0768,-2.1211,-2.0949,-2.072,-2.0628,-2.089,-2.0577,0.0,0.0,0.0,0.0,0.0,0.0,0.0,0.0,0.0,0.0,0.0,0.0,0.0,0.0,0.0,0.0,0.0,0.0,0.0,0.0,0.0,0.0,0.0,0.0,0.0,0.0,0.0,0.0,0.0,0.0,0.0,0.0,0.0,0.0,0.0,0.0,0.0,0.0,0.0,0.0,0.0,0.0,0.0,0.0,0.0,0.0,0.0,0.0,0.0,0.0,0.0,0.0,-1.4643,-1.5778,-1.7915,-1.9324,-1.9997,-1.9001,-1.8614,-1.9001,-1.9052,-1.9022,0.0,0.0,0.0,0.0,0.0,0.0,0.0,0.0,0.0,0.0,0.0,0.0,0.0,0.0,0.0,0.0,0.0,0.0,0.0,0.0,0.0,0.0,0.0,0.0,0.0,0.0,0.0,0.0,-1.1136,-1.0959,-1.0567,0.0,0.0,0.0,0.0,0.0,0.0,0.0,0.0,0.0,0.0,-2.0093,-1.9844,-2.1061,-2.174,-2.1069,-2.132,-2.1673,-2.1858,-2.1565,-2.1365,-2.1544,0.0,0.0,0.0,0.0,0.0,0.0,0.0,0.0,0.0,0.0,0.0,0.0,0.0,0.0,0.0,0.0,0.0,0.0,0.0,0.0,0.0,0.0,0.0,0.0,0.0,0.0,0.0,0.0,0.0,0.0,-0.6086,0.0,0.0,0.0,0.0,0.0,0.0,0.0,0.0,0.0,0.0,0.0,0.0,0.0,0.0,0.0,0.0,0.0,0.0,0.0,0.0,0.0,0.0,-1.5486,-1.7958,-1.8622,-1.9519,-2.0494,-1.9543,-1.8989,-1.9013,-1.9143,-1.9427,-1.9906,0.0,0.0,0.0,0.0,0.0,0.0,0.0,0.0,0.0,0.0,0.0,0.0,0.0,0.0,0.0,0.0,0.0,0.0,0.0,0.0,0.0,0.0,0.0,0.0,0.0,0.0,-1.0705,-1.0564,-1.0654,0.0,0.0,0.0,0.0,0.0,0.0,0.0,0.0,0.0,0.0,-1.8622,-1.8803,-2.1255,-2.1847,-2.2176,-2.2773,-2.2539,-2.2486,-2.3086,-2.2151,-2.1483,0.0,0.0,0.0,0.0,0.0,0.0,0.0,0.0,0.0,0.0,0.0,0.0,0.0,0.0,0.0,0.0,0.0,0.0,0.0,0.0,0.0,0.0,0.0,0.0,0.0,0.0,0.0,-0.8333,-0.8217,0.0,0.0,0.0,0.0,0.0,0.0,0.0,0.0,0.0,0.0,0.0,-1.3383,-1.3719,0.0,0.0,0.0,0.0,0.0,0.0,0.0,0.0,0.0,0.0,0.0,0.0,-1.6338,-1.7528,-1.8516,-1.9351,-2.0025,-1.9453,-1.9105,-1.9143,-1.9617,-1.9768,-1.9599,0.0,0.0,0.0,0.0,0.0,0.0,0.0,0.0,0.0,0.0,0.0,0.0,0.0,0.0,0.0,0.0,0.0,0.0,0.0,0.0,0.0,0.0,0.0,0.0,0.0,-1.2403,0.0,0.0,0.0,0.0,0.0,0.0,0.0,0.0,0.0,0.0,0.0,-1.7162,-1.8238,-1.9528,-2.055,-2.0991,-2.1512,-2.1957,0.0,0.0,0.0,0.0,0.0,0.0,0.0,0.0,0.0,0.0,0.0,0.0,0.0,0.0,-1.564,-1.5966,-1.554,-1.515,-1.5195,0.0,0.0,0.0,0.0,0.0,0.0,0.0,0.0,0.0,0.0,0.0,0.0,0.0,0.0,-1.0567,0.0,-1.0628,0.0,0.0,0.0,0.0,0.0,0.0,0.0,0.0,-1.4294,-1.4677,-1.5069,-1.5429,-1.5451,0.0,-1.5102,-1.3994,0.0,0.0,0.0,0.0,0.0,0.0,0.0,0.0,-1.7286,-1.8153,-1.8888,-1.9471,-1.9827,-1.9449,-1.9223,-1.9287,-1.9922,-2.018,-1.9874,-1.8909,-1.7854,0.0,0.0,0.0,0.0,0.0,0.0,0.0,0.0,0.0,0.0,0.0,0.0,0.0,0.0,0.0,0.0,0.0,0.0,0.0,0.0,0.0,0.0,0.0,-1.4264,0.0,0.0,0.0,0.0,0.0,0.0,0.0,0.0,0.0,-1.6189,-1.6846,-1.7788,-1.8939,-2.0198,-2.1006,-2.1051,0.0,0.0,0.0,0.0,0.0,0.0,0.0,-2.231,-2.1605,-2.1791,-2.1671,-2.0666,-1.9642,-1.8967,-1.8954,0.0,0.0,-1.691,-1.6389,-1.6019,-1.6182,-1.6489,-1.6622,-1.6391,-1.7357,-1.8255,0.0,0.0,0.0,0.0,0.0,0.0,0.0,0.0,-1.3674,-1.3219,0.0,-1.2574,0.0,0.0,0.0,0.0,0.0,-1.3709,0.0,0.0,-1.594,-1.6723,-1.7702,-1.7714,-1.7737,-1.7786,-1.7739,-1.7035,-1.5717,-1.4531,0.0,0.0,0.0,0.0,0.0,0.0,-1.8286,-1.966,-1.9736,-1.9839,-1.9922,-1.9463,-1.9275,-1.9433,-2.0122,-2.0557,-2.0654,-1.9634,-1.8721,-1.8172,-1.548,0.0,0.0,0.0,0.0,0.0,0.0,0.0,0.0,0.0,0.0,0.0,0.0,0.0,0.0,0.0,0.0,0.0,0.0,0.0,0.0,-1.5621,0.0,0.0,0.0,0.0,0.0,0.0,0.0,0.0,0.0,0.0,-1.8747,-1.7728,-1.8011,-2.1156,0.0,0.0,0.0,0.0,-2.2797,-2.2817,-2.3479,-2.3743,-2.3245,-2.3179,-2.2593,-2.0869,0.0,0.0,-1.8986,-1.8853,-1.9238,-2.0296,-1.9518,-1.8545,-1.7468,-1.6728,-1.6642,-1.7782,-1.768,-1.7539,-1.7921,-1.859,-1.9037,-1.2928,0.0,0.0,0.0,0.0,-1.3504,-1.3966,-1.4685,-1.4685,-1.4605,-1.4507,-1.4774,0.0,0.0,0.0,0.0,0.0,0.0,-1.6197,-1.725,-1.6975,-1.7173,-1.7784,-1.7457,-1.733,-1.7368,-1.7659,-1.7688,-1.7507,-1.7419,-1.667,-1.5308,0.0,0.0,0.0,0.0,-1.918,-1.9254,-1.9215,-1.9242,-1.9281,-1.9322,-1.9499,-1.9836,-2.0349,-2.0758,-2.0972,-2.0915,-2.047,-1.9547,-1.7935,0.0,0.0,0.0,0.0,0.0,0.0,0.0,0.0,0.0,0.0,0.0,0.0,0.0,0.0,0.0,0.0,0.0,0.0,0.0,-1.5876,-1.7512,-1.8632,0.0,0.0,0.0,0.0,0.0,0.0,0.0,0.0,0.0,-2.1265,-2.0393,-1.9731,0.0,0.0,-2.1445,-2.2313,-2.2604,-2.2894,-2.3329,-2.3185,0.0,-2.2873,-2.2885,-2.2604,-2.165,-2.0837,-2.0093,-1.9483,-1.911,-1.9009,-1.9354,-1.9143,-1.878,-1.8502,-1.8097,-1.8016,-1.8481,-1.8611,-1.889,-1.9521,-1.9887,-1.9999,-1.407,-1.4119,-1.4441,-1.459,-1.4655,-1.4723,-1.5318,-1.6257,-1.6041,-1.5993,-1.6153,-1.6364,-1.5943,-1.5005,-1.5314,0.0,0.0,0.0,-1.7287,-1.835,-1.775,-1.776,-1.8237,-1.8001,-1.7872,-1.7936,-1.8156,-1.8362,-1.8506,-1.8764,-1.8259,-1.7135,0.0,0.0,-1.8857,-1.9684,-1.9949,-1.9664,-1.9624,-1.9567,-1.9404,-1.966,-1.9879,-1.9938,-2.0683,-2.1169,-2.1331,-2.1623,-2.1637,-2.1178,-1.9634,-1.7999,0.0,0.0,0.0,0.0,0.0,0.0,0.0,0.0,0.0,0.0,0.0,-0.9712,-0.999,0.0,0.0,0.0,-1.4299,-1.5448,-1.758,-1.8482,0.0,0.0,0.0,0.0,0.0,0.0,0.0,-1.9091,-1.9313,-2.0094,-2.168,-2.1665,-2.1335,-2.0951,-2.1575,-2.2254,-2.2643,0.0,-2.3197,-2.355,-2.3302,-2.2999,-2.2793,-2.2814,-2.2597,-2.1801,-2.1021,-2.0401,-2.0044,-1.9748,-1.9614,-1.9614,-1.9627,-1.9651,-1.9709,-1.9687,-1.9499,-1.9176,-1.9339,-1.9725,-2.0287,-2.0604,-2.0795,-1.4835,-1.4827,-1.4506,-1.4823,-1.5581,-1.5691,-1.659,-1.7897,-1.7396,-1.7273,-1.7397,-1.7484,-1.7309,-1.6985,-1.7123,0.0,-1.8013,-1.7498,-1.7906,-1.9023,-1.8426,-1.8486,-1.9095,-1.9098,-1.9059,-1.9047,-1.9011,-1.9013,-1.9013,-1.9035,-1.9047,-1.9047,-1.9095,-1.9324,-1.972,-2.0322,-2.0562,-2.047,-2.049,-2.0382,-2.0077,-2.0326,-2.0345,-1.9987,-2.1026,-2.1665,-2.1794,-2.1959,-2.226,-2.2644,-2.0771,-1.9286,-1.8378,0.0,0.0,0.0,0.0,0.0,0.0,0.0,0.0,0.0,0.0,0.0,0.0,0.0,0.0,0.0,-1.624,0.0,-1.9321,-1.8867,0.0,0.0,0.0,-2.0448,-2.059,-2.0105,-1.9765,-1.9765,0.0,0.0,-2.0927,-2.1964,-2.2718,-2.2763,-2.2733,-2.2718,-2.2763,-2.3236,-2.3595,-2.3595,-2.3595,-2.3465,-2.304,-2.2943,-2.259,-2.1709,-2.0946,-2.0605,-2.0572,-2.0582,-2.0671,-2.062,-2.0686,-2.0723,-2.0934,-2.1073,-2.107,-1.9971,-1.9995,-2.0287,-2.0595,-2.1026,-2.1409,-1.421,-1.4478,-1.4838,-1.5417,-1.6118,-1.6146,-1.6377,-1.6726,-1.7062,-1.7219,-1.7307,-1.8152,-1.8488,-1.8405,-1.8292,-1.8319,-1.844,-1.8517,-1.8922,-1.9576,-1.9468,-1.9696,-2.0201,-1.9793,-1.9615,-1.9591,-1.9179,-1.9013,-1.9049,-1.9396,-1.9615,-1.9652,-2.0021,-1.9877,-1.9239,-2.0129,-2.0201,-1.9399,-1.9891,-2.0214,-2.038,-2.0461,-2.0734,-2.123,-2.1037,-2.1447,-2.2483,-2.2477,-2.2365,-2.2116,-2.1535,-2.0322,-1.8492,-1.7765,0.0,0.0,0.0,0.0,0.0,0.0,0.0,0.0,0.0,-1.374,-1.44,0.0,-1.8054,0.0,-1.9508,-1.9972,-2.0131,-2.045,0.0,0.0,-2.0764,-2.026,-1.9764,-2.0019,-2.0249,-2.031,-2.0905,-2.1729,-2.2781,-2.2793,-2.2882,-2.3295,-2.2987,-2.2868,-2.3332,-2.3505,-2.3595,-2.3595,-2.3595,-2.3551,-2.3421,-2.3135,-2.2809,-2.2574,-2.1778,-2.1206,-2.1192,-2.0915,-2.0699,-2.0699,-2.0699,-2.0724,-2.0774,-2.1106,-2.1293,-2.1043,-2.1342,-2.1703,-2.1749,-2.1898,-2.2066,-1.398,-1.4198,-1.4695,-1.5128,-1.5526,-1.5777,-1.6054,-1.6312,-1.6386,-1.6595,-1.6994,-1.7909,-1.8587,-1.9068,-1.9033,-1.917,-1.9487,-1.9641,-1.988,-2.0157,-2.0153,-2.0322,-2.0569,-2.0298,-2.0153,-2.0141,-1.9856,-1.9724,-1.9708,-1.9768,-1.9929,-2.0157,-2.0201,-2.0069,-1.9768,-2.055,-2.0779,-2.043,-2.0391,-2.0257,-2.0113,-2.0364,-2.0746,-2.1214,-2.1456,-2.1777,-2.2314,-2.2528,-2.2585,-2.2321,-2.2245,-2.1481,-1.9965,-1.9418,-1.8634,0.0,0.0,0.0,0.0,0.0,0.0,0.0,0.0,0.0,0.0,0.0,-2.0201,-2.054,-1.9803,-1.9584,-2.025,-2.0343,-2.0758,-2.1657,-2.1462,-2.1217,-2.1138,-2.1197,-2.1246,-2.1306,-2.1632,-2.2162,-2.3001,-2.3067,-2.3178,-2.3565,-2.3295,-2.3206,-2.352,-2.3595,-2.3595,-2.3595,-2.3595,-2.3595,-2.3595,-2.3377,-2.3224,-2.3157,-2.2581,-2.1992,-2.1756,-2.1313,-2.0947,-2.0749,-2.0699,-2.0724,-2.0823,-2.1144,-2.1423,-2.1592,-2.1902,-2.2147,-2.2194,-2.2254,-2.237,-1.4114,-1.407,-1.4387,-1.4485,-1.4545,-1.5069,-1.5575,-1.6026,-1.5663,-1.5995,-1.6854,-1.7472,-1.8313,-1.9332,-1.9438,-1.9866,-2.0541,-2.0543,-2.0567,-2.0699,-2.0706,-2.0725,-2.0786,-2.0754,-2.0689,-2.0718,-2.0651,-2.0615,-2.0569,-2.0189,-2.0242,-2.0663,-2.0302,-2.0334,-2.0815,-2.1284,-2.1704,-2.2108,-2.1352,-2.0615,-1.9938,-2.0364,-2.0732,-2.1018,-2.1901,-2.2198,-2.1802,-2.2337,-2.2585,-2.2524,-2.2532,-2.2204,-2.1504,-2.0725,-1.9785,0.0,-1.8265,0.0,0.0,0.0,0.0,0.0,0.0,0.0,0.0,-2.1046,-2.1945,-2.1482,-1.9303,-1.863,-2.0279,-1.9871,-2.0157,-2.1819,-2.2059,-2.2321,-2.29,-2.2554,-2.2275,-2.2281,-2.2369,-2.2456,-2.2657,-2.3124,-2.3494,-2.3545,-2.3537,-2.3522,-2.3588,-2.3595,-2.3595,-2.3595,-2.3595,-2.3595,-2.3595,-2.3573,-2.3573,-2.353,-2.3157,-2.274,-2.2267,-2.1742,-2.124,-2.0898,-2.0774,-2.0799,-2.0972,-2.1229,-2.153,-2.1759,-2.202,-2.217,-2.2194,-2.2301,-2.2454,-1.4586,-1.4396,-1.4485,-1.4485,-1.4506,-1.4625,-1.4734,-1.4871,-1.5602,-1.6667,-1.7968,-1.828,-1.8827,-1.9518,-1.9408,-1.9752,-2.0418,-2.0101,-2.0394,-2.126,-2.1247,-2.1488,-2.1861,-2.1452,-2.126,-2.1235,-2.0827,-2.0581,-2.0622,-2.0947,-2.1151,-2.126,-2.1584,-2.1789,-2.1897,0.0,0.0,0.0,-2.1699,-2.1666,-2.1629,-2.1394,-2.1741,-2.2569,-2.1584,0.0,-2.2124,-2.1917,-2.1554,-2.114,-2.1082,0.0,0.0,0.0,0.0,0.0,0.0,0.0,0.0,0.0,0.0,0.0,-2.2279,-2.1878,-2.0805,-2.1924,-2.2738,-2.2717,-2.2178,-2.1765,-2.1684,-2.158,-2.1455,-2.1233,-2.1324,-2.1403,-2.1449,-2.1813,-2.2097,-2.2219,-2.2651,-2.2988,-2.3127,-2.3282,-2.3341,-2.337,-2.3451,-2.3494,-2.3531,-2.3581,-2.3595,-2.3595,-2.3595,-2.3595,-2.3595,-2.3595,-2.3595,-2.353,-2.3224,-2.2889,-2.2694,-2.1978,-2.1423,-2.1253,-2.1082,-2.0947,-2.1021,-2.1399,-2.1698,-2.1783,-2.2006,-2.2194,-2.2194,-2.2301,-2.2454,-1.5034,0.0,-1.4851,-1.4909,0.0,-1.4891,-1.4909,-1.5124,-1.5423,-1.6251,-1.7468,-1.8028,-1.8775,-1.9692,-1.9973,-2.0509,-2.1266,-2.1062,-2.1272,-2.1789,-2.1789,-2.1933,-2.2185,-2.1921,-2.1801,-2.1777,-2.1524,-2.1392,-2.1392,-2.1404,-2.1536,-2.1789,-2.1801,-2.1933,-2.2185,-2.2197,-2.2013,-2.16,-2.1433,-2.1309,-2.1156,-2.0762,-2.0957,-2.1772,-2.1089,0.0,0.0,0.0,0.0,0.0,0.0,0.0,0.0,0.0,0.0,-2.0747,-2.1261,-2.1799,-2.2296,-2.2342,-2.254,-2.297,-2.3015,-2.2716,-2.1968,-2.2258,-2.2468,-2.2535,-2.22,-2.1968,-2.2004,-2.2097,-2.2125,-2.2047,-2.2154,-2.2196,-2.2204,-2.2432,-2.2673,-2.2746,-2.2944,-2.3135,-2.3275,-2.3231,-2.3231,-2.3297,-2.3363,-2.3407,-2.3407,-2.3523,-2.3595,-2.3595,-2.3595,-2.3595,-2.3595,-2.3595,-2.3595,-2.3551,-2.3399,-2.3179,-2.2949,-2.2388,-2.1874,-2.165,-2.1277,-2.1033,-2.118,-2.1423,-2.164,-2.1807,-2.2006,-2.217,-2.2194,-2.2347,-2.2523,-1.5438,-1.55,-1.5277,-1.5395,-1.5661,-1.534,-1.5441,-1.5771,0.0,0.0,0.0,-1.7747,-1.8812,-1.9846,-2.0598,-2.1393,-2.2185,-2.2089,-2.2101,-2.2197,-2.2197,-2.2197,-2.2197,-2.2197,-2.2197,-2.2197,-2.2197,-2.2197,-2.2173,-2.1753,-2.1753,-2.2113,-2.1753,-2.1765,-2.2161,-2.2197,-2.203,-2.1716,-2.1183,-2.0771,-2.0471,-1.9968,-2.0,-2.0625,-2.0546,-2.0564,-2.0665,-2.0591,-2.0553,-2.0526,-2.1003,-2.1056,-2.0581,-2.1082,-2.1184,-2.0662,-2.0771,-2.1275,-2.2137,-2.2278,-2.2486,-2.288,-2.2888,-2.2925,-2.2925,-2.2491,-2.2207,-2.2229,-2.1698,-2.1625,-2.2171,-2.2308,-2.2542,-2.3091,-2.3231,-2.3268,-2.3282,-2.3275,-2.3238,-2.3275,-2.3179,-2.3149,-2.3275,-2.3209,-2.3194,-2.329,-2.3341,-2.3341,-2.3385,-2.348,-2.3566,-2.3588,-2.3588,-2.3595,-2.3595,-2.3595,-2.3595,-2.3595,-2.3573,-2.3465,-2.3113,-2.2762,-2.2434,-2.203,-2.1544,-2.135,-2.1447,-2.1544,-2.1616,-2.1831,-2.203,-2.2194,-2.2217,-2.2394,-2.2569,-1.5962,-1.5657,-1.5634,-1.5643,-1.568,-1.5634,-1.5845,-1.6221,-1.6322,-1.6654,-1.721,-1.8708,-1.9521,-1.9836,-2.0687,-2.1478,-2.2149,-2.1716,-2.1765,-2.2185,-2.2197,-2.2197,-2.2197,-2.2197,-2.2197,-2.2197,-2.2197,-2.2197,-2.2185,-2.2113,-2.2125,-2.2185,-2.2113,-2.2113,-2.2185,-2.2197,-2.2192,-2.2096,-2.1698,-2.1472,-2.1387,-2.0554,-2.0461,-2.1095,-2.0252,-1.9991,-2.0517,-2.0135,-1.9872,-1.9754,-1.995,-2.0001,-1.995,-2.0475,-2.0688,-2.0648,-2.1468,-2.2053,-2.2208,-2.2569,-2.282,-2.2888,-2.2888,-2.2947,-2.306,-2.2987,-2.2995,-2.3098,-2.2915,-2.2878,-2.3113,-2.3032,-2.3091,-2.3246,-2.329,-2.3297,-2.3327,-2.3216,-2.3179,-2.3275,-2.3179,-2.3135,-2.3253,-2.3253,-2.3231,-2.3297,-2.3341,-2.3451,-2.348,-2.3538,-2.3516,-2.3516,-2.3581,-2.3595,-2.3595,-2.3595,-2.3595,-2.3595,-2.3595,-2.3573,-2.348,-2.3113,-2.2754,-2.248,-2.2156,-2.1959,-2.1817,-2.1935,-2.2044,-2.2114,-2.2161,-2.2194,-2.2194,-2.2347,-2.25,-1.6421,-1.6331,-1.612,-1.6156,-1.6349,-1.6349,-1.6459,-1.6633,-1.6828,-1.6955,-1.7166,-1.823,-1.8813,-1.9048,-2.0176,-2.0948,-2.1345,-2.149,-2.1692,-2.1906,-2.1917,-2.198,-2.203,-2.203,-2.2092,-2.2197,-2.2197,-2.2197,-2.2197,-2.2197,-2.2197,-2.2197,-2.2197,-2.2053,-2.1789,-2.1765,-2.165,-2.1349,-2.1226,-2.1151,-2.1151,-2.0315,-2.0033,-2.0362,-1.9905,-1.9833,-2.0109,-1.9923,-1.9785,-1.9708,-1.9759,-1.9927,-2.0232,-2.0459,-2.0858,-2.142,-2.1935,-2.2301,-2.2555,-2.3115,-2.3455,-2.3432,-2.378,-2.404,-2.4119,-2.3789,-2.3716,-2.406,-2.4072,-2.4101,-2.4142,-2.4142,-2.4142,-2.4221,-2.3966,-2.3806,-2.3724,-2.3422,-2.3246,-2.3275,-2.3194,-2.3127,-2.3179,-2.312,-2.309,-2.309,-2.3201,-2.329,-2.3319,-2.3444,-2.3494,-2.356,-2.3588,-2.3595,-2.3595,-2.3595,-2.3595,-2.3595,-2.3595,-2.3595,-2.3573,-2.3312,-2.3105,-2.2949,-2.2686,-2.2449,-2.2254,-2.224,-2.224,-2.2194,-2.2194,-2.2194,-2.2208,-2.2347,-2.2546,-1.6682,-1.6793,-1.6544,-1.6624,-1.6908,-1.6908,-1.6908,-1.6943,-1.7072,-1.7141,-1.7235,-1.7833,-1.8254,-1.8646,-1.9879,-2.0613,-2.0901,-2.1423,-2.1698,-2.171,-2.171,-2.1761,-2.1843,-2.1831,-2.1877,-2.1894,-2.1901,-2.1865,-2.1769,-2.1884,-2.2046,-2.2173,-2.2197,-2.1933,-2.1416,-2.1404,-2.1127,-2.0639,-2.0621,-2.0617,-2.0552,-1.9873,-1.9512,-1.9565,-1.9682,-1.9747,-1.9747,-1.9773,-1.9785,-1.9785,-1.9901,-2.0144,-2.0573,-2.061,-2.0981,-2.1746,-2.1959,-2.2357,-2.3088,-2.3722,-2.4109,-2.4109,-2.4588,-2.497,-2.5107,-2.465,-2.4452,-2.4825,-2.4878,-2.4907,-2.4903,-2.4941,-2.5004,-2.4999,-2.4684,-2.4446,-2.4387,-2.3989,-2.3695,-2.3695,-2.3611,-2.3528,-2.3368,-2.3279,-2.3161,-2.3074,-2.309,-2.3149,-2.3157,-2.3349,-2.3473,-2.3523,-2.3551,-2.3595,-2.3595,-2.3595,-2.3595,-2.3595,-2.3595,-2.3595,-2.3573,-2.3458,-2.3341,-2.3253,-2.3061,-2.2791,-2.2623,-2.2472,-2.2342,-2.224,-2.2194,-2.2194,-2.2194,-2.2356,-2.2592,-1.6603,-1.6647,-1.6766,-1.6872,-1.6908,-1.6908,-1.6908,-1.6908,-1.6943,-1.7304,-1.7867,-1.8307,-1.88,-1.9529,-2.0236,-2.0901,-2.1498,-2.1667,-2.1679,-2.1667,-2.171,-2.171,-2.1718,-2.173,-2.1471,-2.1113,-2.1084,-2.0895,-2.0582,-2.1021,-2.1571,-2.2137,-2.2197,-2.1897,-2.144,-2.1368,-2.1115,-2.0581,-2.0241,-2.0003,-1.9884,-1.9461,-1.9302,-1.942,-1.9565,-1.9617,-1.963,-1.9746,-1.9734,-1.9682,-2.0182,-2.0535,-2.0585,-2.061,-2.0646,-2.0809,-2.1253,-2.2124,-2.3658,-2.436,-2.4723,-2.4737,-2.4863,-2.5193,-2.5672,-2.5658,-2.5471,-2.5287,-2.5087,-2.5136,-2.5154,-2.5141,-2.5175,-2.5292,-2.514,-2.5099,-2.5061,-2.4945,-2.4877,-2.5026,-2.4745,-2.4648,-2.4147,-2.4001,-2.3789,-2.3326,-2.3231,-2.3209,-2.3231,-2.3275,-2.3341,-2.337,-2.3465,-2.3588,-2.3588,-2.3595,-2.3595,-2.3595,-2.3595,-2.3595,-2.3573,-2.3573,-2.3508,-2.337,-2.3319,-2.3105,-2.2737,-2.2592,-2.2486,-2.2231,-2.2147,-2.2194,-2.2194,-2.2324,-2.25,-1.6603,-1.6647,-1.683,-1.6908,-1.6908,-1.6908,-1.6908,-1.6908,-1.6908,-1.7304,-1.7969,-1.8128,-1.86,-1.9276,-1.9987,-2.0495,-2.0764,-2.1201,-2.1391,-2.1403,-2.1391,-2.1423,-2.1506,-2.1506,-2.1452,-2.1334,-2.107,-2.0811,-2.0635,-2.0618,-2.0748,-2.0968,-2.1021,-2.0777,-2.0387,-2.0351,-2.0105,-1.9672,-1.9498,-1.9377,-1.9353,-1.932,-1.9342,-1.9394,-1.9473,-1.9486,-1.9486,-1.9539,-1.9539,-1.9486,-1.9746,-2.0067,-2.0472,-2.0498,-2.0967,-2.1997,-2.2948,-2.3735,-2.438,-2.5038,-2.5386,-2.54,-2.5778,-2.6166,-2.637,-2.6399,-2.6294,-2.6181,-2.6083,-2.6083,-2.6134,-2.6097,-2.6097,-2.609,-2.5798,-2.5564,-2.555,-2.5179,-2.4961,-2.4971,-2.4922,-2.4835,-2.4562,-2.425,-2.3944,-2.3631,-2.3427,-2.3252,-2.3194,-2.3246,-2.3297,-2.3319,-2.337,-2.3436,-2.3501,-2.3538,-2.356,-2.3588,-2.3595,-2.3595,-2.3573,-2.3595,-2.3551,-2.3443,-2.3458,-2.3216,-2.264,-2.2746,-2.276,-2.2333,-2.2137,-2.2194,-2.2194,-2.2301,-2.2454,-1.6603,-1.6603,-1.6839,-1.6908,-1.6908,-1.6908,-1.7003,-1.721,-1.721,-1.7706,-1.8533,-1.8566,-1.8957,-1.9606,-1.9966,-2.0193,-2.0463,-2.0955,-2.1201,-2.1201,-2.1201,-2.1253,-2.1336,-2.1174,-2.1132,-2.1051,-2.0579,-2.0363,-2.0399,-2.0094,-2.0006,-2.0181,-2.0205,-1.9974,-1.9574,-1.9555,-1.9348,-1.894,-1.8881,-1.8919,-1.8984,-1.9143,-1.9263,-1.9342,-1.9368,-1.942,-1.942,-1.942,-1.942,-1.942,-1.9577,-1.9888,-2.0372,-2.0564,-2.1322,-2.2761,-2.4005,-2.4737,-2.4823,-2.5615,-2.6079,-2.6097,-2.6559,-2.6794,-2.6794,-2.6794,-2.6794,-2.6777,-2.6794,-2.675,-2.6794,-2.6794,-2.6794,-2.6777,-2.6355,-2.6068,-2.605,-2.5633,-2.5444,-2.5346,-2.5487,-2.5259,-2.5042,-2.4588,-2.4167,-2.4118,-2.3845,-2.3468,-2.3352,-2.3413,-2.3436,-2.3245,-2.3201,-2.3268,-2.3385,-2.3429,-2.3473,-2.3538,-2.3566,-2.3523,-2.3458,-2.3399,-2.3231,-2.2965,-2.3268,-2.3157,-2.2457,-2.2503,-2.2836,-2.2287,-2.2091,-2.2147,-2.2184,-2.2278,-2.2324,-1.6603,-1.6638,-1.6795,-1.6908,-1.6908,-1.6908,-1.7304,-1.7867,-1.791,-1.87,-1.9802,-1.9933,-2.0366,-2.0967,-2.0431,-2.0495,-2.1063,-2.1169,-2.1201,-2.1201,-2.1201,-2.1201,-2.1155,-2.0707,-2.0258,-1.9978,-1.9466,-1.9188,-1.9295,-1.9277,-1.9568,-2.0117,-2.0082,-1.9882,-1.9422,-1.9352,-1.9156,-1.8726,-1.8667,-1.8706,-1.8798,-1.8839,-1.8984,-1.9196,-1.9316,-1.9394,-1.9394,-1.9394,-1.9394,-1.9394,-1.9977,-2.0347,-2.0449,-2.103,-2.1707,-2.2417,-2.3514,-2.4405,-2.4992,-2.6014,-2.6692,-2.6707,-2.6762,-2.6794,-2.6794,-2.6794,-2.6794,-2.6794,-2.6794,-2.6794,-2.6794,-2.6794,-2.6794,-2.6794,-2.6765,-2.6718,-2.6707,-2.6576,-2.6678,-2.6605,-2.6518,-2.6286,-2.5792,-2.5172,-2.4839,-2.4766,-2.4723,-2.4471,-2.3987,-2.388,-2.3603,-2.3188,-2.2999,-2.3,-2.3253,-2.3297,-2.3363,-2.3429,-2.3451,-2.3363,-2.3127,-2.2904,-2.2672,-2.2475,-2.2657,-2.2543,-2.2133,-2.2147,-2.2495,-2.2333,-2.2077,-2.2077,-2.2114,-2.217,-2.2217,-1.6682,-1.6795,-1.6864,-1.6908,-1.6908,-1.6908,-1.7304,-1.7969,-1.8003,-1.88,-1.9966,-2.0096,-2.0506,-2.1158,-2.0924,-2.0967,-2.1201,-2.1201,-2.1201,-2.1201,-2.1201,-2.1201,-2.1144,-2.0653,-2.0331,-2.0056,-1.9298,-1.8741,-1.852,-1.8509,-1.8617,-1.8795,-1.8869,-1.8821,-1.8764,-1.8756,-1.8732,-1.8741,-1.8718,-1.8798,-1.8919,-1.8946,-1.8972,-1.9052,-1.9131,-1.9158,-1.9158,-1.9146,-1.9158,-1.9146,-1.9795,-2.0179,-2.0399,-2.1738,-2.2648,-2.298,-2.4368,-2.5326,-2.5597,-2.6304,-2.6794,-2.6794,-2.6794,-2.6779,-2.6794,-2.6794,-2.6794,-2.6794,-2.6794,-2.6794,-2.6794,-2.6794,-2.6794,-2.6794,-2.6794,-2.6794,-2.6794,-2.6794,-2.6794,-2.6794,-2.6779,-2.6689,-2.6399,-2.585,-2.5458,-2.5415,-2.5085,-2.4766,-2.4491,-2.4181,-2.3847,-2.3557,-2.3186,-2.2947,-2.3,-2.3135,-2.3201,-2.3312,-2.3319,-2.3127,-2.2926,-2.3038,-2.2912,-2.2558,-2.2498,-2.2543,-2.2342,-2.2063,-2.2365,-2.2287,-2.2077,-2.1888,-2.1983,-2.2053,-2.2123,-1.6716,-1.6908,-1.6908,-1.6908,-1.6908,-1.6908,-1.7329,-1.8003,-1.823,-1.9,-2.0009,-2.0334,-2.072,-2.1158,-2.1201,-2.1201,-2.1201,-2.1201,-2.1201,-2.1201,-2.1201,-2.1201,-2.1121,-2.0641,-2.0381,-2.0251,-1.9378,-1.8632,-1.8157,-1.8084,-1.8084,-1.8123,-1.8084,-1.8166,-1.8286,-1.8367,-1.8503,-1.8664,-1.8718,-1.8786,-1.8919,-1.8946,-1.8946,-1.8999,-1.9013,-1.9013,-1.9013,-1.9013,-1.9013,-1.9086,-1.9655,-2.0202,-2.0788,-2.2068,-2.2935,-2.3215,-2.4439,-2.5328,-2.537,-2.5879,-2.6218,-2.6245,-2.6406,-2.6515,-2.6515,-2.6674,-2.6779,-2.6779,-2.658,-2.6553,-2.6674,-2.6447,-2.6379,-2.6674,-2.6794,-2.6794,-2.6794,-2.6794,-2.6794,-2.6794,-2.6794,-2.6779,-2.6736,-2.6373,-2.6181,-2.6137,-2.568,-2.5404,-2.51,-2.482,-2.4292,-2.3934,-2.3543,-2.3186,-2.3035,-2.3,-2.3045,-2.3157,-2.3157,-2.2963,-2.2723,-2.2926,-2.2912,-2.2603,-2.2558,-2.2694,-2.2581,-2.2235,-2.2109,-2.2091,-2.1855,-2.1616,-2.1759,-2.1949,-2.203,-1.6707,-1.6881,-1.6908,-1.6908,-1.6908,-1.6908,-1.7314,-1.8027,-1.8643,-1.9276,-2.0096,-2.0796,-2.1031,-2.1201,-2.1201,-2.1201,-2.1201,-2.1201,-2.1201,-2.1201,-2.1155,-2.1132,-2.1086,-2.0504,-2.0194,-2.0106,-1.9321,-1.8621,-1.8146,-1.8084,-1.8084,-1.8084,-1.8084,-1.8111,-1.8111,-1.8275,-1.8394,-1.8449,-1.8545,-1.8679,-1.8771,-1.8825,-1.8893,-1.8987,-1.9013,-1.9013,-1.9013,-1.9013,-1.9049,-1.9134,-1.97,-2.0592,-2.1591,-2.2109,-2.2379,-2.2927,-2.3721,-2.4089,-2.4247,-2.4794,-2.5203,-2.5273,-2.5605,-2.5879,-2.5975,-2.634,-2.6606,-2.65,-2.6233,-2.6084,-2.6379,-2.5783,-2.5577,-2.6527,-2.6647,-2.658,-2.67,-2.6779,-2.6794,-2.6794,-2.6794,-2.6794,-2.6794,-2.6707,-2.666,-2.666,-2.6617,-2.6384,-2.5879,-2.5604,-2.5139,-2.4355,-2.3847,-2.3519,-2.3178,-2.2902,-2.2947,-2.2992,-2.2947,-2.2797,-2.2287,-2.224,-2.2142,-2.1931,-2.2072,-2.2189,-2.2351,-2.2025,-2.1756,-2.165,-2.1447,-2.1399,-2.152,-2.1712,-2.1912,-1.6674,-1.6551,-1.6789,-1.6908,-1.6908,-1.6908,-1.7304,-1.8003,-1.823,-1.8967,-2.0009,-2.0334,-2.0688,-2.1138,-2.1201,-2.1201,-2.1201,-2.1201,-2.1201,-2.1121,-2.0814,-2.0653,-2.0492,-1.978,-1.9195,-1.8834,-1.8513,-1.8272,-1.8146,-1.8084,-1.8084,-1.8084,-1.8084,-1.8084,-1.8111,-1.8166,-1.8247,-1.8394,-1.8545,-1.8667,-1.8798,-1.8893,-1.8972,-1.8999,-1.9013,-1.9013,-1.9013,-1.9013,-1.9167,-1.9504,-2.0197,-2.1116,-2.2144,-2.2492,-2.2566,-2.2805,-2.3471,-2.3901,-2.3975,-2.4553,-2.4951,-2.5007,-2.5189,-2.5286,-2.5286,-2.5467,-2.5605,-2.5577,-2.5384,-2.5384,-2.5439,-2.5273,-2.5328,-2.6069,-2.5825,-2.5797,-2.6233,-2.6568,-2.6753,-2.6794,-2.6794,-2.6794,-2.6794,-2.6794,-2.6794,-2.6794,-2.6794,-2.666,-2.6474,-2.6094,-2.5763,-2.5226,-2.4592,-2.3693,-2.3122,-2.2686,-2.2577,-2.2552,-2.2509,-2.2347,-2.1888,-2.165,-2.1516,-2.1516,-2.1636,-2.1756,-2.1908,-2.1813,-2.1516,-2.1458,-2.1471,-2.1399,-2.1326,-2.1447,-2.1674,-1.6337,-1.6306,-1.6587,-1.678,-1.6899,-1.6908,-1.7132,-1.7604,-1.7901,-1.8509,-1.9266,-1.9868,-2.0366,-2.0796,-2.1063,-2.1075,-2.0905,-2.0925,-2.0822,-2.0684,-2.0538,-2.032,-2.0113,-1.9528,-1.8919,-1.8478,-1.8398,-1.8283,-1.8084,-1.8084,-1.8084,-1.8084,-1.8084,-1.8139,-1.8193,-1.8247,-1.8383,-1.8518,-1.8706,-1.8774,-1.8866,-1.8946,-1.9013,-1.9013,-1.9013,-1.9122,-1.9278,-1.9287,-1.9432,-1.9868,-2.0564,-2.1515,-2.2408,-2.2555,-2.2586,-2.2696,-2.3095,-2.3458,-2.3531,-2.393,-2.4295,-2.4308,-2.4509,-2.4652,-2.4709,-2.4823,-2.5007,-2.5007,-2.4781,-2.4753,-2.4936,-2.4496,-2.4624,-2.5147,-2.5133,-2.5286,-2.5839,-2.642,-2.6753,-2.6794,-2.6794,-2.6794,-2.6794,-2.6794,-2.6794,-2.6794,-2.6794,-2.6794,-2.6707,-2.6457,-2.6104,-2.5617,-2.4866,-2.3907,-2.2944,-2.2519,-2.2247,-2.2118,-2.1992,-2.1732,-2.1361,-2.1348,-2.1286,-2.1396,-2.153,-2.1554,-2.1684,-2.1468,-2.124,-2.135,-2.135,-2.1204,-2.1095,-2.1229,-2.1434,-1.5773,-1.6242,-1.6285,-1.6505,-1.6817,-1.6844,-1.686,-1.6991,-1.7594,-1.7969,-1.8365,-1.9398,-2.0074,-2.0269,-2.0903,-2.0994,-2.0549,-2.0469,-2.024,-2.001,-2.0021,-1.9953,-1.9546,-1.9425,-1.9126,-1.8826,-1.8792,-1.8596,-1.8205,-1.8193,-1.8139,-1.8166,-1.8193,-1.8232,-1.8383,-1.8533,-1.8614,-1.8744,-1.8893,-1.8972,-1.8972,-1.8987,-1.9013,-1.9013,-1.9025,-1.9242,-1.9652,-1.988,-1.9925,-2.0061,-2.0964,-2.1699,-2.2151,-2.2328,-2.2389,-2.2389,-2.2696,-2.2909,-2.2939,-2.3185,-2.3275,-2.3365,-2.3767,-2.4031,-2.4089,-2.4381,-2.4639,-2.4639,-2.4308,-2.4221,-2.4423,-2.393,-2.3619,-2.4015,-2.4538,-2.5049,-2.5688,-2.6286,-2.6568,-2.6606,-2.67,-2.6753,-2.6727,-2.67,-2.6794,-2.6779,-2.6727,-2.6647,-2.6712,-2.6433,-2.605,-2.5524,-2.4918,-2.3848,-2.2802,-2.2448,-2.2081,-2.1258,-2.1286,-2.1251,-2.0981,-2.1006,-2.1055,-2.1191,-2.1313,-2.1375,-2.1326,-2.1131,-2.0983,-2.0959,-2.0923,-2.0848,-2.0923,-2.1057,-2.1204,-1.5721,-1.5854,-1.5854,-1.6092,-1.6441,-1.6477,-1.6468,-1.6505,-1.6943,-1.7478,-1.8094,-1.89,-1.9574,-2.0128,-2.0848,-2.1109,-2.0856,-2.0515,-2.0148,-1.97,-1.9356,-1.9108,-1.8811,-1.8758,-1.8728,-1.8659,-1.8682,-1.862,-1.8491,-1.8452,-1.8464,-1.8452,-1.8425,-1.8479,-1.8572,-1.8587,-1.8614,-1.8679,-1.8798,-1.8866,-1.8878,-1.8972,-1.9013,-1.9013,-1.9037,-1.9302,-1.9844,-2.0574,-2.0983,-2.1019,-2.1596,-2.2029,-2.2204,-2.2216,-2.2247,-2.2309,-2.2555,-2.2769,-2.28,-2.2969,-2.3065,-2.3095,-2.3318,-2.3335,-2.3378,-2.3501,-2.3619,-2.359,-2.3412,-2.3454,-2.356,-2.3335,-2.3215,-2.3395,-2.3972,-2.4423,-2.4751,-2.5467,-2.5988,-2.5632,-2.6231,-2.6447,-2.6367,-2.6515,-2.6727,-2.6674,-2.6474,-2.6245,-2.6353,-2.6028,-2.5479,-2.5408,-2.4857,-2.3716,-2.2817,-2.2449,-2.176,-2.0602,-2.0497,-2.082,-2.0635,-2.0585,-2.0673,-2.0761,-2.0959,-2.1033,-2.0934,-2.0785,-2.0699,-2.0699,-2.0724,-2.0749,-2.0799,-2.0898,-2.1021,-1.5223,-1.5441,-1.5441,-1.568,-1.6028,-1.6056,-1.6056,-1.6092,-1.6285,-1.6732,-1.7408,-1.835,-1.9055,-1.9683,-2.0475,-2.0753,-2.0523,-2.001,-1.9493,-1.9057,-1.8696,-1.8465,-1.8328,-1.834,-1.8449,-1.8518,-1.8572,-1.8587,-1.8587,-1.8587,-1.8587,-1.8587,-1.8587,-1.8614,-1.8679,-1.8679,-1.8706,-1.8774,-1.8866,-1.8866,-1.8893,-1.8946,-1.8999,-1.9074,-1.9191,-1.9664,-2.0454,-2.1284,-2.1728,-2.1789,-2.2029,-2.2197,-2.2197,-2.2197,-2.2197,-2.2216,-2.2432,-2.2616,-2.272,-2.2878,-2.3017,-2.3078,-2.3095,-2.3095,-2.3125,-2.3095,-2.3095,-2.3125,-2.3095,-2.3095,-2.3095,-2.3095,-2.3095,-2.3198,-2.3454,-2.3809,-2.406,-2.495,-2.5286,-2.5273,-2.555,-2.6069,-2.5866,-2.6233,-2.6367,-2.6353,-2.6152,-2.5988,-2.5865,-2.5328,-2.4951,-2.4885,-2.4665,-2.3625,-2.2672,-2.2191,-2.1629,-2.0501,-2.008,-2.0384,-2.0397,-2.0296,-2.046,-2.0599,-2.0649,-2.0699,-2.0699,-2.0699,-2.0699,-2.0699,-2.0699,-2.0699,-2.0749,-2.0774,-2.0898,-1.4614,-1.5071,-1.5056,-1.5267,-1.5606,-1.5625,-1.5634,-1.5634,-1.5735,-1.5978,-1.6539,-1.7732,-1.8486,-1.8944,-1.987,-2.0125,-1.9711,-1.9298,-1.8736,-1.8375,-1.818,-1.8134,-1.8173,-1.8313,-1.8422,-1.8503,-1.8598,-1.864,-1.8667,-1.8667,-1.864,-1.8694,-1.8667,-1.8694,-1.8786,-1.8813,-1.8878,-1.8972,-1.896,-1.8987,-1.8999,-1.8999,-1.9074,-1.9278,-1.9817,-2.0406,-2.1175,-2.1837,-2.2149,-2.2173,-2.2197,-2.2197,-2.2197,-2.2197,-2.2197,-2.2216,-2.2328,-2.2482,-2.2647,-2.2787,-2.2939,-2.3047,-2.3078,-2.3095,-2.3095,-2.3095,-2.3095,-2.3095,-2.3095,-2.3095,-2.3095,-2.3095,-2.3095,-2.3108,-2.3138,-2.3395,-2.3914,-2.4538,-2.4866,-2.4851,-2.4851,-2.5273,-2.5522,-2.5784,-2.5811,-2.5756,-2.5605,-2.5398,-2.5161,-2.4724,-2.4452,-2.4352,-2.4003,-2.3538,-2.2655,-2.1882,-2.127,-2.0543,-2.0142,-2.0144,-2.0182,-2.022,-2.041,-2.0537,-2.0662,-2.0699,-2.0699,-2.0699,-2.0699,-2.0699,-2.0699,-2.0699,-2.0699,-2.0724,-2.0799,-1.4553,-1.492,-1.4702,-1.4864,-1.5194,-1.523,-1.523,-1.5249,-1.5551,-1.573,-1.6131,-1.7291,-1.7895,-1.8103,-1.9263,-1.978,-1.9585,-1.9091,-1.8593,-1.8169,-1.8084,-1.8084,-1.8139,-1.8286,-1.8503,-1.8637,-1.8744,-1.8813,-1.8893,-1.8881,-1.8907,-1.8907,-1.8881,-1.8934,-1.8946,-1.8946,-1.896,-1.8987,-1.9013,-1.9013,-1.9013,-1.9037,-1.9218,-1.9612,-2.0502,-2.1079,-2.1416,-2.1921,-2.2173,-2.2197,-2.2197,-2.2197,-2.2197,-2.2197,-2.2197,-2.2216,-2.234,-2.242,-2.2525,-2.2739,-2.2921,-2.2927,-2.3047,-2.3095,-2.3095,-2.3095,-2.3095,-2.3095,-2.3095,-2.3095,-2.3095,-2.3095,-2.3095,-2.3095,-2.3108,-2.3168,-2.3395,-2.3897,-2.4047,-2.3901,-2.4352,-2.4866,-2.4622,-2.5034,-2.5118,-2.5118,-2.4978,-2.4738,-2.4423,-2.4105,-2.3972,-2.3868,-2.3653,-2.3246,-2.2752,-2.1945,-2.1232,-2.0603,-2.0217,-2.0003,-2.0042,-2.0144,-2.0347,-2.0537,-2.0662,-2.0674,-2.0699,-2.0699,-2.0699,-2.0699,-2.0699,-2.0699,-2.0699,-2.0699,-2.0699,-1.4354,-1.4608,-1.4538,-1.4634,-1.4799,-1.4818,-1.4818,-1.4864,-1.5038,-1.5427,-1.5995,-1.6981,-1.7674,-1.8167,-1.8944,-1.9321,-1.9195,-1.8753,-1.8375,-1.8118,-1.8084,-1.8084,-1.8111,-1.8205,-1.8394,-1.861,-1.8744,-1.8851,-1.8919,-1.8972,-1.8987,-1.9013,-1.9013,-1.8987,-1.9013,-1.9013,-1.9013,-1.9013,-1.9013,-1.9013,-1.9013,-1.9025,-1.942,-2.0117,-2.0959,-2.1488,-2.1813,-2.2017,-2.2173,-2.2197,-2.2197,-2.2197,-2.2197,-2.2197,-2.2197,-2.2216,-2.2247,-2.2359,-2.2451,-2.2647,-2.2818,-2.2878,-2.303,-2.3078,-2.3095,-2.3095,-2.3095,-2.3095,-2.3095,-2.3095,-2.3095,-2.3095,-2.3095,-2.3095,-2.3095,-2.3095,-2.3168,-2.3424,-2.3543,-2.3275,-2.3708,-2.4047,-2.4205,-2.4423,-2.4481,-2.4551,-2.4523,-2.4292,-2.3796,-2.3531,-2.3501,-2.3395,-2.3288,-2.303,-2.2703,-2.2058,-2.127,-2.0666,-2.0177,-2.004,-2.0016,-2.0131,-2.0283,-2.0473,-2.0637,-2.0674,-2.0699,-2.0699,-2.0699,-2.0699,-2.0699,-2.0699,-2.0712,-2.0738,-2.0725,-1.4109,-1.4336,-1.4446,-1.4485,-1.4485,-1.4494,-1.4543,-1.4533,-1.4485,-1.4986,-1.5808,-1.6616,-1.7345,-1.8102,-1.8599,-1.8753,-1.8667,-1.8409,-1.8107,-1.8096,-1.8084,-1.8084,-1.8111,-1.815,-1.8232,-1.8422,-1.861,-1.8718,-1.8798,-1.8893,-1.8946,-1.8972,-1.8987,-1.9013,-1.9013,-1.9013,-1.9013,-1.9013,-1.9013,-1.9013,-1.9074,-1.9134,-1.9708,-2.0634,-2.1284,-2.1753,-2.2041,-2.2173,-2.2197,-2.2197,-2.2197,-2.2197,-2.2197,-2.2197,-2.2197,-2.2197,-2.2197,-2.2247,-2.2371,-2.2555,-2.2739,-2.2848,-2.3017,-2.3065,-2.3095,-2.3095,-2.3095,-2.3095,-2.3095,-2.3095,-2.3095,-2.3095,-2.3095,-2.3095,-2.3095,-2.3095,-2.3095,-2.3095,-2.3125,-2.3155,-2.3305,-2.3531,-2.3708,-2.3884,-2.3914,-2.3943,-2.3943,-2.3826,-2.3365,-2.3095,-2.3198,-2.3228,-2.3138,-2.2899,-2.2573,-2.2108,-2.1292,-2.0817,-2.029,-2.0141,-2.0079,-2.0131,-2.0283,-2.0461,-2.0612,-2.0649,-2.0699,-2.0699,-2.0699,-2.0699,-2.0699,-2.0699,-2.0725,-2.0777,-2.0856,-1.4109,-1.4336,-1.4446,-1.4485,-1.4485,-1.4485,-1.4485,-1.4485,-1.4485,-1.4563,-1.4926,-1.5926,-1.6537,-1.7009,-1.7852,-1.8221,-1.8244,-1.8157,-1.8084,-1.8084,-1.8084,-1.8084,-1.8084,-1.8111,-1.822,-1.834,-1.8487,-1.8556,-1.8652,-1.8771,-1.8878,-1.8866,-1.8934,-1.8987,-1.9013,-1.9013,-1.9013,-1.9013,-1.9025,-1.9025,-1.917,-1.9564,-2.0181,-2.1139,-2.1692,-2.2017,-2.2125,-2.2197,-2.2197,-2.2197,-2.2197,-2.2197,-2.2197,-2.2197,-2.2197,-2.2197,-2.2197,-2.2216,-2.2278,-2.2525,-2.2678,-2.2769,-2.2957,-2.3065,-2.3095,-2.3095,-2.3095,-2.3095,-2.3095,-2.3095,-2.3095,-2.3095,-2.3095,-2.3095,-2.3095,-2.3095,-2.3095,-2.3095,-2.3095,-2.3095,-2.3125,-2.3125,-2.3365,-2.3484,-2.3514,-2.3514,-2.3514,-2.3484,-2.3245,-2.3095,-2.3125,-2.3125,-2.3095,-2.2769,-2.2406,-2.1958,-2.138,-2.1046,-2.0592,-2.033,-2.0257,-2.0182,-2.0284,-2.0707,-2.0744,-2.0662,-2.0674,-2.0713,-2.0792,-2.0883,-2.0792,-2.0751,-2.1013,-2.1288,-2.1367,-1.4109,-1.4306,-1.4455,-1.4485,-1.4485,-1.4485,-1.4485,-1.4485,-1.4515,-1.4684,-1.5079,-1.5604,-1.6216,-1.6782,-1.7296,-1.776,-1.8018,-1.8084,-1.8084,-1.8084,-1.8084,-1.8084,-1.8111,-1.8111,-1.8232,-1.834,-1.8406,-1.8476,-1.8625,-1.8813,-1.8851,-1.8839,-1.8934,-1.9013,-1.9013,-1.9013,-1.9013,-1.9013,-1.9025,-1.9143,-1.9468,-2.0141,-2.0935,-2.1356,-2.1885,-2.2161,-2.2197,-2.2197,-2.2197,-2.2197,-2.2197,-2.2197,-2.2197,-2.2197,-2.2197,-2.2197,-2.2197,-2.2197,-2.2259,-2.2494,-2.2678,-2.2739,-2.2957,-2.3095,-2.3095,-2.3095,-2.3095,-2.3095,-2.3095,-2.3095,-2.3095,-2.3095,-2.3095,-2.3095,-2.3095,-2.3095,-2.3095,-2.3095,-2.3095,-2.3095,-2.3095,-2.3095,-2.3095,-2.3185,-2.3125,-2.3095,-2.3095,-2.3095,-2.3095,-2.3095,-2.3095,-2.3108,-2.3108,-2.2987,-2.2611,-2.2146,-2.1773,-2.1426,-2.1024,-2.0735,-2.0778,-2.0846,-2.1027,-2.1325,-2.1173,-2.086,-2.0781,-2.086,-2.0963,-2.1184,-2.138,-2.1551,-2.1642,-2.1773,-2.1904,-1.4139,-1.4366,-1.4446,-1.4485,-1.4485,-1.4485,-1.4485,-1.4485,-1.4485,-1.4743,-1.5186,-1.542,-1.6026,-1.6866,-1.7324,-1.7678,-1.8084,-1.8084,-1.8084,-1.8084,-1.8084,-1.8111,-1.8139,-1.8177,-1.8286,-1.8503,-1.8503,-1.853,-1.8614,-1.8813,-1.8866,-1.8866,-1.8946,-1.9013,-1.9013,-1.9013,-1.9013,-1.9013,-1.9037,-1.9287,-2.0049,-2.0851,-2.1476,-2.156,-2.1981,-2.2197,-2.2197,-2.2197,-2.2197,-2.2197,-2.2197,-2.2197,-2.2197,-2.2197,-2.2197,-2.2197,-2.2197,-2.2216,-2.2309,-2.2525,-2.2708,-2.2769,-2.2957,-2.3078,-2.3095,-2.3095,-2.3095,-2.3095,-2.3095,-2.3095,-2.3095,-2.3095,-2.3095,-2.3095,-2.3095,-2.3095,-2.3095,-2.3095,-2.3095,-2.3095,-2.3095,-2.3095,-2.3095,-2.3095,-2.3095,-2.3095,-2.3095,-2.3095,-2.3095,-2.3095,-2.3108,-2.3108,-2.3138,-2.3138,-2.2874,-2.2498,-2.2254,-2.2059,-2.1673,-2.1335,-2.1506,-2.1705,-2.1836,-2.1826,-2.1573,-2.129,-2.1147,-2.1212,-2.1511,-2.1852,-2.2166,-2.2244,-2.21,-2.2283,-2.2492,-1.4169,-1.4485,-1.4485,-1.4485,-1.4485,-1.4485,-1.4485,-1.4485,-1.4485,-1.4545,-1.4704,-1.5167,-1.5758,-1.6539,-1.7529,-1.7936,-1.8084,-1.8084,-1.8111,-1.8139,-1.8139,-1.822,-1.8329,-1.8367,-1.8476,-1.8664,-1.8718,-1.8679,-1.8706,-1.8786,-1.8813,-1.8825,-1.8919,-1.9013,-1.9013,-1.9013,-1.9013,-1.9013,-1.9049,-1.9543,-2.0446,-2.1127,-2.1632,-2.1969,-2.2137,-2.2197,-2.2197,-2.2197,-2.2197,-2.2197,-2.2197,-2.2197,-2.2197,-2.2197,-2.2197,-2.2197,-2.2197,-2.2247,-2.2359,-2.2543,-2.2708,-2.2787,-2.2987,-2.3078,-2.3095,-2.3095,-2.3095,-2.3095,-2.3095,-2.3095,-2.3095,-2.3095,-2.3095,-2.3095,-2.3095,-2.3095,-2.3095,-2.3095,-2.3095,-2.3095,-2.3095,-2.3095,-2.3095,-2.3095,-2.3095,-2.3095,-2.3095,-2.3095,-2.3095,-2.3095,-2.3095,-2.3108,-2.321,-2.3241,-2.322,-2.2825,-2.2744,-2.2651,-2.2433,-2.2041,-2.224,-2.2401,-2.221,-2.2164,-2.1962,-2.2043,-2.2175,-2.2282,-2.2309,-2.2426,-2.2662,-2.2584,-2.2362,-2.2676,-2.3093,-1.4198,-1.4485,-1.4485,-1.4485,-1.4485,-1.4485,-1.4485,-1.4485,-1.4485,-1.4485,-1.4545,-1.4764,-1.542,-1.634,-1.724,-1.776,-1.803,-1.8084,-1.8166,-1.8247,-1.8275,-1.8356,-1.8452,-1.8518,-1.8625,-1.8744,-1.8798,-1.8813,-1.8839,-1.8866,-1.8905,-1.8825,-1.8919,-1.9013,-1.9013,-1.9013,-1.9013,-1.9194,-1.96,-2.0314,-2.0983,-2.1548,-2.1957,-2.2185,-2.2197,-2.2197,-2.2197,-2.2197,-2.2197,-2.2197,-2.2197,-2.2197,-2.2197,-2.2197,-2.2197,-2.2197,-2.2197,-2.2216,-2.2278,-2.2451,-2.2574,-2.2665,-2.2836,-2.3017,-2.3078,-2.3095,-2.3095,-2.3095,-2.3095,-2.3095,-2.3095,-2.3095,-2.3095,-2.3095,-2.3095,-2.3095,-2.3095,-2.3095,-2.3095,-2.3095,-2.3095,-2.3095,-2.3095,-2.3095,-2.3095,-2.3095,-2.3095,-2.3095,-2.3095,-2.3095,-2.3095,-2.3095,-2.3228,-2.333,-2.3335,-2.32,-2.3234,-2.3233,-2.3363,-2.3071,-2.3029,-2.3048,-2.2887,-2.3023,-2.3173,-2.3271,-2.3315,-2.3093,-2.2884,-2.2988,-2.3145,-2.3106,-2.3108,-2.3328,-2.3694,-1.4258,-1.4485,-1.4485,-1.4485,-1.4485,-1.4485,-1.4485,-1.4485,-1.4485,-1.4485,-1.4545,-1.4714,-1.5294,-1.6026,-1.6698,-1.7268,-1.7815,-1.7881,-1.8084,-1.822,-1.834,-1.8383,-1.8464,-1.8545,-1.8625,-1.8798,-1.8798,-1.8866,-1.8972,-1.8999,-1.8946,-1.8878,-1.8946,-1.9025,-1.9013,-1.9037,-1.9074,-1.9351,-2.0081,-2.0767,-2.1356,-2.1885,-2.2101,-2.2197,-2.2197,-2.2197,-2.2197,-2.2197,-2.2197,-2.2197,-2.2197,-2.2197,-2.2197,-2.2197,-2.2197,-2.2197,-2.2197,-2.2197,-2.2247,-2.234,-2.2432,-2.2604,-2.2744,-2.3017,-2.3078,-2.3095,-2.3095,-2.3095,-2.3095,-2.3095,-2.3095,-2.3095,-2.3095,-2.3095,-2.3095,-2.3095,-2.3095,-2.3095,-2.3095,-2.3095,-2.3095,-2.3095,-2.3095,-2.3095,-2.3095,-2.3095,-2.3095,-2.3095,-2.3095,-2.3108,-2.3138,-2.3138,-2.3271,-2.3373,-2.339,-2.3424,-2.3569,-2.3671,-2.3819,-2.3839,-2.3641,-2.367,-2.368,-2.3907,-2.4067,-2.3965,-2.3707,-2.3563,-2.3417,-2.3509,-2.3655,-2.3864,-2.3981,-2.4125,-2.4112,-1.4485,-1.4485,-1.4485,-1.4485,-1.4485,-1.4485,-1.4485,-1.4485,-1.4485,-1.4485,-1.4575,-1.502,-1.5264,-1.5633,-1.614,-1.6708,-1.7285,-1.7285,-1.7694,-1.8018,-1.815,-1.8275,-1.8422,-1.8503,-1.8545,-1.8771,-1.8798,-1.8866,-1.8972,-1.9013,-1.8987,-1.8987,-1.8987,-1.9013,-1.9049,-1.9083,-1.9372,-1.9732,-2.0418,-2.0959,-2.1464,-2.1909,-2.2173,-2.2197,-2.2197,-2.2197,-2.2197,-2.2197,-2.2197,-2.2197,-2.2197,-2.2197,-2.2197,-2.2197,-2.2197,-2.2197,-2.2197,-2.2197,-2.2216,-2.2309,-2.2543,-2.2787,-2.2939,-2.3017,-2.3047,-2.3108,-2.3095,-2.3095,-2.3095,-2.3095,-2.3095,-2.3095,-2.3095,-2.3095,-2.3095,-2.3095,-2.3095,-2.3095,-2.3095,-2.3095,-2.3095,-2.3095,-2.3095,-2.3095,-2.3095,-2.3095,-2.3095,-2.3095,-2.3138,-2.3138,-2.318,-2.321,-2.3313,-2.3373,-2.3403,-2.3463,-2.3582,-2.373,-2.3861,-2.3979,-2.3985,-2.4096,-2.4054,-2.4096,-2.4096,-2.4096,-2.4112,-2.3903,-2.3796,-2.3952,-2.4083,-2.4112,-2.4125,-2.4125,-2.4125,-1.4327,-1.4485,-1.4485,-1.4485,-1.4485,-1.4485,-1.4485,-1.4485,-1.4485,-1.4485,-1.4515,-1.4764,-1.504,-1.5381,-1.5633,-1.6312,-1.709,-1.7213,-1.7639,-1.8073,-1.8313,-1.8394,-1.8503,-1.8518,-1.8625,-1.8744,-1.8786,-1.8866,-1.8987,-1.8987,-1.9013,-1.9013,-1.9013,-1.9013,-1.9062,-1.9287,-1.9732,-2.0237,-2.0791,-2.1356,-2.1825,-2.2029,-2.2197,-2.2197,-2.2197,-2.2197,-2.2197,-2.2197,-2.2197,-2.2197,-2.2197,-2.2197,-2.2197,-2.2197,-2.2197,-2.2197,-2.2197,-2.2197,-2.2197,-2.2247,-2.2371,-2.2543,-2.2726,-2.2921,-2.3,-2.3047,-2.3095,-2.3095,-2.3095,-2.3095,-2.3095,-2.3095,-2.3095,-2.3095,-2.3095,-2.3095,-2.3095,-2.3095,-2.3095,-2.3095,-2.3095,-2.3095,-2.3095,-2.3095,-2.3095,-2.3095,-2.3095,-2.3095,-2.3138,-2.3138,-2.3168,-2.318,-2.3283,-2.3373,-2.3403,-2.3492,-2.3611,-2.3671,-2.3802,-2.3789,-2.3776,-2.4054,-2.4054,-2.4083,-2.3995,-2.3878,-2.3907,-2.4054,-2.4083,-2.4083,-2.4083,-2.4112,-2.4125,-2.4083,-2.4024,-1.4198,-1.4357,-1.4446,-1.4485,-1.4485,-1.4485,-1.4485,-1.4485,-1.4485,-1.4485,-1.4485,-1.4515,-1.4704,-1.504,-1.5157,-1.5806,-1.6613,-1.6978,-1.7529,-1.7963,-1.8286,-1.8367,-1.8437,-1.8464,-1.8464,-1.8637,-1.8679,-1.8732,-1.8919,-1.8946,-1.8972,-1.8999,-1.9013,-1.9013,-1.9107,-1.9543,-2.0073,-2.0603,-2.1115,-2.1668,-2.2113,-2.2185,-2.2197,-2.2197,-2.2197,-2.2197,-2.2197,-2.2197,-2.2197,-2.2197,-2.2197,-2.2197,-2.2197,-2.2197,-2.2197,-2.2197,-2.2197,-2.2197,-2.2197,-2.2247,-2.2309,-2.2451,-2.2678,-2.283,-2.2909,-2.3017,-2.3095,-2.3095,-2.3095,-2.3108,-2.3108,-2.3095,-2.3095,-2.3095,-2.3095,-2.3095,-2.3095,-2.3095,-2.3095,-2.3095,-2.3095,-2.3095,-2.3095,-2.3065,-2.3035,-2.3065,-2.3095,-2.3095,-2.3108,-2.3138,-2.3138,-2.3138,-2.321,-2.33,-2.339,-2.339,-2.333,-2.3155,-2.3215,-2.3245,-2.3335,-2.3543,-2.3514,-2.3233,-2.3215,-2.3437,-2.3424,-2.3335,-2.3645,-2.4054,-2.3966,-2.3806,-2.3995,-2.3966,-2.3819,-1.4169,-1.407,-1.4357,-1.4485,-1.4485,-1.4485,-1.4485,-1.4485,-1.4485,-1.4485,-1.4485,-1.4485,-1.4565,-1.4684,-1.4823,-1.5517,-1.6397,-1.6595,-1.7084,-1.7936,-1.8177,-1.8139,-1.8139,-1.8193,-1.8313,-1.8394,-1.8476,-1.861,-1.8798,-1.8851,-1.8905,-1.8972,-1.8999,-1.9025,-1.9047,-1.9555,-2.0085,-2.0603,-2.1127,-2.1728,-2.2077,-2.2197,-2.2197,-2.2197,-2.2197,-2.2197,-2.2197,-2.2197,-2.2197,-2.2197,-2.2197,-2.2197,-2.2197,-2.2197,-2.2197,-2.2197,-2.2197,-2.2197,-2.2197,-2.234,-2.2359,-2.2389,-2.2574,-2.2769,-2.2878,-2.2987,-2.3078,-2.3047,-2.306,-2.309,-2.3078,-2.3078,-2.3047,-2.3078,-2.3078,-2.3108,-2.3078,-2.3095,-2.3095,-2.3095,-2.3095,-2.3095,-2.3078,-2.3065,-2.3005,-2.3005,-2.3065,-2.3065,-2.2975,-2.2884,-2.2811,-2.2567,-2.258,-2.2641,-2.2671,-2.3047,-2.3078,-2.2798,-2.2604,-2.2586,-2.2463,-2.2421,-2.2359,-2.2237,-2.239,-2.2616,-2.2543,-2.2439,-2.2829,-2.3203,-2.3437,-2.3437,-2.3688,-2.3747,-2.3497,-1.3989,-1.404,-1.4267,-1.4366,-1.4387,-1.4485,-1.4485,-1.4485,-1.4485,-1.4485,-1.4485,-1.4485,-1.4773,-1.5,-1.5186,-1.5719,-1.6698,-1.6922,-1.7435,-1.8002,-1.8084,-1.8111,-1.8084,-1.8111,-1.8205,-1.834,-1.8422,-1.8476,-1.8652,-1.8744,-1.8798,-1.8878,-1.8972,-1.9013,-1.9251,-1.9768,-2.0478,-2.0742,-2.1392,-2.2041,-2.2173,-2.2197,-2.2197,-2.2197,-2.2197,-2.2197,-2.2197,-2.2197,-2.2197,-2.2197,-2.2197,-2.2197,-2.2197,-2.2197,-2.2197,-2.2197,-2.2197,-2.2197,-2.2197,-2.2247,-2.2247,-2.2328,-2.2451,-2.2604,-2.2604,-2.2739,-2.2848,-2.2909,-2.2909,-2.2909,-2.2939,-2.2848,-2.2848,-2.2939,-2.2957,-2.303,-2.3047,-2.3078,-2.3095,-2.3095,-2.3095,-2.2975,-2.2914,-2.2689,-2.2628,-2.2598,-2.2598,-2.2525,-2.2433,-2.231,-2.2218,-2.1784,-2.1639,-2.1721,-2.1877,-2.223,-2.223,-2.1896,-2.1803,-2.1846,-2.1659,-2.1428,-2.1522,-2.1616,-2.171,-2.1772,-2.1729,-2.176,-2.199,-2.2237,-2.2433,-2.2707,-2.295,-2.301,-2.2907,-1.383,-1.3851,-1.4169,-1.4237,-1.4237,-1.4417,-1.4485,-1.4485,-1.4485,-1.4485,-1.4485,-1.4515,-1.4823,-1.5245,-1.5497,-1.6054,-1.7118,-1.7202,-1.7518,-1.803,-1.8084,-1.8084,-1.8084,-1.8111,-1.8177,-1.8286,-1.8313,-1.8367,-1.8518,-1.8652,-1.8786,-1.8905,-1.8946,-1.8999,-1.9326,-1.9925,-2.0574,-2.0887,-2.15,-2.2149,-2.2197,-2.2197,-2.2197,-2.2197,-2.2197,-2.2197,-2.2197,-2.2197,-2.2197,-2.2197,-2.2197,-2.2197,-2.2197,-2.2197,-2.2197,-2.2197,-2.2197,-2.2197,-2.2197,-2.2197,-2.2216,-2.2216,-2.2309,-2.2389,-2.242,-2.2616,-2.2739,-2.28,-2.2739,-2.2739,-2.2769,-2.2678,-2.2708,-2.2787,-2.2848,-2.2909,-2.2939,-2.2957,-2.2927,-2.2927,-2.2628,-2.2567,-2.2463,-2.2341,-2.2144,-2.2094,-2.2063,-2.1928,-2.1791,-2.171,-2.1585,-2.1219,-2.1008,-2.1187,-2.1282,-2.1376,-2.1282,-2.0996,-2.0965,-2.0996,-2.0709,-2.0452,-2.0709,-2.0901,-2.0805,-2.0773,-2.0985,-2.1112,-2.1144,-2.1239,-2.1333,-2.1698,-2.212,-2.2224,-2.2163,-1.364,-1.3571,-1.4079,-1.4178,-1.4079,-1.4357,-1.4485,-1.4485,-1.4485,-1.4485,-1.4485,-1.4545,-1.4961,-1.542,-1.5497,-1.6226,-1.7118,-1.7296,-1.7639,-1.7963,-1.8084,-1.8084,-1.8084,-1.8111,-1.8139,-1.8111,-1.8139,-1.8247,-1.8394,-1.8572,-1.8747,-1.8946,-1.8999,-1.9013,-1.9351,-1.9949,-2.0514,-2.0887,-2.1596,-2.2101,-2.2197,-2.2197,-2.2197,-2.2197,-2.2197,-2.2197,-2.2197,-2.2197,-2.2197,-2.2197,-2.2197,-2.2197,-2.2197,-2.2197,-2.2197,-2.2197,-2.2197,-2.2197,-2.2197,-2.2197,-2.2197,-2.2197,-2.2309,-2.2359,-2.242,-2.2494,-2.2586,-2.2647,-2.2616,-2.2647,-2.2659,-2.2629,-2.2629,-2.2647,-2.2678,-2.2708,-2.2739,-2.2739,-2.2678,-2.2439,-2.1908,-2.1678,-2.1404,-2.131,-2.1322,-2.1069,-2.0921,-2.0751,-2.0719,-2.1049,-2.0921,-2.073,-2.0645,-2.0805,-2.0805,-2.0613,-2.0452,-2.0193,-2.0128,-2.0107,-1.9748,-1.9627,-1.9846,-1.9977,-1.9769,-1.9802,-2.0107,-2.0193,-2.0161,-2.0258,-2.0376,-2.0762,-2.1227,-2.1333,-2.1365,-1.2818,-1.2887,-1.3731,-1.4049,-1.407,-1.4357,-1.4485,-1.4485,-1.4485,-1.4485,-1.4545,-1.4961,-1.5323,-1.6054,-1.65,-1.7073,-1.7501,-1.7843,-1.7936,-1.8057,-1.8057,-1.8084,-1.8084,-1.8084,-1.8084,-1.8084,-1.8111,-1.8139,-1.8247,-1.8425,-1.8721,-1.896,-1.8987,-1.8999,-1.9348,-2.0057,-2.0394,-2.0863,-2.168,-2.2065,-2.2197,-2.2197,-2.2197,-2.2197,-2.2197,-2.2197,-2.2197,-2.2197,-2.2197,-2.2197,-2.2197,-2.2197,-2.2197,-2.2197,-2.2197,-2.2197,-2.2197,-2.2197,-2.2197,-2.2197,-2.2197,-2.2197,-2.2247,-2.2247,-2.2278,-2.234,-2.2445,-2.2463,-2.2463,-2.2463,-2.2463,-2.2463,-2.2371,-2.2297,-2.2297,-2.2297,-2.2297,-2.2192,-2.2099,-2.1596,-2.1069,-2.0846,-2.0547,-2.0386,-2.0333,-1.9987,-1.977,-1.9671,-1.9704,-2.0063,-2.0258,-2.0096,-1.9966,-2.0074,-1.9879,-1.9649,-1.9551,-1.9429,-1.9495,-1.9495,-1.9396,-1.9297,-1.9198,-1.9208,-1.9341,-1.9341,-1.9374,-1.9462,-1.9616,-1.9452,-1.9584,-1.9933,-2.0258,-2.0452,-2.0592,-1.2657,-1.2978,-1.367,-1.407,-1.4228,-1.4426,-1.4485,-1.4485,-1.4485,-1.4485,-1.4536,-1.4843,-1.5352,-1.5892,-1.6255,-1.6708,-1.7262,-1.7529,-1.7667,-1.7705,-1.7947,-1.8084,-1.8084,-1.8057,-1.8084,-1.8084,-1.8084,-1.8111,-1.8193,-1.8425,-1.8721,-1.8881,-1.8946,-1.8999,-1.9326,-1.9985,-2.0514,-2.0971,-2.1512,-2.2041,-2.2197,-2.2197,-2.2197,-2.2197,-2.2197,-2.2197,-2.2197,-2.2197,-2.2197,-2.2197,-2.2197,-2.2197,-2.2197,-2.2197,-2.2197,-2.2197,-2.2197,-2.2197,-2.2197,-2.2197,-2.2197,-2.2197,-2.2166,-2.2197,-2.2197,-2.2228,-2.2278,-2.2309,-2.2278,-2.2216,-2.2247,-2.2216,-2.2037,-2.1858,-2.1839,-2.1776,-2.1714,-2.1608,-2.1175,-2.0655,-2.0333,-2.0107,-1.989,-1.9661,-1.9431,-1.922,-1.9065,-1.8998,-1.8998,-1.9198,-1.9419,-1.9452,-1.9297,-1.9208,-1.9008,-1.9065,-1.9131,-1.9198,-1.9231,-1.9231,-1.9098,-1.9098,-1.9131,-1.9131,-1.9131,-1.9131,-1.9175,-1.9131,-1.9198,-1.9098,-1.9098,-1.9419,-1.9748,-1.9879,-1.9987,-1.2787,-1.3411,-1.3821,-1.4198,-1.4455,-1.4485,-1.4485,-1.4485,-1.4485,-1.4485,-1.4515,-1.4604,-1.499,-1.5526,-1.5796,-1.6083,-1.6567,-1.6961,-1.7129,-1.7146,-1.7473,-1.7678,-1.7717,-1.7975,-1.7843,-1.7963,-1.8084,-1.8139,-1.822,-1.841,-1.8625,-1.8786,-1.8919,-1.8972,-1.9114,-2.0093,-2.0598,-2.0791,-2.1524,-2.2197,-2.2197,-2.2197,-2.2197,-2.2197,-2.2197,-2.2197,-2.2197,-2.2197,-2.2197,-2.2197,-2.2197,-2.2197,-2.2197,-2.2197,-2.2197,-2.2197,-2.2197,-2.2197,-2.2197,-2.2197,-2.2197,-2.2154,-2.2123,-2.2123,-2.2092,-2.2166,-2.2216,-2.2247,-2.2228,-2.1987,-2.1925,-2.1819,-2.1651,-2.1325,-2.1092,-2.1008,-2.0869,-2.0634,-2.0215,-1.9748,-1.9562,-1.9342,-1.9044,-1.8821,-1.8877,-1.8607,-1.8482,-1.8414,-1.8482,-1.8573,-1.8741,-1.8942,-1.8875,-1.8818,-1.8875,-1.8908,-1.8975,-1.9042,-1.9031,-1.9098,-1.9098,-1.9098,-1.9098,-1.9098,-1.9098,-1.9098,-1.9131,-1.9098,-1.9098,-1.9098,-1.9098,-1.9098,-1.9264,-1.9462,-1.9495,-1.2135,-1.2826,-1.3662,-1.4207,-1.4485,-1.4485,-1.4485,-1.4485,-1.4485,-1.4485,-1.4575,-1.4931,-1.5186,-1.5323,-1.5719,-1.5997,-1.6197,-1.633,-1.6482,-1.6567,-1.6793,-1.7073,-1.6933,-1.739,-1.7462,-1.7584,-1.7788,-1.8177,-1.8275,-1.8394,-1.8518,-1.8652,-1.8786,-1.8851,-1.895,-1.9985,-2.0581,-2.067,-2.1572,-2.2161,-2.2197,-2.2197,-2.2197,-2.2197,-2.2197,-2.2197,-2.2197,-2.2197,-2.2197,-2.2197,-2.2197,-2.2197,-2.2197,-2.2197,-2.2197,-2.2197,-2.2197,-2.2197,-2.2197,-2.2197,-2.2154,-2.1956,-2.1862,-2.1894,-2.1968,-2.2092,-2.2197,-2.2166,-2.2061,-2.1788,-2.1557,-2.14,-2.1135,-2.0709,-2.0323,-2.0161,-2.0031,-1.9606,-1.921,-1.8988,-1.8787,-1.8529,-1.8269,-1.8202,-1.8202,-1.8202,-1.8144,-1.8144,-1.8245,-1.8347,-1.8414,-1.8549,-1.8617,-1.8617,-1.8684,-1.8751,-1.8808,-1.8841,-1.8841,-1.8942,-1.9042,-1.9098,-1.9098,-1.9098,-1.9098,-1.9098,-1.9098,-1.9098,-1.9098,-1.9098,-1.9098,-1.9098,-1.9098,-1.9264,-1.9231,-1.2074,-1.3009,-1.37,-1.4198,-1.4455,-1.4485,-1.4485,-1.4485,-1.4485,-1.4485,-1.4515,-1.4852,-1.502,-1.502,-1.5381,-1.5584,-1.5613,-1.5796,-1.5853,-1.5911,-1.6226,-1.6595,-1.6754,-1.7006,-1.7446,-1.7611,-1.7881,-1.8166,-1.8286,-1.8394,-1.8464,-1.8518,-1.8637,-1.8741,-1.8887,-1.9817,-2.0512,-2.0577,-2.1626,-2.2101,-2.2197,-2.2197,-2.2197,-2.2197,-2.2197,-2.2197,-2.2197,-2.2197,-2.2197,-2.2197,-2.2197,-2.2197,-2.2197,-2.2197,-2.2197,-2.2197,-2.2197,-2.2197,-2.2197,-2.2166,-2.2092,-2.1757,-2.1463,-2.1474,-2.1494,-2.162,-2.1925,-2.1894,-2.1663,-2.1388,-2.1167,-2.0996,-2.0355,-1.9835,-1.9606,-1.9408,-1.9121,-1.8731,-1.8529,-1.8462,-1.8337,-1.8269,-1.8076,-1.8076,-1.81,-1.81,-1.8008,-1.8008,-1.8076,-1.8144,-1.8178,-1.8255,-1.8347,-1.8448,-1.8549,-1.8583,-1.8617,-1.865,-1.8674,-1.8774,-1.8908,-1.9031,-1.9098,-1.9098,-1.9098,-1.9098,-1.9098,-1.9098,-1.9098,-1.9098,-1.9098,-1.9098,-1.9098,-1.9098,-1.9131,-1.2289,-1.3541,-1.389,-1.4198,-1.4485,-1.4485,-1.4485,-1.4485,-1.4485,-1.4485,-1.4485,-1.4515,-1.4485,-1.4485,-1.4506,-1.4485,-1.4684,-1.5137,-1.5264,-1.5575,-1.5911,-1.6283,-1.6726,-1.7146,-1.7529,-1.7815,-1.8057,-1.8084,-1.8139,-1.8247,-1.8329,-1.8383,-1.8491,-1.8598,-1.892,-1.9629,-2.0355,-2.0717,-2.141,-2.2046,-2.2154,-2.2197,-2.2197,-2.2197,-2.2197,-2.2197,-2.2197,-2.2197,-2.2197,-2.2197,-2.2197,-2.2197,-2.2197,-2.2197,-2.2197,-2.2197,-2.2197,-2.2197,-2.2197,-2.2197,-2.1862,-2.1506,-2.1198,-2.104,-2.106,-2.106,-2.1368,-2.14,-2.1167,-2.0901,-2.0709,-2.0312,-1.9628,-1.9077,-1.8888,-1.8754,-1.8395,-1.8076,-1.8076,-1.8042,-1.8042,-1.8008,-1.8008,-1.8008,-1.8008,-1.8008,-1.8008,-1.8008,-1.8008,-1.8042,-1.8076,-1.811,-1.8178,-1.8279,-1.8381,-1.8414,-1.8381,-1.8482,-1.8506,-1.8607,-1.8774,-1.8975,-1.9098,-1.9098,-1.9098,-1.9098,-1.9098,-1.9098,-1.9098,-1.9098,-1.9098,-1.9098,-1.9098,-1.9098,-1.9098,-1.2451,-1.392,-1.3971,-1.4198,-1.4455,-1.4485,-1.4485,-1.4485,-1.4485,-1.4485,-1.4485,-1.4485,-1.4485,-1.4485,-1.4485,-1.4485,-1.4545,-1.4793,-1.5079,-1.541,-1.569,-1.6065,-1.6567,-1.723,-1.7595,-1.7881,-1.8084,-1.8084,-1.8084,-1.8139,-1.8166,-1.8193,-1.8367,-1.8484,-1.8651,-1.9425,-2.0287,-2.0629,-2.1271,-2.1999,-2.2154,-2.2154,-2.2197,-2.2197,-2.2197,-2.2197,-2.2197,-2.2197,-2.2197,-2.2197,-2.2197,-2.2197,-2.2197,-2.2197,-2.2197,-2.2197,-2.2197,-2.2197,-2.2197,-2.2197,-2.1894,-2.1663,-2.1336,-2.0773,-2.057,-2.0117,-2.0387,-2.0656,-2.0452,-2.0215,-1.9955,-1.9529,-1.8944,-1.8563,-1.8269,-1.8269,-1.811,-1.8042,-1.8042,-1.8008,-1.8008,-1.8008,-1.8008,-1.8008,-1.8008,-1.8008,-1.8008,-1.8008,-1.8008,-1.8008,-1.8008,-1.8042,-1.8042,-1.8042,-1.811,-1.8144,-1.8178,-1.8236,-1.8371,-1.8472,-1.8674,-1.8942,-1.9075,-1.9042,-1.9065,-1.9065,-1.9098,-1.9098,-1.9098,-1.9098,-1.9098,-1.9098,-1.9098,-1.9098,-1.9098]}]]